[[{"header":{"parameterUnit":"m.s-1","parameterCategory":1,"la1":31.0,"la2":29.5877,"lo1":-88.7671,"lo2":-86.6584,"dx":0.0162,"dy":0.0185,"nx":115,"ny":88,"refTime":"2022-11-20T18:00:00:Z","depth":0,"parameterNumber":2,"parameterNumberName":"U-component_of_WINDS"},"data":[0.0,0.0,0.0,0.0,0.0,0.0,0.0,0.0,0.0,0.0,0.0,0.0,0.0,0.0,0.0,0.0,0.0,0.0,0.0,0.0,0.0,0.0,0.0,0.0,0.0,0.0,0.0,0.0,0.0,0.0,0.0,0.0,0.0,0.0,0.0,0.0,0.0,0.0,0.0,0.0,0.0,0.0,0.0,0.0,0.0,0.0,0.0,0.0,0.0,0.0,0.0,0.0,0.0,0.0,0.0,0.0,0.0,0.0,0.0,0.0,0.0,0.0,0.0,0.0,0.0,0.0,0.0,0.0,0.0,0.0,0.0,0.0,0.0,0.0,0.0,0.0,0.0,0.0,0.0,0.0,0.0,0.0,0.0,0.0,0.0,0.0,0.0,0.0,0.0,0.0,0.0,0.0,0.0,0.0,0.0,0.0,0.0,0.0,0.0,0.0,0.0,0.0,0.0,0.0,0.0,0.0,0.0,0.0,0.0,0.0,0.0,0.0,0.0,0.0,0.0,0.0,0.0,0.0,0.0,0.0,0.0,0.0,0.0,0.0,0.0,0.0,0.0,0.0,0.0,0.0,0.0,0.0,0.0,0.0,0.0,0.0,0.0,0.0,0.0,0.0,0.0,0.0,0.0,0.0,0.0,0.0,0.0,0.0,0.0,0.0,0.0,0.0,0.0,0.0,0.0,0.0,0.0,0.0,0.0,0.0,0.0,0.0,0.0,0.0,0.0,0.0,0.0,0.0,0.0,0.0,0.0,0.0,0.0,0.0,0.0,0.0,0.0,0.0,0.0,0.0,0.0,0.0,0.0,0.0,0.0,0.0,0.0,0.0,0.0,0.0,0.0,0.0,0.0,0.0,0.0,0.0,0.0,0.0,0.0,0.0,0.0,0.0,0.0,0.0,0.0,0.0,0.0,0.0,0.0,0.0,0.0,0.0,0.0,0.0,0.0,0.0,0.0,0.0,0.0,0.0,0.0,0.0,0.0,0.0,0.0,0.0,0.0,0.0,0.0,0.0,0.0,0.0,0.0,0.0,0.0,0.0,0.0,0.0,0.0,0.0,0.0,0.0,0.0,0.0,0.0,0.0,0.0,0.0,0.0,0.0,0.0,0.0,0.0,0.0,0.0,0.0,0.0,0.0,0.0,0.0,0.0,0.0,0.0,0.0,0.0,0.0,0.0,0.0,0.0,0.0,0.0,0.0,0.0,0.0,0.0,0.0,0.0,0.0,0.0,0.0,0.0,0.0,0.0,0.0,0.0,0.0,0.0,0.0,0.0,0.0,0.0,0.0,0.0,0.0,0.0,0.0,0.0,0.0,0.0,0.0,0.0,0.0,0.0,0.0,0.0,0.0,0.0,0.0,0.0,0.0,0.0,0.0,0.0,0.0,0.0,0.0,0.0,0.0,0.0,0.0,0.0,0.0,0.0,0.0,0.0,0.0,0.0,0.0,0.0,0.0,0.0,0.0,0.0,0.0,0.0,0.0,0.0,0.0,0.0,0.0,0.0,0.0,0.0,0.0,0.0,0.0,0.0,0.0,0.0,0.0,0.0,0.0,0.0,0.0,0.0,0.0,0.0,0.0,0.0,0.0,0.0,0.0,0.0,0.0,0.0,0.0,0.0,0.0,0.0,0.0,0.0,0.0,0.0,0.0,0.0,0.0,0.0,0.0,0.0,0.0,0.0,0.0,0.0,0.0,0.0,0.0,0.0,0.0,0.0,0.0,0.0,0.0,0.0,0.0,0.0,0.0,0.0,0.0,0.0,0.0,0.0,0.0,0.0,0.0,0.0,0.0,0.0,0.0,0.0,0.0,0.0,0.0,0.0,0.0,0.0,0.0,0.0,0.0,0.0,0.0,0.0,0.0,0.0,0.0,0.0,0.0,0.0,0.0,0.0,0.0,0.0,0.0,0.0,0.0,0.0,0.0,0.0,0.0,0.0,0.0,0.0,0.0,0.0,0.0,0.0,0.0,0.0,0.0,0.0,0.0,0.0,0.0,0.0,0.0,0.0,0.0,0.0,0.0,0.0,0.0,0.0,0.0,0.0,0.0,0.0,0.0,0.0,0.0,0.0,0.0,0.0,0.0,0.0,0.0,0.0,0.0,0.0,0.0,0.0,0.0,0.0,0.0,0.0,0.0,0.0,0.0,0.0,0.0,0.0,0.0,0.0,0.0,0.0,0.0,0.0,0.0,0.0,0.0,0.0,0.0,0.0,0.0,0.0,0.0,0.0,0.0,0.0,0.0,0.0,0.0,0.0,0.0,0.0,0.0,0.0,0.0,0.0,0.0,0.0,0.0,0.0,0.0,0.0,0.0,0.0,0.0,0.0,0.0,0.0,0.0,0.0,0.0,0.0,0.0,0.0,0.0,0.0,0.0,0.0,0.0,0.0,0.0,0.0,0.0,0.0,0.0,0.0,0.0,0.0,0.0,0.0,0.0,0.0,0.0,0.0,0.0,0.0,0.0,0.0,0.0,0.0,0.0,0.0,0.0,0.0,0.0,0.0,0.0,0.0,0.0,0.0,0.0,0.0,0.0,0.0,0.0,0.0,0.0,0.0,0.0,0.0,0.0,0.0,0.0,0.0,0.0,0.0,0.0,0.0,0.0,0.0,0.0,0.0,0.0,0.0,0.0,0.0,0.0,0.0,0.0,0.0,0.0,0.0,0.0,0.0,0.0,0.0,0.0,0.0,0.0,0.0,0.0,0.0,0.0,0.0,0.0,0.0,0.0,0.0,0.0,0.0,0.0,0.0,0.0,0.0,0.0,0.0,0.0,0.0,0.0,0.0,0.0,0.0,0.0,0.0,0.0,0.0,0.0,0.0,0.0,0.0,0.0,0.0,0.0,0.0,0.0,0.0,0.0,0.0,0.0,0.0,0.0,0.0,0.0,0.0,0.0,0.0,0.0,0.0,0.0,0.0,0.0,0.0,0.0,0.0,0.0,0.0,0.0,0.0,0.0,0.0,0.0,0.0,0.0,0.0,0.0,0.0,0.0,0.0,0.0,0.0,0.0,0.0,0.0,0.0,0.0,0.0,0.0,0.0,0.0,0.0,0.0,0.0,0.0,0.0,0.0,0.0,0.0,0.0,0.0,0.0,0.0,0.0,0.0,0.0,0.0,0.0,0.0,0.0,0.0,0.0,0.0,0.0,0.0,0.0,0.0,0.0,0.0,0.0,0.0,0.0,0.0,0.0,0.0,0.0,0.0,0.0,0.0,0.0,0.0,0.0,0.0,0.0,0.0,0.0,0.0,0.0,0.0,0.0,0.0,0.0,0.0,0.0,0.0,0.0,0.0,0.0,0.0,0.0,0.0,0.0,0.0,0.0,0.0,0.0,0.0,0.0,0.0,0.0,0.0,0.0,0.0,0.0,0.0,0.0,0.0,0.0,0.0,0.0,0.0,0.0,0.0,0.0,0.0,0.0,0.0,0.0,0.0,0.0,0.0,0.0,0.0,0.0,0.0,0.0,0.0,0.0,0.0,0.0,0.0,0.0,0.0,0.0,0.0,0.0,0.0,0.0,0.0,0.0,0.0,0.0,0.0,0.0,0.0,0.0,0.0,0.0,0.0,0.0,0.0,0.0,0.0,0.0,0.0,0.0,0.0,0.0,0.0,0.0,0.0,0.0,0.0,0.0,0.0,0.0,0.0,0.0,0.0,0.0,0.0,0.0,0.0,0.0,0.0,0.0,0.0,0.0,0.0,0.0,0.0,0.0,0.0,0.0,0.0,0.0,0.0,0.0,0.0,0.0,0.0,0.0,0.0,0.0,0.0,0.0,0.0,0.0,0.0,0.0,0.0,0.0,0.0,0.0,0.0,0.0,0.0,0.0,0.0,0.0,0.0,0.0,0.0,0.0,0.0,0.0,0.0,0.0,0.0,0.0,0.0,0.0,0.0,0.0,0.0,0.0,0.0,0.0,0.0,0.0,0.0,0.0,0.0,0.0,0.0,0.0,0.0,0.0,0.0,0.0,0.0,0.0,0.0,0.0,0.0,0.0,0.0,0.0,0.0,0.0,0.0,0.0,0.0,0.0,0.0,0.0,0.0,0.0,0.0,0.0,0.0,0.0,0.0,0.0,0.0,0.0,0.0,0.0,0.0,0.0,0.0,0.0,0.0,0.0,0.0,0.0,0.0,0.0,0.0,0.0,0.0,0.0,0.0,0.0,0.0,0.0,0.0,0.0,0.0,0.0,0.0,0.0,0.0,0.0,0.0,0.0,0.0,0.0,0.0,0.0,0.0,0.0,0.0,1.1531,0.0,0.0,0.0,0.9617,0.0,0.0,0.0,0.0,0.0,0.0,0.0,0.0,0.0,0.0,0.0,0.0,0.0,0.0,0.0,0.0,0.0,0.0,0.0,0.0,0.0,0.0,0.0,0.0,0.0,0.0,0.0,0.0,0.0,0.0,0.0,0.0,0.0,0.0,0.0,0.0,0.0,0.0,0.0,0.0,0.0,0.0,0.0,0.0,0.0,0.0,0.0,0.0,0.0,0.0,0.0,0.0,0.0,0.0,0.0,0.0,0.0,0.0,0.0,0.0,0.0,0.0,0.0,0.0,0.0,0.0,0.0,0.0,0.0,0.0,0.0,0.0,0.0,0.0,0.0,0.0,0.0,0.0,0.0,0.0,0.0,0.0,0.0,0.0,0.0,0.0,0.0,0.0,0.0,0.0,0.0,0.0,0.0,0.0,0.0,0.0,0.0,0.0,0.0,0.0,0.0,0.0,0.0,0.0,0.0,0.0,0.0,0.0,0.0,0.0,1.1361,1.0903,1.0432,0.9904,0.9296,0.0,0.0,0.0,0.0,0.0,0.0,0.0,0.0,0.0,0.0,0.0,0.0,0.0,0.0,0.0,0.0,0.0,0.0,0.0,0.0,0.0,0.0,0.0,0.0,0.0,0.0,0.0,0.0,0.0,0.0,0.0,0.0,0.0,0.0,0.0,0.0,0.0,0.0,0.0,0.0,0.0,0.0,0.0,0.0,0.0,0.0,0.0,0.0,0.0,0.0,0.0,0.0,0.0,0.0,0.0,0.0,0.0,0.0,0.0,0.0,0.0,0.0,0.0,0.0,0.0,0.0,0.0,0.0,0.0,0.0,0.0,0.0,0.0,0.0,0.0,0.0,0.0,0.0,0.0,0.0,0.0,0.0,0.0,0.0,0.0,0.0,0.0,0.0,0.0,0.0,0.0,0.0,0.0,0.0,0.0,0.0,0.0,0.0,0.0,0.0,0.0,0.0,0.0,0.0,0.0,0.0,0.0,0.0,0.0,0.0,0.0,0.0,1.0419,0.9821,0.9041,0.0,0.0,0.0,0.0,0.0,0.0,0.0,0.0,0.0,0.0,0.0,0.0,0.0,0.0,0.0,0.0,0.0,0.0,0.0,0.0,0.0,0.0,0.0,0.0,0.0,0.0,0.0,0.0,0.0,0.0,0.0,0.0,0.0,0.0,0.0,0.0,0.0,0.0,0.0,0.0,0.0,0.0,0.0,0.0,0.0,0.0,0.0,0.0,0.0,0.0,0.0,0.0,0.0,0.0,0.0,0.0,0.0,0.0,0.0,0.0,0.0,0.0,0.0,0.0,0.0,0.0,0.0,0.0,0.0,0.0,0.0,0.0,0.0,0.0,0.0,0.0,0.0,0.0,0.0,0.0,0.0,0.0,0.0,0.0,0.0,0.0,0.0,0.0,0.0,0.0,0.0,0.0,0.0,0.0,0.0,0.0,0.0,0.0,0.0,0.0,0.0,0.0,0.0,0.0,0.0,0.0,0.0,0.0,0.0,0.0,1.1016,1.0805,1.041,0.0,0.906,0.0,0.0,0.0,0.0,0.0,0.0,0.0,0.0,0.0,0.0,0.0,0.0,0.0,0.0,0.0,0.0,0.0,0.0,0.0,0.0,0.0,0.0,0.0,0.0,0.0,0.0,0.0,0.0,0.0,0.0,0.0,0.0,0.0,0.0,0.0,0.0,0.0,0.0,0.0,0.0,0.0,0.0,0.0,0.0,0.0,0.0,0.0,0.0,0.0,0.0,0.0,0.0,0.0,0.0,0.0,0.0,0.0,0.0,0.0,0.0,0.0,0.0,0.0,0.0,0.0,0.0,0.0,0.0,0.0,0.0,0.0,0.0,0.0,0.0,0.0,0.0,0.0,0.0,0.0,0.0,0.0,0.0,0.0,0.0,0.0,0.0,0.0,0.0,0.0,0.0,0.0,0.0,0.0,0.0,0.0,0.0,0.0,0.0,0.0,0.0,0.0,0.0,0.0,0.0,0.0,0.0,0.0,0.0,0.0,0.0,1.1001,1.1268,1.0349,0.9822,0.0,0.0,0.0,0.0,0.0,0.0,0.0,0.0,0.0,0.0,0.0,0.0,0.0,0.0,0.0,0.0,0.0,0.0,0.0,0.0,0.0,0.0,0.0,0.0,0.0,0.0,0.0,0.0,0.0,0.0,0.0,0.0,0.0,0.0,0.0,0.0,0.0,0.0,0.0,0.0,0.0,0.0,0.0,0.0,0.0,0.0,0.0,0.0,0.0,0.0,0.0,0.0,0.0,0.0,0.0,0.0,0.0,0.0,0.0,0.0,0.0,0.0,0.0,0.0,0.0,0.0,0.0,0.0,0.0,0.0,0.0,0.0,0.0,0.0,0.0,0.0,0.0,0.0,0.0,0.0,0.0,0.0,0.0,0.0,0.0,0.0,0.0,0.0,0.0,0.0,0.0,0.0,0.0,0.0,0.0,0.0,0.0,0.0,0.0,0.0,0.0,0.0,0.0,0.0,0.0,0.0,0.0,0.0,0.0,0.0,1.1425,1.1219,1.1719,1.0728,1.0261,1.0469,0.0,0.0,0.0,0.0,0.0,0.0,0.0,0.0,0.0,0.0,0.0,0.0,0.0,0.0,0.0,0.0,0.0,0.0,0.0,0.0,0.0,0.0,0.0,0.0,0.0,0.0,0.0,0.0,0.0,0.0,0.0,0.0,0.0,0.0,0.0,0.0,0.0,0.0,0.0,0.0,0.0,0.0,0.0,0.0,0.0,0.0,0.0,0.0,0.0,0.0,0.0,0.0,0.0,0.0,0.0,0.0,0.0,0.0,0.0,0.0,0.0,0.0,0.0,0.0,0.0,0.0,0.0,0.0,0.0,0.0,0.0,0.0,0.0,0.0,0.0,0.0,0.0,0.0,0.0,0.0,0.0,0.0,0.0,0.0,0.0,0.0,0.0,0.0,0.0,0.0,0.0,0.0,0.0,0.0,0.0,0.0,0.0,0.0,0.0,0.0,0.0,0.0,0.0,0.0,0.0,0.0,0.0,0.0,1.233,1.1851,1.1789,1.2233,1.1768,1.1328,0.0,0.0,0.0,0.0,0.0,0.0,0.0,0.0,0.0,0.0,0.0,0.0,0.0,0.0,0.0,0.0,0.0,0.0,0.0,0.0,0.0,0.0,0.0,0.0,0.0,0.0,0.0,0.0,0.0,0.0,0.0,0.0,0.0,0.0,0.0,0.0,0.0,0.0,0.0,0.0,0.0,0.0,0.0,0.0,0.0,0.0,0.0,0.0,0.0,0.0,0.0,0.0,0.0,0.0,0.0,0.0,0.0,0.0,0.0,0.0,0.0,0.0,0.0,0.0,0.0,0.0,0.0,0.0,0.0,0.0,0.0,0.0,0.0,0.0,0.0,0.0,0.0,0.0,0.0,0.0,0.0,0.0,0.0,0.0,0.0,0.0,0.0,0.0,0.0,0.0,0.0,0.0,0.0,0.0,0.0,0.0,0.0,0.0,0.0,0.0,0.0,0.0,0.0,0.0,0.0,0.0,0.0,0.0,0.0,1.2298,1.2401,1.2379,1.2318,1.2131,1.1715,0.0,0.0,0.0,0.0,0.0,0.0,0.0,0.0,0.0,0.0,0.0,0.0,0.0,0.0,0.0,0.0,0.0,0.0,0.0,0.0,0.0,0.0,0.0,0.0,0.0,0.0,0.0,0.0,0.0,0.0,0.0,0.0,0.0,0.0,0.0,0.0,0.0,0.0,0.0,0.0,0.0,0.0,0.0,0.0,0.0,0.0,0.0,0.0,0.0,0.0,0.0,0.0,0.0,0.0,0.0,0.0,0.0,0.0,0.0,0.0,0.0,0.0,0.0,0.0,0.0,0.0,0.0,0.0,0.0,0.0,0.0,0.0,0.0,0.0,0.0,0.0,0.0,0.0,0.0,0.0,0.0,0.0,0.0,0.0,0.0,0.0,0.0,0.0,0.0,0.0,0.0,0.0,0.0,0.0,0.0,0.0,0.0,0.0,0.0,0.0,0.0,0.0,0.0,0.0,0.0,0.0,0.0,0.0,0.0,1.2919,1.3372,1.3445,1.3178,1.2877,1.2296,0.0,0.0,0.0,0.0,0.0,0.0,0.0,0.0,0.0,0.0,0.0,0.0,0.0,0.0,0.0,0.0,0.0,0.0,0.0,0.0,0.0,0.0,0.0,0.0,0.0,0.0,0.0,0.0,0.0,0.0,0.0,0.0,0.0,0.0,0.0,0.0,0.0,0.0,0.0,0.0,0.0,0.0,0.0,0.0,0.0,0.0,0.0,0.0,0.0,0.0,0.0,0.0,0.0,0.0,0.0,0.0,0.0,0.0,0.0,0.0,0.0,0.0,0.0,0.0,0.0,0.0,0.0,0.0,0.0,0.0,0.0,0.0,0.0,0.0,0.0,0.0,0.0,0.0,0.0,0.0,0.0,0.0,0.0,0.0,0.0,0.0,0.0,0.0,0.0,0.0,0.0,0.0,0.0,0.0,0.0,0.0,0.0,0.0,0.0,0.0,0.0,0.0,0.0,0.0,0.0,0.0,0.0,0.0,1.298,1.4239,1.4718,1.4907,1.4969,1.4076,1.3192,0.0,0.0,0.0,0.0,0.0,0.0,0.0,0.0,0.0,0.0,0.0,0.0,0.0,0.0,0.0,0.0,0.0,0.0,0.0,0.0,0.0,0.0,0.0,0.0,0.0,0.0,0.0,0.0,0.0,0.0,0.0,0.0,0.0,0.0,0.0,0.0,0.0,0.0,0.0,0.0,0.0,0.0,0.0,0.0,0.0,0.0,0.0,0.0,0.0,0.0,0.0,0.0,0.0,0.0,0.0,0.0,0.0,0.0,0.0,0.0,0.0,0.0,0.0,0.0,0.0,0.0,0.0,0.0,0.0,0.0,0.0,0.0,0.0,0.0,0.0,0.0,0.0,0.0,0.0,0.0,0.0,0.0,0.0,0.0,0.0,0.0,0.0,0.0,0.0,0.0,0.0,0.0,0.0,0.0,0.0,0.0,0.0,0.0,0.0,0.0,0.0,0.0,0.0,0.0,0.0,0.0,0.0,0.0,0.0,1.4769,1.4925,1.501,1.4987,1.4718,1.4001,0.0,0.0,0.0,0.0,0.0,0.0,0.0,0.0,0.0,0.0,0.0,0.0,0.0,0.0,0.0,0.0,0.0,0.0,0.0,0.0,0.0,0.0,0.0,0.0,0.0,0.0,0.0,0.0,0.0,0.0,0.0,0.0,0.0,0.0,0.0,0.0,0.0,0.0,0.0,0.0,0.0,0.0,0.0,0.0,0.0,0.0,0.0,0.0,0.0,0.0,0.0,0.0,0.0,0.0,0.0,0.0,0.0,0.0,0.0,0.0,0.0,0.0,0.0,0.0,0.0,0.0,0.0,0.0,0.0,0.0,0.0,0.0,0.0,0.0,0.0,0.0,0.0,0.0,0.0,0.0,0.0,0.0,0.0,0.0,0.0,0.0,0.0,0.0,0.0,0.0,0.0,0.0,0.0,0.0,0.0,0.0,0.0,0.0,0.0,0.0,0.0,0.0,0.0,0.0,0.0,0.0,0.0,0.0,0.0,1.5535,1.5656,1.5749,1.5749,1.5611,1.4885,1.3583,0.0,0.0,0.0,0.0,0.0,0.0,0.0,0.0,0.0,0.0,0.0,0.0,0.0,0.0,0.0,0.0,0.0,0.0,0.0,0.0,0.0,0.0,0.0,0.0,0.0,0.0,0.0,0.0,0.0,0.0,0.0,0.0,0.0,0.0,0.0,0.0,0.0,0.0,0.0,0.0,0.0,0.0,0.0,0.0,0.0,0.0,0.0,0.0,0.0,0.0,0.0,0.0,0.0,0.0,0.0,0.0,0.0,0.0,0.0,0.0,0.0,0.0,0.0,0.0,0.0,0.0,0.0,0.0,0.0,0.0,0.0,0.0,0.0,0.0,0.0,0.0,0.0,0.0,0.0,0.0,0.0,0.0,0.0,0.0,0.0,0.0,0.0,0.0,0.0,0.0,0.0,0.0,0.0,0.0,0.0,0.0,0.0,0.0,0.0,0.0,0.0,0.0,0.0,0.0,0.0,0.0,0.0,0.0,1.6471,1.6825,1.6981,1.6971,1.6591,1.5796,0.0,0.0,0.0,0.0,0.0,0.0,0.0,0.0,0.0,0.0,0.0,0.0,0.0,0.0,0.0,0.0,0.0,0.0,0.0,0.0,0.0,0.0,0.0,0.0,0.0,0.0,0.0,0.0,0.0,0.0,0.0,0.0,0.0,0.0,0.0,0.0,0.0,0.0,0.0,0.0,0.0,0.0,0.0,0.0,0.0,0.0,0.0,0.0,0.0,0.0,0.0,0.0,0.0,0.0,0.0,0.0,0.0,0.0,0.0,0.0,0.0,0.0,0.0,0.0,0.0,0.0,0.0,0.0,0.0,0.0,0.0,0.0,0.0,0.0,0.0,0.0,0.0,0.0,0.0,0.0,0.0,0.0,0.0,0.0,0.0,0.0,0.0,0.0,0.0,0.0,0.0,0.0,0.0,0.0,0.0,0.0,0.0,0.0,0.0,0.0,0.0,0.0,0.0,0.0,0.0,0.0,0.0,0.0,0.0,1.7306,1.713,1.7002,1.6981,1.6612,1.6246,0.0,0.0,0.0,0.0,0.0,0.0,0.0,0.0,0.0,0.0,0.0,0.0,0.0,0.0,0.0,0.0,0.0,0.0,0.0,0.0,0.0,0.0,0.0,0.0,0.0,0.0,0.0,0.0,0.0,0.0,0.0,0.0,0.0,0.0,0.0,0.0,0.0,0.0,0.0,0.0,0.0,0.0,0.0,0.0,0.0,0.0,0.0,0.0,0.0,0.0,0.0,0.0,0.0,0.0,0.0,0.0,0.0,0.0,0.0,0.0,0.0,0.0,0.0,0.0,0.0,0.0,0.0,0.0,0.0,0.0,0.0,0.0,0.0,0.0,0.0,0.0,0.0,0.0,0.0,0.0,0.0,0.0,0.0,0.0,0.0,0.0,0.0,0.0,0.0,0.0,0.0,0.0,0.0,0.0,0.0,0.0,0.0,0.0,0.0,0.0,0.0,0.0,0.0,0.0,0.0,0.0,0.0,0.0,1.7094,1.7394,1.7538,1.7507,1.7291,1.6872,1.657,0.0,0.0,0.0,0.0,0.0,0.0,0.0,0.0,0.0,0.0,0.0,0.0,0.0,0.0,0.0,0.0,0.0,0.0,0.0,0.0,0.0,0.0,0.0,0.0,0.0,0.0,0.0,0.0,0.0,0.0,0.0,0.0,0.0,0.0,0.0,0.0,0.0,0.0,0.0,0.0,0.0,0.0,0.0,0.0,0.0,0.0,0.0,0.0,0.0,0.0,0.0,0.0,0.0,0.0,0.0,0.0,0.0,0.0,0.0,0.0,0.0,0.0,0.0,0.0,0.0,0.0,0.0,0.0,0.0,0.0,0.0,0.0,0.0,0.0,0.0,0.0,0.0,0.0,0.0,0.0,0.0,0.0,0.0,0.0,0.0,0.0,0.0,0.0,0.0,0.0,0.0,0.0,0.0,0.0,0.0,0.0,0.0,0.0,0.0,0.0,0.0,0.0,0.0,0.0,0.0,0.0,0.0,0.0,1.7435,1.7084,1.7879,1.8143,1.7781,1.7285,1.682,0.0,0.0,0.0,0.0,0.0,0.0,0.0,0.0,0.0,0.0,0.0,0.0,0.0,0.0,0.0,0.0,0.0,0.0,0.0,0.0,0.0,0.0,0.0,0.0,0.0,0.0,0.0,0.0,0.0,0.0,0.0,0.0,0.0,0.0,0.0,0.0,0.0,0.0,0.0,0.0,0.0,0.0,0.0,0.0,0.0,0.0,0.0,0.0,0.0,0.0,0.0,0.0,0.0,0.0,0.0,0.0,0.0,0.0,0.0,0.0,0.0,0.0,0.0,0.0,0.0,0.0,0.0,0.0,0.0,0.0,0.0,0.0,0.0,0.0,0.0,0.0,0.0,0.0,0.0,0.0,0.0,0.0,0.0,0.0,0.0,0.0,0.0,0.0,0.0,0.0,0.0,0.0,0.0,0.0,0.0,0.0,0.0,0.0,0.0,0.0,0.0,0.0,0.0,0.0,0.0,0.0,0.0,0.0,1.727,1.7554,1.774,1.7983,1.8253,1.7445,1.6965,0.0,0.0,0.0,0.0,0.0,0.0,0.0,0.0,0.0,0.0,0.0,0.0,0.0,0.0,0.0,0.0,0.0,0.0,0.0,0.0,0.0,0.0,0.0,0.0,0.0,0.0,0.0,0.0,0.0,0.0,0.0,0.0,0.0,0.0,0.0,0.0,0.0,0.0,0.0,0.0,0.0,0.0,0.0,0.0,0.0,0.0,0.0,0.0,1.1363,0.0,0.0,0.0,0.0,0.0,0.0,0.0,0.0,0.0,0.0,0.0,0.0,0.0,0.0,0.0,0.0,0.0,0.0,0.0,0.0,0.0,0.0,0.0,0.0,0.0,0.0,0.0,0.0,0.0,0.0,0.0,0.0,0.0,0.0,0.0,0.0,0.0,0.0,0.0,0.0,0.0,0.0,0.0,0.0,0.0,0.0,0.0,0.0,0.0,0.0,0.0,0.0,0.0,0.0,0.0,0.0,0.0,0.0,0.0,1.7673,1.834,1.8361,1.8491,1.8688,1.7817,1.7219,0.0,0.0,0.0,0.0,0.0,0.0,0.0,0.0,0.0,0.0,0.0,0.0,0.0,0.0,0.0,0.0,0.0,0.0,0.0,0.0,0.0,0.0,0.0,0.0,0.0,0.0,0.0,0.0,0.0,0.0,0.0,0.0,0.0,0.0,0.0,0.0,0.0,0.0,0.0,0.0,0.0,0.0,0.0,0.0,0.0,0.0,0.0,0.0,0.0,0.0,0.0,0.0,0.0,0.0,0.0,0.0,0.0,0.0,0.0,0.0,0.0,0.0,0.0,0.0,0.0,0.0,0.0,0.0,0.0,0.0,0.0,0.0,0.0,0.0,0.0,0.0,0.0,0.0,0.0,0.0,0.0,0.0,0.0,0.0,0.0,0.0,0.0,0.0,0.0,0.0,0.0,0.0,0.0,0.0,0.0,0.0,0.0,0.0,0.0,0.0,0.0,0.0,0.0,0.0,0.0,0.0,0.0,1.7533,1.821,1.9067,1.9216,1.9257,1.9202,1.8299,1.7585,1.7115,0.0,0.0,0.0,0.0,0.0,0.0,0.0,0.0,0.0,0.0,0.0,0.0,0.0,0.0,0.0,0.0,0.0,0.0,0.0,0.0,0.0,0.0,0.0,0.0,0.0,0.0,0.0,0.0,0.0,0.0,0.0,0.0,0.0,0.0,0.0,0.0,0.0,0.0,1.2494,1.2497,0.0,0.0,0.0,0.0,0.0,0.0,0.0,0.0,1.205,0.0,0.0,0.0,0.0,0.0,0.0,0.0,0.0,0.0,0.0,0.0,0.0,0.0,0.0,0.0,0.0,0.0,0.0,0.0,0.0,0.0,0.0,0.0,0.0,0.0,0.0,0.0,0.0,0.0,0.0,0.0,0.0,0.0,0.0,0.0,0.0,0.0,0.0,0.0,0.0,0.0,0.0,0.0,0.0,0.0,0.0,0.0,0.0,0.0,0.0,0.0,0.0,0.0,0.0,0.0,0.0,1.6991,1.7854,1.8543,1.9108,1.981,2.0027,1.9679,1.877,1.8071,1.7585,0.0,0.0,0.0,0.0,0.0,0.0,0.0,0.0,0.0,0.0,0.0,0.0,0.0,0.0,0.0,0.0,0.0,0.0,0.0,0.0,0.0,0.0,0.0,0.0,0.0,0.0,0.0,0.0,0.0,0.0,0.0,0.0,0.0,0.0,0.0,0.0,0.0,0.0,0.0,1.3875,1.3482,0.0,0.0,0.0,0.0,0.0,0.0,0.0,0.0,1.2112,0.0,0.0,0.0,0.0,0.0,0.0,0.0,0.0,0.0,0.0,0.0,0.0,0.0,0.0,0.0,0.0,0.0,0.0,0.0,0.0,0.0,0.0,0.0,0.0,0.0,0.0,0.0,0.0,0.0,0.0,0.0,0.0,0.0,0.0,0.0,0.0,0.0,0.0,0.0,0.0,0.0,0.0,0.0,0.0,0.0,0.0,0.0,0.0,0.0,0.0,0.0,0.0,0.0,0.0,0.0,1.7719,1.8408,1.9206,2.0089,2.031,2.0423,2.0431,1.906,1.8208,0.0,0.0,0.0,0.0,0.0,0.0,0.0,0.0,0.0,0.0,0.0,0.0,0.0,0.0,0.0,0.0,0.0,0.0,0.0,0.0,0.0,0.0,0.0,0.0,0.0,0.0,0.0,0.0,0.0,0.0,0.0,0.0,0.0,0.0,0.0,0.0,0.0,0.0,0.0,0.0,1.41,1.359,1.2236,0.0,0.0,0.0,0.0,0.0,0.0,1.1996,1.1872,0.0,0.0,0.0,0.0,0.0,0.0,0.0,0.0,0.0,0.0,0.0,0.0,0.0,0.0,0.0,0.0,0.0,0.0,0.0,0.0,0.0,0.0,0.0,0.0,0.0,0.0,0.0,0.0,0.0,0.0,0.0,0.0,0.0,0.0,0.0,0.0,0.0,0.0,0.0,0.0,0.0,0.0,0.0,0.0,0.0,0.0,0.0,0.0,0.0,0.0,0.0,0.0,0.0,0.0,0.0,1.8313,1.8897,1.9844,2.117,2.0802,2.0781,2.1182,1.9411,1.8377,0.0,0.0,0.0,0.0,0.0,0.0,0.0,0.0,0.0,0.0,0.0,0.0,0.0,0.0,0.0,0.0,0.0,0.0,0.0,0.0,0.0,0.0,0.0,0.0,0.0,0.0,0.0,0.0,0.0,0.0,0.0,0.0,0.0,0.0,0.0,0.0,0.0,0.0,0.0,0.0,0.0,1.3556,1.2352,1.2393,0.0,0.0,0.0,0.0,1.2195,1.193,0.0,0.0,0.0,0.0,0.0,0.0,0.0,0.0,0.0,0.0,0.0,0.0,0.0,0.0,0.0,0.0,0.0,0.0,0.0,0.0,0.0,0.0,0.0,0.0,0.0,0.0,0.0,0.0,0.0,0.0,0.0,0.0,0.0,0.0,0.0,0.0,0.0,0.0,0.0,0.0,0.0,0.0,0.0,0.0,0.0,0.0,0.0,0.0,0.0,0.0,0.0,0.0,0.0,0.0,0.0,0.0,1.814,1.8998,2.0175,2.1616,2.1323,2.1313,2.1687,2.0016,1.8782,0.0,0.0,0.0,0.0,0.0,0.0,0.0,0.0,0.0,0.0,0.0,0.0,0.0,0.0,0.0,0.0,0.0,0.0,0.0,0.0,0.0,0.0,0.0,0.0,0.0,0.0,0.0,0.0,0.0,0.0,0.0,0.0,0.0,0.0,0.0,0.0,0.0,0.0,0.0,0.0,0.0,1.3887,1.3525,1.2812,1.2458,0.0,0.0,0.0,1.2328,1.2259,0.0,0.0,0.0,0.0,0.0,0.0,0.0,0.0,0.0,0.0,0.0,0.0,0.0,0.0,0.0,0.0,0.0,0.0,0.0,0.0,0.0,0.0,0.0,0.0,0.0,0.0,0.0,0.0,0.0,0.0,0.0,0.0,0.0,0.0,0.0,0.0,0.0,0.0,0.0,0.0,0.0,0.0,0.0,0.0,0.0,0.0,0.0,0.0,0.0,0.0,0.0,0.0,0.0,0.0,0.0,1.7841,1.83,1.9453,2.0572,2.1592,2.1344,2.1397,2.1779,2.0039,1.8894,0.0,0.0,0.0,0.0,0.0,0.0,0.0,0.0,0.0,0.0,0.0,0.0,0.0,0.0,0.0,0.0,0.0,0.0,0.0,0.0,0.0,0.0,0.0,0.0,0.0,0.0,0.0,0.0,0.0,0.0,0.0,0.0,0.0,0.0,0.0,0.0,0.0,0.0,0.0,0.0,0.0,0.0,1.3225,1.3004,0.0,0.0,0.0,1.2968,1.2639,0.0,0.0,0.0,0.0,0.0,0.0,0.0,0.0,0.0,0.0,0.0,0.0,0.0,0.0,0.0,0.0,0.0,0.0,0.0,0.0,0.0,0.0,0.0,0.0,0.0,0.0,0.0,0.0,0.0,0.0,0.0,0.0,0.0,0.0,0.0,0.0,0.0,0.0,0.0,0.0,0.0,0.0,0.0,0.0,0.0,0.0,0.0,0.0,0.0,0.0,0.0,0.0,0.0,0.0,0.0,0.0,0.0,1.8459,2.0006,2.1115,2.1737,2.169,2.178,2.1929,2.041,0.0,0.0,0.0,0.0,0.0,0.0,0.0,0.0,0.0,0.0,0.0,0.0,0.0,0.0,0.0,0.0,0.0,0.0,0.0,0.0,0.0,0.0,0.0,0.0,0.0,0.0,0.0,1.2576,0.0,0.0,0.0,0.0,0.0,0.0,0.0,0.0,0.0,0.0,0.0,0.0,0.0,0.0,1.3534,1.3324,1.3322,1.3316,0.0,0.0,1.3546,1.3048,1.291,1.2706,0.0,0.0,0.0,0.0,0.0,0.0,0.0,0.0,0.0,0.0,0.0,0.0,0.0,0.0,0.0,0.0,0.0,0.0,0.0,0.0,0.0,0.0,0.0,0.0,0.0,0.0,0.0,0.0,0.0,0.0,0.0,0.0,0.0,0.0,0.0,0.0,0.0,0.0,0.0,0.0,0.0,0.0,0.0,0.0,0.0,0.0,0.0,0.0,0.0,0.0,0.0,0.0,0.0,0.0,0.0,1.8559,2.0614,2.1949,2.2407,2.2785,2.2793,2.2464,2.1543,2.036,0.0,0.0,0.0,0.0,0.0,0.0,0.0,0.0,0.0,0.0,0.0,0.0,0.0,0.0,0.0,0.0,0.0,0.0,0.0,0.0,0.0,0.0,0.0,0.0,0.0,0.0,0.0,0.0,0.0,0.0,0.0,0.0,0.0,0.0,0.0,0.0,0.0,0.0,0.0,0.0,0.0,1.4128,1.4519,1.3957,1.3693,0.0,0.0,1.4494,1.359,1.37,1.3583,1.2602,0.0,0.0,0.0,0.0,0.0,0.0,0.0,0.0,0.0,0.0,0.0,0.0,0.0,0.0,0.0,0.0,0.0,0.0,0.0,0.0,0.0,0.0,0.0,0.0,0.0,0.0,0.0,0.0,0.0,0.0,0.0,0.0,0.0,0.0,0.0,0.0,0.0,0.0,0.0,0.0,0.0,0.0,0.0,0.0,0.0,0.0,0.0,0.0,0.0,0.0,0.0,0.0,0.0,1.866,1.9072,2.0626,2.1845,2.263,2.2454,2.2539,2.291,2.1248,1.9806,0.0,0.0,0.0,0.0,0.0,0.0,0.0,0.0,0.0,0.0,0.0,0.0,0.0,0.0,0.0,0.0,0.0,0.0,0.0,0.0,0.0,0.0,0.0,0.0,0.0,0.0,0.0,0.0,1.4177,1.4469,1.4459,0.0,0.0,0.0,0.0,0.0,0.0,0.0,0.0,0.0,0.0,1.4019,1.461,1.4502,0.0,0.0,1.482,1.4776,1.4423,1.4326,1.4037,1.325,1.3119,0.0,0.0,0.0,0.0,0.0,0.0,0.0,0.0,0.0,0.0,0.0,0.0,0.0,0.0,0.0,0.0,0.0,0.0,0.0,0.0,0.0,0.0,0.0,0.0,0.0,0.0,0.0,0.0,0.0,0.0,0.0,0.0,0.0,0.0,0.0,0.0,0.0,0.0,0.0,0.0,0.0,0.0,0.0,0.0,0.0,0.0,0.0,0.0,0.0,0.0,0.0,0.0,1.9162,1.9517,2.1065,2.2215,2.2899,2.2869,2.2961,2.3125,2.1745,2.0448,0.0,0.0,0.0,0.0,0.0,0.0,0.0,0.0,0.0,0.0,0.0,0.0,0.0,0.0,0.0,0.0,0.0,0.0,0.0,0.0,0.0,0.0,0.0,0.0,0.0,0.0,0.0,0.0,1.4719,1.4864,1.4841,0.0,0.0,0.0,0.0,0.0,0.0,0.0,0.0,0.0,0.0,1.4434,1.485,1.517,1.5365,1.5344,1.5432,1.5424,1.5221,1.505,1.4684,1.4033,0.0,0.0,0.0,0.0,0.0,0.0,0.0,0.0,0.0,0.0,0.0,0.0,0.0,0.0,0.0,0.0,0.0,0.0,0.0,0.0,0.0,0.0,0.0,0.0,0.0,0.0,0.0,0.0,0.0,0.0,0.0,0.0,0.0,0.0,0.0,0.0,0.0,0.0,0.0,0.0,0.0,0.0,0.0,0.0,0.0,0.0,0.0,0.0,0.0,0.0,0.0,0.0,0.0,0.0,1.9861,2.2177,2.3345,2.3237,2.4378,2.4365,2.3198,2.3481,2.2855,2.1091,0.0,0.0,0.0,0.0,0.0,0.0,0.0,0.0,0.0,0.0,0.0,0.0,0.0,0.0,0.0,0.0,0.0,0.0,0.0,0.0,0.0,0.0,0.0,0.0,0.0,0.0,1.4958,1.4693,1.4523,0.0,0.0,0.0,0.0,0.0,0.0,0.0,0.0,0.0,0.0,1.483,1.5572,1.5429,1.5943,1.6338,1.6367,1.6631,1.6616,1.5987,1.5863,1.5644,0.0,0.0,0.0,0.0,0.0,0.0,0.0,0.0,0.0,0.0,0.0,0.0,0.0,0.0,0.0,0.0,0.0,0.0,0.0,0.0,0.0,0.0,0.0,0.0,0.0,0.0,0.0,1.5074,1.505,0.0,0.0,0.0,0.0,0.0,0.0,0.0,0.0,0.0,0.0,0.0,1.7332,1.7289,0.0,0.0,0.0,0.0,0.0,0.0,0.0,0.0,0.0,0.0,0.0,0.0,2.03,2.1148,2.2569,2.3526,2.3984,2.4414,2.457,2.4414,2.337,2.1693,1.9348,0.0,0.0,0.0,0.0,0.0,0.0,0.0,0.0,0.0,0.0,0.0,0.0,0.0,0.0,0.0,0.0,0.0,0.0,0.0,0.0,0.0,0.0,0.0,0.0,0.0,1.5178,0.0,0.0,0.0,0.0,0.0,0.0,0.0,0.0,0.0,0.0,0.0,1.4559,1.4808,1.5227,1.5633,1.6015,1.644,1.6734,0.0,0.0,0.0,0.0,0.0,0.0,0.0,0.0,0.0,0.0,0.0,0.0,0.0,0.0,1.475,1.3708,1.3484,1.3558,1.3796,0.0,0.0,0.0,0.0,0.0,0.0,0.0,0.0,0.0,0.0,0.0,0.0,0.0,0.0,0.0,0.0,1.5699,0.0,0.0,0.0,0.0,0.0,0.0,0.0,0.0,1.8235,1.8216,1.7632,1.7603,1.8041,0.0,1.8776,1.8602,0.0,0.0,0.0,0.0,0.0,0.0,0.0,0.0,2.1111,2.2139,2.3103,2.3968,2.4609,2.4648,2.4785,2.5063,2.3612,2.1863,1.9829,1.8559,1.7452,0.0,0.0,0.0,0.0,0.0,0.0,0.0,0.0,0.0,0.0,0.0,0.0,0.0,0.0,0.0,0.0,0.0,0.0,0.0,0.0,0.0,0.0,0.0,1.5216,0.0,0.0,0.0,0.0,0.0,0.0,0.0,0.0,0.0,1.4556,1.4839,1.5114,1.553,1.606,1.6491,1.6674,0.0,0.0,0.0,0.0,0.0,0.0,0.0,1.6624,1.6294,1.6316,1.644,1.6535,1.666,1.6718,1.6743,0.0,0.0,1.4904,1.4655,1.4677,1.4779,1.4734,1.4674,1.4674,1.5172,1.5605,0.0,0.0,0.0,0.0,0.0,0.0,0.0,0.0,1.6483,1.6404,0.0,1.5696,0.0,0.0,0.0,0.0,0.0,0.0,0.0,0.0,1.8574,1.7948,1.6706,1.6654,1.7274,1.8497,1.8292,1.9255,2.1262,2.0332,0.0,0.0,0.0,0.0,0.0,0.0,2.2361,2.2856,2.3869,2.4639,2.5063,2.5102,2.5102,2.5082,2.43,2.337,2.2431,2.0702,1.9249,1.8031,1.7054,0.0,0.0,0.0,0.0,0.0,0.0,0.0,0.0,0.0,0.0,0.0,0.0,0.0,0.0,0.0,0.0,0.0,0.0,0.0,0.0,1.4933,0.0,0.0,0.0,0.0,0.0,0.0,0.0,0.0,0.0,0.0,1.4663,1.5107,1.5563,1.5899,0.0,0.0,0.0,0.0,1.9027,1.8372,1.8011,1.7797,1.7797,1.7549,1.725,1.6996,0.0,0.0,1.776,1.7563,1.7381,1.7406,1.718,1.6736,1.6089,1.5929,1.5806,1.5572,1.5332,1.5113,1.5127,1.5747,1.616,2.2433,0.0,0.0,0.0,0.0,2.1312,2.1066,2.0498,1.9482,1.9041,1.9,1.805,0.0,0.0,0.0,0.0,0.0,0.0,1.9806,2.0166,2.0465,2.0504,2.0362,1.9696,1.9615,1.9991,1.9889,2.0204,2.0832,2.1067,2.1136,2.1115,0.0,0.0,0.0,0.0,2.2975,2.3737,2.449,2.4965,2.5082,2.5381,2.5391,2.5125,2.4857,2.3677,2.144,2.0863,1.9647,1.7733,1.6887,0.0,0.0,0.0,0.0,0.0,0.0,0.0,0.0,0.0,0.0,0.0,0.0,0.0,0.0,0.0,0.0,0.0,0.0,0.0,1.5065,1.4607,1.44,0.0,0.0,0.0,0.0,0.0,0.0,0.0,0.0,0.0,1.6396,1.6265,1.6301,0.0,0.0,1.7952,1.8021,1.8343,1.8443,1.807,0.0,0.0,0.0,1.794,1.8003,1.7919,1.8144,1.8332,1.8256,1.8341,1.8391,1.8161,1.8037,1.7837,1.7478,1.7003,1.677,1.6852,1.6978,1.7001,1.6853,1.7281,1.7637,2.315,2.2217,2.2982,2.294,2.2394,2.2511,2.1998,2.1032,2.0132,1.9674,1.9514,1.8806,1.8833,1.9476,1.9476,0.0,0.0,0.0,2.0321,2.1096,2.0972,2.1006,2.1089,2.0552,2.0426,2.0613,2.0521,2.0789,2.1486,2.2103,2.2498,2.2618,0.0,0.0,2.357,2.3831,2.4202,2.4723,2.5316,2.5532,2.5342,2.5571,2.5581,2.5342,2.519,2.4188,2.2238,2.1365,2.0142,1.8521,1.7414,1.6498,0.0,0.0,0.0,0.0,0.0,0.0,0.0,0.0,0.0,0.0,0.0,1.2851,0.0,0.0,0.0,0.0,1.4722,1.4858,1.5071,1.4645,0.0,0.0,0.0,0.0,0.0,0.0,0.0,1.5629,1.6155,1.671,1.7397,1.7413,1.7451,1.7684,1.8018,1.8249,1.8339,0.0,1.8425,1.8151,1.8136,1.812,1.796,1.8077,1.8218,1.8318,1.8412,1.8543,1.8618,1.8674,1.8655,1.8459,1.8329,1.8164,1.79,1.7504,1.7339,1.7591,1.7603,1.7542,1.7486,1.7822,1.8027,2.2793,2.295,2.4001,2.3606,2.2331,2.2317,2.1352,1.9766,1.9452,1.9163,1.8833,1.8552,1.9009,1.9922,1.9914,0.0,0.0,2.0099,2.0114,2.1275,2.0554,2.0167,1.9996,1.9886,2.0133,2.0664,2.0335,2.1017,2.2515,2.3041,2.3433,2.3739,2.3408,2.3962,2.5307,2.5541,2.5679,2.5708,2.6098,2.6083,2.5596,2.5562,2.5538,2.5421,2.5083,2.4559,2.3913,2.1985,2.0575,1.991,1.8407,1.7078,1.6066,0.0,0.0,0.0,0.0,0.0,0.0,0.0,0.0,0.0,0.0,0.0,0.0,0.0,0.0,0.0,1.5549,0.0,1.5039,1.5024,0.0,0.0,0.0,1.5644,1.5972,1.6052,1.6287,1.6887,0.0,0.0,0.0,0.0,1.8686,1.8391,1.8676,1.8769,1.8443,1.8622,1.8718,1.837,1.8186,1.8033,1.8004,1.8039,1.8171,1.8375,1.8216,1.8274,1.8645,1.8568,1.84,1.8372,1.8175,1.7905,1.7628,1.7588,1.7659,1.7855,1.7551,1.7289,1.7456,1.7611,1.7682,2.3764,2.4192,2.3981,2.3629,2.3191,2.3355,2.3169,2.2661,2.1609,2.1125,2.0994,2.0142,1.9876,2.0135,2.0116,2.0286,2.0582,2.0441,2.103,2.2103,2.1078,2.105,2.1768,2.0666,2.0192,2.032,2.0245,2.0417,2.0836,2.1171,2.1728,2.2412,2.2619,2.3512,2.5103,2.5223,2.54,2.5708,2.5815,2.5404,2.4501,2.4476,2.4106,2.3269,2.3155,2.2931,2.2507,2.1495,2.0595,1.9917,1.8766,1.766,1.669,1.598,0.0,0.0,0.0,0.0,0.0,0.0,0.0,0.0,0.0,1.3271,1.3492,0.0,1.3992,0.0,1.596,1.6357,1.5731,1.614,0.0,0.0,1.6536,1.6668,1.6937,1.7193,1.7397,1.7567,1.7874,1.8196,1.8511,1.8719,1.8811,1.8773,1.8854,1.8781,1.8469,1.8448,1.8434,1.8169,1.8239,1.8302,1.8062,1.8212,1.8374,1.8482,1.8421,1.834,1.8218,1.8151,1.805,1.7868,1.7748,1.7668,1.7628,1.7615,1.7715,1.7916,1.7856,1.7748,1.7607,1.7749,1.7842,2.275,2.3066,2.2671,2.2513,2.247,2.3213,2.3266,2.2805,2.208,2.1674,2.1501,2.0913,2.0641,2.0641,2.0641,2.0649,2.0663,2.0985,2.1515,2.2104,2.1607,2.1731,2.231,2.1495,2.1101,2.1101,2.0955,2.0955,2.1129,2.1663,2.2166,2.2605,2.3317,2.4044,2.474,2.4617,2.4768,2.529,2.5115,2.4716,2.4137,2.4113,2.3816,2.3244,2.2743,2.2414,2.2234,2.1219,2.0342,1.9647,1.8776,1.8057,1.7539,1.6594,1.5862,0.0,0.0,0.0,0.0,0.0,0.0,0.0,0.0,0.0,0.0,0.0,1.539,0.0,1.6899,0.0,1.6564,1.6989,1.7282,1.7305,1.7429,1.7625,1.7916,1.8013,1.8145,1.8438,1.8503,1.8668,1.8983,1.9027,1.8912,1.8703,1.8672,1.8567,1.8272,1.8108,1.7977,1.7865,1.7968,1.8043,1.7856,1.7969,1.8083,1.811,1.811,1.807,1.8022,1.8016,1.7996,1.7989,1.801,1.8016,1.7989,1.7983,1.8056,1.8149,1.8216,1.8183,1.8029,1.8116,1.8156,2.1092,2.1172,2.1128,2.1137,2.1287,2.2537,2.2528,2.1639,2.1639,2.149,2.1276,2.1269,2.1291,2.1335,2.1335,2.1335,2.1357,2.1628,2.1759,2.1774,2.2052,2.2184,2.2184,2.2184,2.2184,2.2169,2.1891,2.1906,2.2222,2.2978,2.3244,2.3168,2.4151,2.4509,2.4209,2.3705,2.3843,2.4608,2.4315,2.4046,2.3773,2.3843,2.3757,2.3459,2.2584,2.2165,2.2257,2.0986,2.0027,1.9513,1.8831,1.8445,1.8467,1.7658,1.7042,0.0,1.5884,0.0,0.0,0.0,0.0,0.0,0.0,0.0,0.0,1.6619,1.7473,1.8055,1.8044,1.7843,1.7521,1.7772,1.7916,1.7947,1.8172,1.8489,1.8796,1.8599,1.8642,1.9239,1.903,1.8939,1.9195,1.922,1.8952,1.8455,1.8344,1.8239,1.799,1.7773,1.7635,1.7615,1.7622,1.7742,1.7709,1.7749,1.7762,1.7762,1.7816,1.7789,1.8049,1.8089,1.8156,1.8404,1.845,1.8464,1.849,1.8477,1.8477,1.847,1.8504,1.8524,1.8464,1.845,1.8497,2.1036,2.1538,2.1285,2.1355,2.1612,2.2163,2.1985,2.1296,2.1296,2.1415,2.1598,2.1606,2.1759,2.2023,2.2001,2.1993,2.2008,2.2096,2.2096,2.2126,2.2184,2.2184,2.2184,2.2184,2.2184,2.2176,2.2148,2.2148,2.2184,2.2379,2.2305,2.2015,2.2234,2.2602,2.3018,0.0,0.0,0.0,2.4249,2.3662,2.2018,2.2503,2.1962,2.0277,2.0009,0.0,2.1107,2.012,1.9837,2.0518,1.9656,0.0,0.0,0.0,0.0,0.0,0.0,0.0,0.0,0.0,0.0,0.0,1.7889,1.7699,1.7039,1.787,1.8513,1.8639,1.885,1.8869,1.854,1.8562,1.8606,1.8613,1.8664,1.8851,1.9159,1.9125,1.918,1.925,1.9079,1.8909,1.8955,1.875,1.8463,1.8175,1.8069,1.7957,1.7734,1.7661,1.7622,1.7628,1.7809,1.7922,1.7929,1.8143,1.8257,1.8317,1.8323,1.8337,1.8384,1.8404,1.841,1.8517,1.8497,1.851,1.851,1.8497,1.8531,1.8497,1.8677,1.8743,1.8544,1.8497,1.8497,2.1617,0.0,2.1745,2.1781,0.0,2.214,2.1993,2.1693,2.1693,2.1781,2.1935,2.1942,2.206,2.2184,2.2184,2.2184,2.2221,2.233,2.2403,2.241,2.2571,2.2645,2.2637,2.2637,2.2637,2.2637,2.2637,2.2637,2.2645,2.2645,2.2557,2.2396,2.2396,2.2571,2.2929,2.2246,2.2298,2.3135,2.3533,2.3108,2.1926,2.2195,2.1814,2.0582,0.0,0.0,0.0,0.0,0.0,0.0,0.0,0.0,0.0,0.0,0.0,1.929,1.8997,1.8855,1.9034,1.9049,1.9096,1.925,1.9557,1.9403,1.8591,1.9133,1.948,1.9506,1.9652,1.9689,1.9528,1.9506,1.9453,1.9321,1.94,1.9466,1.9338,1.9454,1.9488,1.934,1.9186,1.9106,1.9106,1.8851,1.8631,1.8474,1.8331,1.819,1.8064,1.7903,1.7829,1.7996,1.815,1.8229,1.8249,1.8349,1.8497,1.849,1.8497,1.8551,1.8684,1.8698,1.8744,1.8906,1.8953,1.8953,1.8953,1.8953,1.8925,1.8966,1.9067,1.9105,1.898,1.8953,1.8925,2.2184,2.2191,2.2242,2.2257,2.2294,2.2315,2.2345,2.2337,0.0,0.0,0.0,2.2257,2.2324,2.2345,2.2375,2.2352,2.2367,2.2593,2.2673,2.2687,2.2981,2.3106,2.3106,2.3106,2.3106,2.3106,2.3106,2.3106,2.3106,2.3106,2.3106,2.3106,2.3106,2.3106,2.3091,2.2811,2.2729,2.2842,2.2881,2.2661,2.2239,2.2336,2.2171,2.1717,2.0778,2.0721,2.1542,2.0689,2.021,2.021,2.021,2.015,1.9972,1.9964,1.9862,1.9638,1.9616,1.9759,2.0023,2.0045,2.0128,2.0364,2.0627,2.0559,1.9994,2.0223,2.0378,2.0378,2.0327,2.0298,2.0298,2.0232,2.0101,1.9841,1.9999,1.9895,1.9422,1.9546,1.9579,1.9346,1.9263,1.9229,1.9201,1.8979,1.8815,1.8796,1.8605,1.8523,1.8506,1.8276,1.8169,1.839,1.8497,1.8564,1.8577,1.8644,1.8637,1.8698,1.8677,1.8738,1.8896,1.897,1.9105,1.9308,1.9395,1.9374,1.9381,1.9354,1.9395,1.9395,1.9395,1.9395,1.9395,1.9395,1.9368,2.2191,2.2236,2.2454,2.2534,2.2579,2.2864,2.295,2.2937,2.2441,2.2323,2.2564,2.2534,2.2687,2.2974,2.2981,2.2974,2.2981,2.2987,2.3047,0.0,2.3084,2.3106,2.3106,2.3106,2.3106,2.3106,2.3113,2.3106,2.3113,2.312,2.3106,2.3113,2.3106,2.3113,2.3106,2.3054,2.3029,2.3074,2.3162,2.2765,2.1809,2.2397,2.2248,2.1341,2.0892,2.0682,2.0842,2.0454,2.021,2.021,2.021,2.0312,2.0546,2.0596,2.067,2.0911,2.0933,2.0962,2.0998,2.1013,2.1028,2.1072,2.1115,2.0948,2.0612,2.0881,2.1079,2.1057,2.078,2.0627,2.0612,2.0386,2.0117,1.9863,1.9856,1.9697,1.9368,1.9368,1.9416,1.9354,1.9099,1.9016,1.9043,1.8795,1.8643,1.8615,1.8689,1.8613,1.8772,1.8617,1.8464,1.8517,1.8704,1.881,1.8885,1.9085,1.9201,1.9267,1.9234,1.9221,1.9281,1.9272,1.9321,1.9388,1.9336,1.9307,1.9336,1.9395,1.9191,1.9098,1.9098,1.9162,1.9124,1.9195,1.9341,2.2689,2.2703,2.2828,2.2886,2.287,2.3047,2.3106,2.3084,2.2813,2.2754,2.2879,2.2855,2.2967,2.3098,2.3106,2.3106,2.3106,2.3106,2.3201,2.3362,2.3376,2.3464,2.3625,2.364,2.364,2.364,2.364,2.364,2.364,2.3632,2.3537,2.3299,2.2981,2.2807,2.2825,2.2636,2.255,2.2567,2.2789,2.2661,2.2198,2.2335,2.212,2.1495,2.1489,2.1423,2.1271,2.1278,2.1262,2.1291,2.1298,2.1364,2.1496,2.1511,2.1584,2.173,2.1745,2.1737,2.1737,2.1737,2.1737,2.1737,2.1583,2.1496,2.1503,2.132,2.1211,2.1211,2.1064,2.0963,2.0955,2.0676,2.0357,2.0118,2.0062,1.9955,1.9674,1.973,1.985,1.9792,1.9687,1.96,1.96,1.9245,1.9118,1.9332,1.9312,1.9212,1.9194,1.908,1.8993,1.9007,1.9085,1.9145,1.9165,1.9294,1.9388,1.9395,1.9395,1.9395,1.9395,1.9395,1.9395,1.9336,1.8887,1.8438,1.8357,1.776,1.7437,1.732,1.7349,1.7356,1.7476,1.8079,1.8847,2.3106,2.3106,2.3106,2.3106,2.312,2.3193,2.3215,2.323,2.3288,2.3325,2.331,2.3179,2.3149,2.3215,2.3223,2.3259,2.3318,2.3325,2.3464,2.3691,2.3698,2.3837,2.4097,2.4118,2.4118,2.4118,2.4118,2.4118,2.4118,2.4118,2.3949,2.3627,2.3185,2.2903,2.28,2.2567,2.2377,2.2307,2.2433,2.25,2.2501,2.2248,2.1996,2.1843,2.1939,2.194,2.1715,2.1875,2.1967,2.1967,2.1967,2.1967,2.1967,2.1997,2.1967,2.1967,2.1967,2.1967,2.1959,2.1967,2.1967,2.1967,2.1742,2.1705,2.1886,2.151,2.1256,2.1278,2.1264,2.1198,2.1177,2.0981,2.0706,2.0422,2.0393,2.0242,1.9995,2.0132,2.0243,2.0194,2.0204,2.0177,2.0124,1.9846,1.97,1.991,1.9933,1.9693,1.9461,1.9395,1.9395,1.9395,1.9395,1.9381,1.9395,1.9395,1.9395,1.9395,1.9395,1.9214,1.9068,1.8917,1.8713,1.8421,1.7733,1.7227,1.7044,1.6484,1.5992,1.6025,1.606,1.5932,1.6144,1.6908,1.782,2.3113,2.3106,2.3128,2.3106,2.3164,2.3427,2.3552,2.3588,2.3891,2.3998,2.3903,2.3376,2.3288,2.3523,2.3545,2.3698,2.3987,2.4023,2.4031,2.4035,2.4067,2.4097,2.4148,2.4133,2.4118,2.414,2.4148,2.4177,2.417,2.4123,2.4093,2.4046,2.3992,2.3735,2.3435,2.3335,2.319,2.2897,2.2413,2.2161,2.2146,2.2125,2.2086,2.2058,2.1809,2.1638,2.16,2.1402,2.1291,2.1284,2.1336,2.1321,2.1329,2.1321,2.1321,2.1329,2.1329,2.1284,2.1321,2.1284,2.1336,2.1284,2.1312,2.1282,2.135,2.1249,2.132,2.1522,2.1373,2.1211,2.12,2.1135,2.095,2.066,2.0628,2.0553,2.0248,2.0187,2.0201,2.0197,2.027,2.021,2.025,2.0177,2.008,1.9903,1.994,1.9806,1.9555,1.9455,1.9441,1.9415,1.9372,1.9366,1.9366,1.9395,1.9336,1.9366,1.9366,1.8829,1.8075,1.7613,1.7402,1.6872,1.6128,1.5986,1.601,1.5941,1.589,1.5443,1.555,1.5896,1.6051,1.6198,1.6429,2.3398,2.3413,2.3603,2.3691,2.3706,2.383,2.3881,2.3903,2.402,2.4118,2.4089,2.3793,2.3757,2.3881,2.3881,2.3994,2.4118,2.4118,2.4221,2.4397,2.4404,2.4507,2.4675,2.469,2.469,2.469,2.469,2.469,2.4657,2.4457,2.435,2.4295,2.397,2.3573,2.3221,2.2987,2.2733,2.2405,2.2355,2.2232,2.2049,2.1887,2.1796,2.1814,2.186,2.1797,2.1634,2.1672,2.1733,2.1733,2.1733,2.1733,2.1733,2.1733,2.1733,2.1733,2.1733,2.1733,2.1726,2.1733,2.1733,2.1733,2.1548,2.1517,2.1709,2.1369,2.1269,2.1544,2.1374,2.1224,2.1171,2.1043,2.0856,2.0711,2.053,2.0422,2.0512,2.0501,2.0548,2.0684,2.0717,2.0711,2.0748,2.0717,2.0517,2.0184,2.018,2.0174,1.9913,1.974,1.9662,1.9511,1.891,1.8684,1.9156,1.9395,1.9068,1.8502,1.8286,1.7806,1.6744,1.6473,1.6272,1.5738,1.5212,1.4878,1.4857,1.4172,1.386,1.3981,1.4015,1.4029,1.4029,1.4763,1.499,2.3727,2.3764,2.4016,2.4118,2.4126,2.4214,2.425,2.4265,2.4338,2.4382,2.4382,2.4349,2.4382,2.4368,2.4294,2.4287,2.4375,2.4382,2.4499,2.4727,2.4741,2.4866,2.5078,2.5093,2.5093,2.5093,2.5078,2.5086,2.5059,2.4808,2.4672,2.4568,2.4173,2.3757,2.3427,2.3152,2.2889,2.2624,2.2721,2.26,2.2302,2.1991,2.1822,2.1719,2.1867,2.1864,2.1611,2.175,2.1828,2.1821,2.1828,2.1828,2.1828,2.1828,2.1828,2.1828,2.1828,2.1821,2.1828,2.1828,2.1828,2.1796,2.1607,2.1544,2.167,2.1393,2.1235,2.1378,2.1266,2.1162,2.1141,2.0958,2.0835,2.0805,2.056,2.0544,2.0762,2.0826,2.0869,2.1069,2.1017,2.1102,2.1096,2.1069,2.0889,2.0481,2.0521,2.0514,2.0096,1.9631,1.9219,1.9118,1.7893,1.7596,1.8561,1.8327,1.7912,1.7455,1.6991,1.6605,1.5443,1.5316,1.4998,1.4322,1.4006,1.3829,1.3793,1.2961,1.2542,1.2503,1.2608,1.2787,1.2994,1.3722,1.3779,2.4064,2.4071,2.4086,2.4155,2.4148,2.4456,2.458,2.4602,2.4888,2.5027,2.5005,2.5012,2.5034,2.499,2.4705,2.4749,2.5005,2.4964,2.4938,2.4967,2.5008,2.5071,2.5093,2.5093,2.5093,2.5025,2.5025,2.5025,2.5025,2.5059,2.5059,2.5011,2.488,2.4738,2.4351,2.4214,2.4167,2.369,2.3468,2.3242,2.294,2.2594,2.2305,2.2023,2.1774,2.1659,2.1606,2.1326,2.1186,2.1147,2.1224,2.1186,2.1172,2.1166,2.1172,2.1166,2.1166,2.1166,2.1197,2.1197,2.1197,2.1172,2.1204,2.1134,2.1229,2.1134,2.1102,2.1134,2.1137,2.1097,2.1097,2.105,2.1052,2.1034,2.1029,2.1004,2.1062,2.1042,2.1082,2.1102,2.1102,2.1102,2.1102,2.1102,2.0888,2.0648,2.0613,2.0411,1.9594,1.8701,1.8157,1.7541,1.6725,1.6107,1.7138,1.7079,1.6255,1.5758,1.5692,1.5463,1.4698,1.3985,1.3497,1.3132,1.3052,1.2925,1.2774,1.271,1.2722,1.2718,1.2706,1.275,1.2722,1.2771,1.2869,2.4551,2.4734,2.4734,2.4741,2.4756,2.4866,2.491,2.4924,2.5034,2.5093,2.5093,2.5093,2.5093,2.5078,2.4976,2.4841,2.4706,2.451,2.4408,2.4401,2.4408,2.4401,2.4408,2.4604,2.4706,2.4706,2.4713,2.4611,2.4401,2.4401,2.4401,2.4408,2.4401,2.4204,2.385,2.3782,2.3645,2.3359,2.3351,2.3276,2.2998,2.3005,2.2916,2.2593,2.2111,2.1863,2.183,2.1724,2.1583,2.1435,2.1428,2.1309,2.1136,2.1102,2.1102,2.1102,2.1102,2.1102,2.1102,2.1102,2.1102,2.1102,2.1102,2.1102,2.1102,2.1102,2.1102,2.1102,2.1102,2.1102,2.1102,2.1102,2.1102,2.1102,2.1102,2.1102,2.1102,2.1102,2.1102,2.1102,2.1102,2.1102,2.1102,2.1071,2.0708,1.9916,2.037,1.9933,1.8551,1.7997,1.7707,1.6734,1.5524,1.4655,1.5013,1.5626,1.5464,1.4796,1.4436,1.4005,1.3359,1.3253,1.2861,1.2927,1.2677,1.269,1.2751,1.2763,1.2803,1.2803,1.2803,1.2803,1.2803,1.2803,1.2803,2.4888,2.5071,2.5093,2.5093,2.5093,2.5093,2.5093,2.5093,2.5093,2.5093,2.5093,2.5093,2.5093,2.5059,2.495,2.4781,2.4503,2.4258,2.4231,2.4333,2.4231,2.4238,2.4367,2.4469,2.4503,2.4469,2.4401,2.4204,2.4027,2.3993,2.3993,2.3993,2.3993,2.385,2.3611,2.3577,2.3475,2.3338,2.3509,2.3434,2.3133,2.327,2.3236,2.2915,2.2505,2.2251,2.2131,2.2071,2.1937,2.1763,2.1723,2.1589,2.1289,2.1256,2.1209,2.1122,2.1102,2.1102,2.1102,2.1102,2.1102,2.1102,2.1102,2.1102,2.1102,2.1102,2.1102,2.1102,2.1102,2.1102,2.1102,2.1102,2.1102,2.1102,2.1102,2.1102,2.1102,2.1102,2.1102,2.1102,2.1102,2.1102,2.1007,2.0659,2.0005,1.9074,1.9591,1.8794,1.7431,1.6861,1.6825,1.5742,1.4342,1.3575,1.3592,1.3944,1.4176,1.364,1.3652,1.3053,1.2796,1.2688,1.2629,1.2666,1.2722,1.2767,1.2803,1.2803,1.2803,1.2803,1.2803,1.2803,1.2803,1.2803,1.2803,2.5078,2.5093,2.5093,2.5093,2.5093,2.5093,2.5093,2.5093,2.5059,2.5052,2.5093,2.5059,2.5025,2.5025,2.4781,2.457,2.4536,2.4435,2.4544,2.4781,2.4503,2.451,2.4747,2.4469,2.4401,2.4367,2.4129,2.3993,2.3891,2.3857,2.3891,2.3925,2.3891,2.3823,2.3959,2.3816,2.3884,2.3816,2.3789,2.3686,2.3434,2.3338,2.3201,2.2928,2.2847,2.2706,2.2398,2.2178,2.2044,2.1997,2.2017,2.1883,2.1636,2.1589,2.1468,2.1236,2.1149,2.1136,2.1129,2.1136,2.1156,2.1077,2.1102,2.1102,2.1102,2.1102,2.1102,2.1102,2.1102,2.1102,2.1102,2.1102,2.1102,2.1102,2.1102,2.1102,2.1102,2.1102,2.1102,2.1071,2.0976,2.1046,2.0786,1.9814,1.8844,1.8396,1.7941,1.7146,1.6222,1.5525,1.4772,1.4144,1.3434,1.2868,1.2557,1.2336,1.2403,1.2459,1.274,1.2663,1.2749,1.2686,1.2702,1.2738,1.2734,1.2803,1.2803,1.2803,1.2803,1.2803,1.2803,1.2803,1.2803,1.2803,1.2803,2.5093,2.5093,2.5093,2.5093,2.5093,2.5093,2.5093,2.5059,2.4808,2.4849,2.5018,2.4815,2.4815,2.5018,2.495,2.4916,2.4883,2.4401,2.4061,2.3898,2.3618,2.3509,2.3645,2.3713,2.3741,2.3713,2.3652,2.3441,2.3304,2.3236,2.3236,2.3242,2.3277,2.3242,2.3277,2.3242,2.3242,2.3242,2.3236,2.3167,2.3065,2.3065,2.2996,2.2893,2.2893,2.284,2.276,2.2673,2.2492,2.2298,2.2278,2.2151,2.195,2.1883,2.181,2.1763,2.171,2.161,2.1475,2.1435,2.1355,2.1169,2.1116,2.1102,2.1102,2.1122,2.1122,2.1116,2.1077,2.1102,2.1102,2.1102,2.1102,2.1102,2.1102,2.1102,2.1102,2.1102,2.1102,2.0976,2.0265,1.9718,1.9425,1.846,1.7329,1.6619,1.6586,1.6318,1.4554,1.4428,1.4112,1.3274,1.2703,1.2487,1.2491,1.2491,1.2532,1.2503,1.2584,1.2674,1.2714,1.2759,1.2779,1.2803,1.2803,1.2803,1.2803,1.2803,1.2803,1.2803,1.2803,1.2803,1.2803,1.2803,1.2803,2.5093,2.5093,2.5093,2.5093,2.5093,2.5093,2.5093,2.5025,2.4672,2.4638,2.4781,2.4611,2.457,2.4713,2.4815,2.4846,2.477,2.4237,2.3818,2.355,2.3235,2.3174,2.327,2.3338,2.3331,2.3201,2.3201,2.3099,2.2893,2.29,2.29,2.29,2.29,2.29,2.29,2.29,2.29,2.29,2.29,2.29,2.29,2.29,2.29,2.29,2.29,2.29,2.29,2.29,2.2813,2.2625,2.2585,2.2445,2.2184,2.2144,2.2098,2.2037,2.2004,2.1923,2.177,2.1743,2.1683,2.147,2.143,2.1436,2.1436,2.1436,2.141,2.1296,2.1283,2.1229,2.1136,2.1102,2.1102,2.1102,2.1102,2.1102,2.1102,2.1102,2.0748,2.0329,1.9553,1.8876,1.8133,1.7071,1.5976,1.5201,1.5168,1.5168,1.3394,1.3477,1.3133,1.2913,1.2763,1.267,1.2678,1.2698,1.2775,1.2734,1.2722,1.2751,1.2759,1.2771,1.2803,1.2803,1.2803,1.2803,1.2803,1.2803,1.2803,1.2803,1.2803,1.2803,1.2803,1.2803,1.2803,2.5093,2.5093,2.5093,2.5093,2.5093,2.5093,2.5093,2.5025,2.4723,2.4594,2.4621,2.4666,2.4508,2.4316,2.466,2.4686,2.4434,2.4129,2.3962,2.3824,2.359,2.3523,2.3632,2.3406,2.3201,2.2969,2.2928,2.2893,2.29,2.29,2.29,2.29,2.29,2.29,2.29,2.29,2.29,2.29,2.29,2.29,2.29,2.29,2.29,2.29,2.29,2.29,2.29,2.29,2.29,2.2893,2.2853,2.2733,2.2498,2.2445,2.2331,2.2158,2.2084,2.2084,2.2024,2.2004,2.2004,2.1904,2.1891,2.2017,2.193,2.189,2.1816,2.1636,2.1609,2.1509,2.1276,2.1229,2.1223,2.1176,2.1162,2.1116,2.1102,2.1102,2.0589,1.9457,1.8914,1.8364,1.7039,1.5656,1.4907,1.4488,1.3777,1.3223,1.3025,1.2968,1.2857,1.2779,1.2783,1.2742,1.2726,1.2738,1.2803,1.2807,1.282,1.2827,1.2811,1.2803,1.2803,1.2803,1.2803,1.2803,1.2803,1.2803,1.2803,1.2803,1.2803,1.2803,1.2803,1.2803,1.2803,2.5093,2.5093,2.5093,2.5093,2.5093,2.5093,2.51,2.5096,2.4939,2.4984,2.5165,2.5243,2.5238,2.5406,2.5183,2.5142,2.4918,2.4447,2.4214,2.4129,2.3863,2.3462,2.3248,2.3106,2.301,2.2914,2.2907,2.29,2.29,2.29,2.29,2.29,2.29,2.29,2.29,2.29,2.29,2.29,2.29,2.29,2.29,2.29,2.29,2.29,2.29,2.29,2.29,2.29,2.29,2.29,2.29,2.2867,2.2773,2.276,2.2706,2.2639,2.2633,2.2512,2.2352,2.2305,2.2211,2.2011,2.2077,2.2017,2.2017,2.1991,2.1977,2.1903,2.1897,2.1837,2.1764,2.173,2.1737,2.1704,2.1403,2.1149,2.1122,2.1039,2.0557,1.9234,1.8165,1.7039,1.5619,1.4427,1.3514,1.3387,1.3128,1.2803,1.2803,1.2803,1.2803,1.2803,1.2787,1.2795,1.2795,1.2795,1.2811,1.2831,1.2864,1.2933,1.288,1.2811,1.2807,1.2803,1.2803,1.2803,1.2803,1.2803,1.2803,1.2803,1.2803,1.2803,1.2803,1.2803,1.2803,2.5093,2.5093,2.5093,2.5166,2.5249,2.5257,2.533,2.5407,2.5298,2.521,2.526,2.5249,2.5165,2.5066,2.4953,2.4889,2.4815,2.4443,2.4271,2.4215,2.3957,2.3638,2.3322,2.3181,2.306,2.304,2.296,2.29,2.29,2.29,2.29,2.29,2.29,2.29,2.29,2.29,2.29,2.29,2.29,2.29,2.29,2.29,2.29,2.29,2.29,2.29,2.29,2.29,2.29,2.29,2.29,2.29,2.29,2.29,2.29,2.29,2.2893,2.28,2.2659,2.2605,2.2525,2.2432,2.2385,2.2385,2.2398,2.2385,2.2365,2.2184,2.2171,2.2104,2.2004,2.2017,2.2017,2.1924,2.1677,2.143,2.1316,2.1189,2.0151,1.8652,1.7426,1.6171,1.439,1.3293,1.2935,1.2836,1.2898,1.2803,1.2803,1.2803,1.2803,1.2803,1.2815,1.2823,1.2872,1.2892,1.2961,1.2973,1.3043,1.3104,1.301,1.2904,1.2844,1.284,1.2819,1.2815,1.2844,1.2844,1.2803,1.2803,1.2803,1.2803,1.2803,1.2803,1.2803,2.5081,2.5076,2.5103,2.5259,2.5419,2.5475,2.5544,2.5756,2.5547,2.5286,2.5087,2.5031,2.4893,2.4033,2.4613,2.4417,2.4394,2.4358,2.4285,2.4218,2.4091,2.3917,2.3841,2.35,2.3312,2.3225,2.3026,2.2954,2.2914,2.29,2.29,2.29,2.29,2.29,2.29,2.29,2.29,2.29,2.29,2.29,2.29,2.29,2.29,2.29,2.29,2.29,2.29,2.29,2.29,2.29,2.29,2.29,2.29,2.29,2.29,2.29,2.29,2.2887,2.2887,2.2853,2.2873,2.282,2.2833,2.29,2.2827,2.2793,2.2713,2.2478,2.2465,2.2358,2.2211,2.2151,2.2184,2.2158,2.2078,2.193,2.1703,2.1383,2.0119,1.7529,1.7087,1.5681,1.3809,1.2803,1.2803,1.2803,1.2803,1.2803,1.2803,1.2803,1.2803,1.2803,1.2823,1.2852,1.2921,1.3023,1.3124,1.3197,1.3238,1.3271,1.3196,1.3095,1.2957,1.2908,1.2998,1.3002,1.2961,1.2925,1.2872,1.2836,1.2856,1.2827,1.2803,1.2803,1.2803,2.5021,2.4971,2.5288,2.5227,2.5024,2.527,2.5313,2.5116,2.5277,2.5304,2.5282,2.5478,2.546,2.5255,2.5016,2.5016,2.4846,2.4633,2.4506,2.4499,2.4466,2.4412,2.4322,2.3928,2.3574,2.3365,2.3245,2.31,2.2974,2.2914,2.29,2.29,2.29,2.29,2.29,2.29,2.29,2.29,2.29,2.29,2.29,2.29,2.29,2.29,2.29,2.29,2.29,2.29,2.29,2.29,2.29,2.29,2.29,2.29,2.29,2.29,2.29,2.29,2.29,2.29,2.29,2.29,2.29,2.29,2.29,2.29,2.2867,2.28,2.28,2.2726,2.2653,2.2693,2.2653,2.2599,2.2438,2.2231,2.2131,2.1885,2.0282,1.8222,1.715,1.6174,1.3293,1.291,1.2836,1.2811,1.2819,1.2811,1.2827,1.2852,1.288,1.2921,1.2961,1.3047,1.3092,1.3193,1.3331,1.3417,1.3461,1.3516,1.3437,1.3376,1.3262,1.3238,1.3305,1.3234,1.3145,1.3096,1.3051,1.2999,1.2904,1.2856,1.2823,1.2815,1.2803,2.4886,2.4705,2.5056,2.5123,2.5093,2.5235,2.5313,2.531,2.5434,2.5409,2.5299,2.5458,2.5403,2.5212,2.5042,2.4931,2.4894,2.471,2.4592,2.4586,2.4586,2.4592,2.4572,2.4342,2.4022,2.3699,2.3434,2.3227,2.3086,2.2967,2.29,2.29,2.29,2.29,2.29,2.29,2.29,2.29,2.29,2.29,2.29,2.29,2.29,2.29,2.29,2.29,2.29,2.29,2.29,2.29,2.29,2.29,2.29,2.29,2.29,2.29,2.29,2.29,2.29,2.29,2.29,2.29,2.29,2.29,2.29,2.29,2.29,2.29,2.2893,2.2893,2.29,2.2893,2.29,2.2873,2.276,2.2347,2.1699,2.1208,2.0168,1.8023,1.6825,1.5414,1.3948,1.3177,1.3068,1.3116,1.3124,1.312,1.3141,1.3157,1.3141,1.3165,1.3197,1.3234,1.3296,1.3376,1.3555,1.364,1.3701,1.3717,1.3705,1.3636,1.3559,1.3537,1.3455,1.3394,1.3283,1.3272,1.3185,1.3088,1.3011,1.2896,1.2844,1.2831,1.2815,2.4671,2.447,2.4763,2.5007,2.5199,2.527,2.5359,2.5531,2.5616,2.5288,2.5145,2.5115,2.4968,2.4673,2.4636,2.4599,2.4599,2.4599,2.4592,2.4592,2.4592,2.4592,2.4572,2.4512,2.4406,2.4215,2.3701,2.3414,2.324,2.304,2.2907,2.29,2.29,2.29,2.29,2.29,2.29,2.29,2.29,2.29,2.29,2.29,2.29,2.29,2.29,2.29,2.29,2.29,2.29,2.29,2.29,2.29,2.29,2.29,2.29,2.29,2.29,2.29,2.29,2.29,2.29,2.29,2.29,2.29,2.29,2.29,2.29,2.29,2.29,2.29,2.29,2.29,2.29,2.2893,2.2893,2.2166,2.0902,2.0009,1.8913,1.7547,1.6448,1.5196,1.4109,1.3313,1.337,1.341,1.3415,1.3419,1.3423,1.3406,1.3362,1.3336,1.336,1.3478,1.3522,1.3539,1.3721,1.3766,1.3855,1.3859,1.3872,1.3807,1.3705,1.3595,1.3514,1.349,1.347,1.3445,1.336,1.3206,1.3124,1.3088,1.3003,1.2864,1.284,2.4546,2.4696,2.506,2.5008,2.4786,2.507,2.5061,2.4807,2.4851,2.4777,2.471,2.471,2.471,2.4599,2.4592,2.4592,2.4592,2.4592,2.4592,2.4592,2.4592,2.4592,2.4592,2.4592,2.4559,2.4392,2.3981,2.3594,2.3327,2.3067,2.2947,2.2907,2.29,2.29,2.29,2.29,2.29,2.29,2.29,2.29,2.29,2.29,2.29,2.29,2.29,2.29,2.29,2.29,2.29,2.29,2.29,2.29,2.29,2.29,2.29,2.29,2.29,2.29,2.29,2.29,2.29,2.29,2.29,2.29,2.29,2.29,2.29,2.29,2.29,2.29,2.29,2.29,2.29,2.29,2.2791,2.2201,2.0709,1.9462,1.7994,1.6432,1.5742,1.5275,1.4242,1.3524,1.3529,1.3545,1.3541,1.3533,1.349,1.3496,1.3451,1.3453,1.3506,1.3656,1.3798,1.3794,1.3855,1.3843,1.3884,1.3884,1.3892,1.3896,1.3823,1.3721,1.3717,1.3746,1.3717,1.3656,1.3532,1.3411,1.3356,1.3301,1.3145,1.3027,1.2946,2.4508,2.4462,2.4793,2.4789,2.466,2.479,2.4784,2.4636,2.4592,2.4592,2.4592,2.4592,2.4592,2.4592,2.4592,2.4592,2.4592,2.4592,2.4592,2.4592,2.4592,2.4592,2.4592,2.4592,2.4592,2.4479,2.4189,2.3841,2.3554,2.326,2.3061,2.292,2.29,2.29,2.29,2.29,2.29,2.29,2.29,2.29,2.29,2.29,2.29,2.29,2.29,2.29,2.29,2.29,2.29,2.29,2.29,2.29,2.29,2.29,2.29,2.29,2.29,2.29,2.29,2.29,2.29,2.29,2.29,2.29,2.29,2.29,2.29,2.29,2.29,2.29,2.29,2.29,2.29,2.29,2.2825,2.1741,2.0063,1.8909,1.7227,1.5438,1.4837,1.4464,1.4135,1.3685,1.3656,1.3644,1.3632,1.362,1.3604,1.3591,1.3606,1.362,1.3677,1.3746,1.3876,1.3888,1.39,1.39,1.39,1.39,1.39,1.39,1.39,1.3855,1.3892,1.39,1.3876,1.3782,1.3694,1.3602,1.3532,1.3445,1.3291,1.3165,1.3092,2.4489,2.4309,2.4499,2.4592,2.4592,2.4592,2.4599,2.4592,2.4592,2.4592,2.4592,2.4592,2.4592,2.4592,2.4592,2.4592,2.4592,2.4592,2.4592,2.4592,2.4592,2.4592,2.4592,2.4592,2.4592,2.4559,2.4392,2.4102,2.3763,2.3427,2.3153,2.2946,2.29,2.29,2.29,2.29,2.29,2.29,2.29,2.29,2.29,2.29,2.29,2.29,2.29,2.29,2.29,2.29,2.29,2.29,2.29,2.29,2.29,2.29,2.29,2.29,2.29,2.29,2.29,2.29,2.29,2.29,2.29,2.29,2.29,2.29,2.29,2.29,2.29,2.29,2.29,2.29,2.29,2.2791,2.2441,2.1499,1.9397,1.7825,1.6529,1.5137,1.4217,1.3876,1.3823,1.3819,1.3778,1.3778,1.3766,1.3778,1.377,1.3798,1.3794,1.3827,1.3855,1.3855,1.3896,1.3892,1.39,1.39,1.39,1.39,1.39,1.39,1.39,1.39,1.39,1.39,1.39,1.39,1.3795,1.3731,1.3682,1.3585,1.3431,1.336,1.3291,2.4356,2.4546,2.4586,2.4592,2.4592,2.4592,2.4592,2.4592,2.4592,2.4592,2.4592,2.4592,2.4592,2.4592,2.4592,2.4592,2.4592,2.4592,2.4592,2.4592,2.4592,2.4592,2.4592,2.4592,2.4592,2.4592,2.4552,2.4262,2.3841,2.3487,2.3173,2.2967,2.29,2.29,2.29,2.29,2.29,2.29,2.29,2.29,2.29,2.29,2.29,2.29,2.29,2.29,2.29,2.29,2.29,2.29,2.29,2.29,2.29,2.29,2.29,2.29,2.29,2.29,2.29,2.29,2.29,2.29,2.29,2.29,2.29,2.29,2.29,2.29,2.29,2.29,2.2866,2.2832,2.2866,2.2269,2.1499,2.0277,1.8525,1.7303,1.5938,1.4884,1.3971,1.39,1.3876,1.3888,1.3892,1.3896,1.39,1.39,1.39,1.39,1.39,1.39,1.39,1.39,1.39,1.39,1.39,1.39,1.39,1.39,1.39,1.39,1.39,1.39,1.39,1.39,1.39,1.3896,1.3888,1.3859,1.3775,1.3698,1.3609,1.352,1.3427,2.4486,2.4592,2.4592,2.4592,2.4592,2.4592,2.4592,2.4592,2.4592,2.4592,2.4592,2.4592,2.4592,2.4592,2.4592,2.4592,2.4592,2.4592,2.4592,2.4592,2.4592,2.4592,2.4592,2.4592,2.4592,2.4592,2.4539,2.4295,2.3888,2.3607,2.3395,2.2954,2.29,2.29,2.29,2.29,2.29,2.29,2.29,2.29,2.29,2.29,2.29,2.29,2.29,2.29,2.29,2.29,2.29,2.29,2.29,2.29,2.29,2.29,2.29,2.29,2.29,2.29,2.29,2.29,2.29,2.29,2.29,2.29,2.29,2.29,2.29,2.29,2.29,2.2866,2.2585,2.2057,2.1712,2.1189,2.0242,1.8879,1.7619,1.6886,1.573,1.4711,1.39,1.39,1.39,1.39,1.39,1.39,1.39,1.39,1.39,1.39,1.39,1.39,1.39,1.39,1.39,1.39,1.39,1.39,1.39,1.39,1.39,1.39,1.39,1.39,1.39,1.39,1.39,1.39,1.3892,1.3896,1.39,1.3787,1.371,1.3621,1.3512,2.4592,2.4592,2.4592,2.4592,2.4592,2.4592,2.4592,2.4592,2.4592,2.4592,2.4592,2.4592,2.4592,2.4592,2.4592,2.4592,2.4592,2.4592,2.4592,2.4592,2.4592,2.4592,2.4592,2.4592,2.4592,2.4592,2.4479,2.4229,2.3901,2.3656,2.3362,2.2914,2.29,2.29,2.29,2.29,2.29,2.29,2.29,2.29,2.29,2.29,2.29,2.29,2.29,2.29,2.29,2.29,2.29,2.29,2.29,2.29,2.29,2.29,2.29,2.29,2.29,2.29,2.29,2.29,2.29,2.29,2.29,2.29,2.29,2.29,2.29,2.29,2.29,2.2722,2.2201,2.1183,2.0664,1.982,1.8699,1.7409,1.6322,1.573,1.5239,1.4497,1.39,1.39,1.39,1.39,1.39,1.39,1.39,1.39,1.39,1.39,1.39,1.39,1.39,1.39,1.39,1.39,1.39,1.39,1.39,1.39,1.39,1.39,1.39,1.39,1.39,1.39,1.39,1.39,1.39,1.39,1.39,1.39,1.3808,1.3719,1.3621,2.4592,2.4592,2.4592,2.4592,2.4592,2.4592,2.4592,2.4592,2.4592,2.4592,2.4592,2.4592,2.4592,2.4592,2.4592,2.4592,2.4592,2.4592,2.4592,2.4592,2.4592,2.4592,2.4592,2.4592,2.4586,2.4546,2.4392,2.4115,2.381,2.3514,2.3248,2.294,2.29,2.29,2.29,2.29,2.29,2.29,2.29,2.29,2.29,2.29,2.29,2.29,2.29,2.29,2.29,2.29,2.29,2.29,2.29,2.29,2.29,2.29,2.29,2.29,2.29,2.29,2.29,2.29,2.29,2.29,2.29,2.29,2.29,2.29,2.29,2.2825,2.2654,2.2029,2.1327,2.0456,1.9408,1.8495,1.7338,1.6393,1.5412,1.4817,1.4324,1.4007,1.39,1.39,1.39,1.39,1.39,1.39,1.39,1.39,1.39,1.39,1.39,1.39,1.39,1.39,1.39,1.39,1.39,1.39,1.39,1.39,1.39,1.39,1.39,1.39,1.39,1.39,1.39,1.39,1.39,1.39,1.39,1.39,1.39,1.3808,1.3723,2.4592,2.4592,2.4592,2.4592,2.4592,2.4592,2.4592,2.4592,2.4592,2.4592,2.4592,2.4592,2.4592,2.4592,2.4592,2.4592,2.4592,2.4592,2.4592,2.4592,2.4592,2.4592,2.4592,2.4592,2.4592,2.4532,2.4306,2.4055,2.3803,2.344,2.316,2.2987,2.29,2.29,2.29,2.29,2.29,2.29,2.29,2.29,2.29,2.29,2.29,2.29,2.29,2.29,2.29,2.29,2.29,2.29,2.29,2.29,2.29,2.29,2.29,2.29,2.29,2.29,2.29,2.29,2.29,2.29,2.29,2.29,2.29,2.29,2.29,2.2654,2.2091,2.1402,2.0733,1.8984,1.7343,1.671,1.6009,1.5203,1.4675,1.415,1.3971,1.39,1.39,1.39,1.39,1.39,1.39,1.39,1.39,1.39,1.39,1.39,1.39,1.39,1.39,1.39,1.39,1.39,1.39,1.39,1.39,1.39,1.39,1.39,1.39,1.39,1.39,1.39,1.39,1.39,1.39,1.39,1.39,1.39,1.39,1.39,1.3808,2.4592,2.4592,2.4592,2.4592,2.4592,2.4592,2.4592,2.4592,2.4592,2.4592,2.4592,2.4592,2.4592,2.4592,2.4592,2.4592,2.4592,2.4592,2.4592,2.4592,2.4592,2.4592,2.4592,2.4592,2.4592,2.4512,2.4242,2.3928,2.3797,2.338,2.3086,2.2947,2.29,2.29,2.29,2.29,2.29,2.29,2.29,2.29,2.29,2.29,2.29,2.29,2.29,2.29,2.29,2.29,2.29,2.29,2.29,2.29,2.29,2.29,2.29,2.29,2.29,2.29,2.29,2.29,2.29,2.29,2.29,2.29,2.29,2.2859,2.2756,2.2057,2.143,2.0802,1.9993,1.79,1.6433,1.5903,1.5026,1.4288,1.4252,1.3936,1.39,1.39,1.39,1.39,1.39,1.39,1.39,1.39,1.39,1.39,1.39,1.39,1.39,1.39,1.39,1.39,1.39,1.39,1.39,1.39,1.39,1.39,1.39,1.39,1.39,1.39,1.39,1.39,1.39,1.39,1.39,1.39,1.39,1.39,1.39,1.39,1.39,2.4592,2.4592,2.4592,2.4592,2.4592,2.4592,2.4592,2.4592,2.4592,2.4592,2.4592,2.4592,2.4592,2.4592,2.4592,2.4592,2.4592,2.4592,2.4592,2.4592,2.4592,2.4592,2.4592,2.4592,2.4559,2.4446,2.4142,2.3863,2.3756,2.3241,2.296,2.2914,2.29,2.29,2.29,2.29,2.29,2.29,2.29,2.29,2.29,2.29,2.29,2.29,2.29,2.29,2.29,2.29,2.29,2.29,2.29,2.29,2.29,2.29,2.29,2.29,2.29,2.29,2.29,2.29,2.29,2.29,2.29,2.29,2.29,2.2791,2.2297,2.1465,2.1361,2.0028,1.8594,1.7022,1.5867,1.5061,1.4217,1.39,1.39,1.39,1.39,1.39,1.39,1.39,1.39,1.39,1.39,1.39,1.39,1.39,1.39,1.39,1.39,1.39,1.39,1.39,1.39,1.39,1.39,1.39,1.39,1.39,1.39,1.39,1.39,1.39,1.39,1.39,1.39,1.39,1.39,1.39,1.39,1.39,1.39,1.39,1.39,2.4592,2.4592,2.4592,2.4592,2.4592,2.4592,2.4592,2.4592,2.4592,2.4592,2.4592,2.4592,2.4592,2.4592,2.4592,2.4592,2.4592,2.4592,2.4592,2.4592,2.4592,2.4592,2.4592,2.4579,2.4499,2.4289,2.3941,2.3647,2.3419,2.3074,2.2934,2.29,2.29,2.29,2.29,2.29,2.29,2.29,2.29,2.29,2.29,2.29,2.29,2.29,2.29,2.29,2.29,2.29,2.29,2.29,2.29,2.29,2.29,2.29,2.29,2.29,2.29,2.29,2.29,2.29,2.29,2.29,2.29,2.29,2.29,2.29,2.2022,2.0768,2.0277,1.8734,1.6992,1.5553,1.4537,1.4359,1.39,1.39,1.39,1.39,1.39,1.39,1.39,1.39,1.39,1.39,1.39,1.39,1.39,1.39,1.39,1.39,1.39,1.39,1.39,1.39,1.39,1.39,1.39,1.39,1.39,1.39,1.39,1.39,1.39,1.39,1.39,1.39,1.39,1.39,1.39,1.39,1.39,1.39,1.39,1.39,1.39,2.4592,2.4592,2.4592,2.4592,2.4592,2.4592,2.4592,2.4592,2.4592,2.4592,2.4592,2.4592,2.4592,2.4592,2.4592,2.4592,2.4592,2.4592,2.4592,2.4592,2.4592,2.4592,2.4592,2.4572,2.4439,2.4195,2.3901,2.3627,2.3319,2.302,2.2914,2.29,2.29,2.29,2.29,2.29,2.29,2.29,2.29,2.29,2.29,2.29,2.29,2.29,2.29,2.29,2.29,2.29,2.29,2.29,2.29,2.29,2.29,2.29,2.29,2.29,2.29,2.29,2.29,2.29,2.29,2.29,2.29,2.29,2.2688,2.2304,2.1183,1.9959,1.8874,1.7303,1.5695,1.4288,1.4359,1.4252,1.39,1.39,1.39,1.39,1.39,1.39,1.39,1.39,1.39,1.39,1.39,1.39,1.39,1.39,1.39,1.39,1.39,1.39,1.39,1.39,1.39,1.39,1.39,1.39,1.39,1.39,1.39,1.39,1.39,1.39,1.39,1.39,1.39,1.39,1.39,1.39,1.39,1.39,1.39,1.39,1.39,2.4592,2.4592,2.4592,2.4592,2.4592,2.4592,2.4592,2.4592,2.4592,2.4592,2.4592,2.4592,2.4592,2.4592,2.4592,2.4592,2.4592,2.4592,2.4592,2.4592,2.4592,2.4592,2.4592,2.4579,2.4379,2.4168,2.3881,2.3581,2.3265,2.3013,2.29,2.29,2.29,2.29,2.29,2.29,2.29,2.29,2.29,2.29,2.29,2.29,2.29,2.29,2.29,2.29,2.29,2.29,2.29,2.29,2.29,2.29,2.29,2.29,2.29,2.29,2.29,2.29,2.29,2.29,2.2585,2.2475,2.2544,2.2722,2.2269,2.1292,1.9895,1.8914,1.7865,1.6181,1.4568,1.4782,1.4955,1.4497,1.3936,1.39,1.39,1.39,1.39,1.39,1.39,1.39,1.39,1.39,1.39,1.39,1.39,1.39,1.39,1.39,1.39,1.39,1.39,1.39,1.39,1.39,1.39,1.39,1.39,1.39,1.39,1.39,1.39,1.39,1.39,1.39,1.39,1.39,1.39,1.39,1.39,1.39,1.39,1.39,1.39,2.4592,2.4592,2.4592,2.4592,2.4592,2.4592,2.4592,2.4592,2.4592,2.4592,2.4592,2.4592,2.4592,2.4592,2.4592,2.4592,2.4592,2.4592,2.4592,2.4592,2.4592,2.4592,2.4592,2.4552,2.4329,2.4028,2.3783,2.3529,2.3093,2.29,2.29,2.29,2.29,2.29,2.29,2.29,2.29,2.29,2.29,2.29,2.29,2.29,2.29,2.29,2.29,2.29,2.29,2.29,2.29,2.29,2.29,2.29,2.29,2.29,2.29,2.29,2.29,2.29,2.29,2.29,2.2441,2.1534,2.1292,2.1258,2.0837,1.982,1.8355,1.7619,1.6851,1.5376,1.4426,1.4462,1.4604,1.4288,1.39,1.39,1.39,1.39,1.39,1.39,1.39,1.39,1.39,1.39,1.39,1.39,1.39,1.39,1.39,1.39,1.39,1.39,1.39,1.39,1.39,1.39,1.39,1.39,1.39,1.39,1.39,1.39,1.39,1.39,1.39,1.39,1.39,1.39,1.39,1.39,1.39,1.39,1.39,1.39,1.39,2.4592,2.4592,2.4592,2.4592,2.4592,2.4592,2.4592,2.4592,2.4592,2.4592,2.4592,2.4592,2.4592,2.4592,2.4592,2.4592,2.4592,2.4592,2.4592,2.4592,2.4592,2.4592,2.4586,2.4459,2.4189,2.3881,2.3594,2.3327,2.3,2.29,2.29,2.29,2.29,2.29,2.29,2.29,2.29,2.29,2.29,2.29,2.29,2.29,2.29,2.29,2.29,2.29,2.29,2.29,2.29,2.29,2.29,2.29,2.29,2.29,2.29,2.29,2.29,2.2441,2.2125,2.2619,2.1568,2.0381,1.9715,1.9298,1.8734,1.7825,1.7092,1.6428,1.566,1.4884,1.4324,1.39,1.39,1.39,1.39,1.39,1.39,1.39,1.39,1.39,1.39,1.39,1.39,1.39,1.39,1.39,1.39,1.39,1.39,1.39,1.39,1.39,1.39,1.39,1.39,1.39,1.39,1.39,1.39,1.39,1.39,1.39,1.39,1.39,1.39,1.39,1.39,1.39,1.39,1.39,1.39,1.39,1.39,1.39,1.39,2.4592,2.4592,2.4592,2.4592,2.4592,2.4592,2.4592,2.4592,2.4592,2.4592,2.4592,2.4592,2.4592,2.4592,2.4592,2.4592,2.4592,2.4592,2.4592,2.4592,2.4592,2.4592,2.4512,2.4312,2.4095,2.3781,2.3487,2.3227,2.3,2.29,2.29,2.29,2.29,2.29,2.29,2.29,2.29,2.29,2.29,2.29,2.29,2.29,2.29,2.29,2.29,2.29,2.29,2.29,2.29,2.29,2.29,2.29,2.29,2.29,2.29,2.2654,2.2551,2.1885,2.1327,2.1499,2.0375,1.9147,1.8205,1.7439,1.6705,1.6216,1.566,1.5447,1.4782,1.4462,1.4007,1.39,1.39,1.39,1.39,1.39,1.39,1.39,1.39,1.39,1.39,1.39,1.39,1.39,1.39,1.39,1.39,1.39,1.39,1.39,1.39,1.39,1.39,1.39,1.39,1.39,1.39,1.39,1.39,1.39,1.39,1.39,1.39,1.39,1.39,1.39,1.39,1.39,1.39,1.39,1.39,1.39,1.39,1.39,1.39,2.4592,2.4592,2.4592,2.4592,2.4592,2.4592,2.4592,2.4592,2.4592,2.4592,2.4592,2.4592,2.4592,2.4592,2.4592,2.4592,2.4592,2.4592,2.4592,2.4592,2.4592,2.4559,2.4519,2.4282,2.4022,2.3761,2.3467,2.3146,2.2967,2.29,2.29,2.29,2.29,2.29,2.29,2.29,2.29,2.29,2.29,2.29,2.29,2.29,2.29,2.29,2.29,2.29,2.29,2.29,2.29,2.29,2.29,2.29,2.29,2.29,2.2866,2.2722,2.1816,2.1044,2.0346,1.9889,1.8734,1.7579,1.6534,1.5655,1.5026,1.464,1.443,1.4324,1.4217,1.4007,1.39,1.39,1.39,1.39,1.39,1.39,1.39,1.39,1.39,1.39,1.39,1.39,1.39,1.39,1.39,1.39,1.39,1.39,1.39,1.39,1.39,1.39,1.39,1.39,1.39,1.39,1.39,1.39,1.39,1.39,1.39,1.39,1.39,1.39,1.39,1.39,1.39,1.39,1.39,1.39,1.39,1.39,1.39,1.39,1.39,2.4592,2.4592,2.4592,2.4592,2.4592,2.4592,2.4592,2.4592,2.4592,2.4592,2.4592,2.4592,2.4592,2.4592,2.4592,2.4592,2.4592,2.4592,2.4592,2.4592,2.4559,2.4486,2.4389,2.4155,2.3834,2.3561,2.3273,2.2999,2.2914,2.29,2.29,2.29,2.29,2.29,2.29,2.29,2.29,2.29,2.29,2.29,2.29,2.29,2.29,2.29,2.29,2.29,2.29,2.29,2.29,2.29,2.29,2.29,2.29,2.29,2.2475,2.185,2.0981,1.9999,1.9054,1.8215,1.7198,1.6044,1.5938,1.5483,1.4462,1.4114,1.4114,1.4078,1.4078,1.39,1.39,1.39,1.39,1.39,1.39,1.39,1.39,1.39,1.39,1.39,1.39,1.39,1.39,1.39,1.39,1.39,1.39,1.39,1.39,1.39,1.39,1.39,1.39,1.39,1.39,1.39,1.39,1.39,1.39,1.39,1.39,1.39,1.39,1.39,1.39,1.39,1.39,1.39,1.39,1.39,1.39,1.39,1.39,1.39,1.39,2.4592,2.4592,2.4592,2.4592,2.4592,2.4592,2.4592,2.4592,2.4592,2.4592,2.4592,2.4592,2.4592,2.4592,2.4592,2.4592,2.4592,2.4592,2.4592,2.4579,2.4532,2.4436,2.4182,2.3917,2.3567,2.3293,2.3033,2.2974,2.29,2.29,2.29,2.29,2.29,2.29,2.29,2.29,2.29,2.29,2.29,2.29,2.29,2.29,2.29,2.29,2.29,2.29,2.29,2.29,2.29,2.2688,2.2551,2.2304,2.2057,2.185,2.1183,2.045,1.9681,1.8355,1.7203,1.7027,1.5867,1.5057,1.5553,1.5239,1.4145,1.39,1.39,1.39,1.39,1.39,1.39,1.39,1.39,1.39,1.39,1.39,1.39,1.39,1.39,1.39,1.39,1.39,1.39,1.39,1.39,1.39,1.39,1.39,1.39,1.39,1.39,1.39,1.39,1.39,1.39,1.39,1.39,1.39,1.39,1.39,1.39,1.39,1.39,1.39,1.39,1.39,1.39,1.39,1.39,1.39,1.39,1.39,1.39,1.39,1.39,2.4592,2.4592,2.4592,2.4592,2.4592,2.4592,2.4592,2.4592,2.4592,2.4592,2.4592,2.4592,2.4592,2.4592,2.4592,2.4592,2.4592,2.4592,2.4592,2.4586,2.4436,2.4295,2.4035,2.3627,2.3267,2.3046,2.2947,2.292,2.29,2.29,2.29,2.29,2.29,2.29,2.29,2.29,2.29,2.29,2.29,2.29,2.29,2.29,2.29,2.29,2.29,2.29,2.29,2.29,2.29,2.2551,2.185,2.1396,2.0941,2.0381,1.9501,1.8874,1.8105,1.7092,1.6221,1.5589,1.4462,1.4324,1.464,1.4497,1.39,1.39,1.39,1.39,1.39,1.39,1.39,1.39,1.39,1.39,1.39,1.39,1.39,1.39,1.39,1.39,1.39,1.39,1.39,1.39,1.39,1.39,1.39,1.39,1.39,1.39,1.39,1.39,1.39,1.39,1.39,1.39,1.39,1.39,1.39,1.39,1.39,1.39,1.39,1.39,1.39,1.39,1.39,1.39,1.39,1.39,1.39,1.39,1.39,1.39,1.39]},{"header":{"parameterUnit":"m.s-1","parameterCategory":1,"la1":31.0,"la2":29.5877,"lo1":-88.7671,"lo2":-86.6584,"dx":0.0162,"dy":0.0185,"nx":115,"ny":88,"refTime":"2022-11-20T18:00:00:Z","depth":0,"parameterNumber":3,"parameterNumberName":"V-component_of_WINDS"},"data":[0.0,0.0,0.0,0.0,0.0,0.0,0.0,0.0,0.0,0.0,0.0,0.0,0.0,0.0,0.0,0.0,0.0,0.0,0.0,0.0,0.0,0.0,0.0,0.0,0.0,0.0,0.0,0.0,0.0,0.0,0.0,0.0,0.0,0.0,0.0,0.0,0.0,0.0,0.0,0.0,0.0,0.0,0.0,0.0,0.0,0.0,0.0,0.0,0.0,0.0,0.0,0.0,0.0,0.0,0.0,0.0,0.0,0.0,0.0,0.0,0.0,0.0,0.0,0.0,0.0,0.0,0.0,0.0,0.0,0.0,0.0,0.0,0.0,0.0,0.0,0.0,0.0,0.0,0.0,0.0,0.0,0.0,0.0,0.0,0.0,0.0,0.0,0.0,0.0,0.0,0.0,0.0,0.0,0.0,0.0,0.0,0.0,0.0,0.0,0.0,0.0,0.0,0.0,0.0,0.0,0.0,0.0,0.0,0.0,0.0,0.0,0.0,0.0,0.0,0.0,0.0,0.0,0.0,0.0,0.0,0.0,0.0,0.0,0.0,0.0,0.0,0.0,0.0,0.0,0.0,0.0,0.0,0.0,0.0,0.0,0.0,0.0,0.0,0.0,0.0,0.0,0.0,0.0,0.0,0.0,0.0,0.0,0.0,0.0,0.0,0.0,0.0,0.0,0.0,0.0,0.0,0.0,0.0,0.0,0.0,0.0,0.0,0.0,0.0,0.0,0.0,0.0,0.0,0.0,0.0,0.0,0.0,0.0,0.0,0.0,0.0,0.0,0.0,0.0,0.0,0.0,0.0,0.0,0.0,0.0,0.0,0.0,0.0,0.0,0.0,0.0,0.0,0.0,0.0,0.0,0.0,0.0,0.0,0.0,0.0,0.0,0.0,0.0,0.0,0.0,0.0,0.0,0.0,0.0,0.0,0.0,0.0,0.0,0.0,0.0,0.0,0.0,0.0,0.0,0.0,0.0,0.0,0.0,0.0,0.0,0.0,0.0,0.0,0.0,0.0,0.0,0.0,0.0,0.0,0.0,0.0,0.0,0.0,0.0,0.0,0.0,0.0,0.0,0.0,0.0,0.0,0.0,0.0,0.0,0.0,0.0,0.0,0.0,0.0,0.0,0.0,0.0,0.0,0.0,0.0,0.0,0.0,0.0,0.0,0.0,0.0,0.0,0.0,0.0,0.0,0.0,0.0,0.0,0.0,0.0,0.0,0.0,0.0,0.0,0.0,0.0,0.0,0.0,0.0,0.0,0.0,0.0,0.0,0.0,0.0,0.0,0.0,0.0,0.0,0.0,0.0,0.0,0.0,0.0,0.0,0.0,0.0,0.0,0.0,0.0,0.0,0.0,0.0,0.0,0.0,0.0,0.0,0.0,0.0,0.0,0.0,0.0,0.0,0.0,0.0,0.0,0.0,0.0,0.0,0.0,0.0,0.0,0.0,0.0,0.0,0.0,0.0,0.0,0.0,0.0,0.0,0.0,0.0,0.0,0.0,0.0,0.0,0.0,0.0,0.0,0.0,0.0,0.0,0.0,0.0,0.0,0.0,0.0,0.0,0.0,0.0,0.0,0.0,0.0,0.0,0.0,0.0,0.0,0.0,0.0,0.0,0.0,0.0,0.0,0.0,0.0,0.0,0.0,0.0,0.0,0.0,0.0,0.0,0.0,0.0,0.0,0.0,0.0,0.0,0.0,0.0,0.0,0.0,0.0,0.0,0.0,0.0,0.0,0.0,0.0,0.0,0.0,0.0,0.0,0.0,0.0,0.0,0.0,0.0,0.0,0.0,0.0,0.0,0.0,0.0,0.0,0.0,0.0,0.0,0.0,0.0,0.0,0.0,0.0,0.0,0.0,0.0,0.0,0.0,0.0,0.0,0.0,0.0,0.0,0.0,0.0,0.0,0.0,0.0,0.0,0.0,0.0,0.0,0.0,0.0,0.0,0.0,0.0,0.0,0.0,0.0,0.0,0.0,0.0,0.0,0.0,0.0,0.0,0.0,0.0,0.0,0.0,0.0,0.0,0.0,0.0,0.0,0.0,0.0,0.0,0.0,0.0,0.0,0.0,0.0,0.0,0.0,0.0,0.0,0.0,0.0,0.0,0.0,0.0,0.0,0.0,0.0,0.0,0.0,0.0,0.0,0.0,0.0,0.0,0.0,0.0,0.0,0.0,0.0,0.0,0.0,0.0,0.0,0.0,0.0,0.0,0.0,0.0,0.0,0.0,0.0,0.0,0.0,0.0,0.0,0.0,0.0,0.0,0.0,0.0,0.0,0.0,0.0,0.0,0.0,0.0,0.0,0.0,0.0,0.0,0.0,0.0,0.0,0.0,0.0,0.0,0.0,0.0,0.0,0.0,0.0,0.0,0.0,0.0,0.0,0.0,0.0,0.0,0.0,0.0,0.0,0.0,0.0,0.0,0.0,0.0,0.0,0.0,0.0,0.0,0.0,0.0,0.0,0.0,0.0,0.0,0.0,0.0,0.0,0.0,0.0,0.0,0.0,0.0,0.0,0.0,0.0,0.0,0.0,0.0,0.0,0.0,0.0,0.0,0.0,0.0,0.0,0.0,0.0,0.0,0.0,0.0,0.0,0.0,0.0,0.0,0.0,0.0,0.0,0.0,0.0,0.0,0.0,0.0,0.0,0.0,0.0,0.0,0.0,0.0,0.0,0.0,0.0,0.0,0.0,0.0,0.0,0.0,0.0,0.0,0.0,0.0,0.0,0.0,0.0,0.0,0.0,0.0,0.0,0.0,0.0,0.0,0.0,0.0,0.0,0.0,0.0,0.0,0.0,0.0,0.0,0.0,0.0,0.0,0.0,0.0,0.0,0.0,0.0,0.0,0.0,0.0,0.0,0.0,0.0,0.0,0.0,0.0,0.0,0.0,0.0,0.0,0.0,0.0,0.0,0.0,0.0,0.0,0.0,0.0,0.0,0.0,0.0,0.0,0.0,0.0,0.0,0.0,0.0,0.0,0.0,0.0,0.0,0.0,0.0,0.0,0.0,0.0,0.0,0.0,0.0,0.0,0.0,0.0,0.0,0.0,0.0,0.0,0.0,0.0,0.0,0.0,0.0,0.0,0.0,0.0,0.0,0.0,0.0,0.0,0.0,0.0,0.0,0.0,0.0,0.0,0.0,0.0,0.0,0.0,0.0,0.0,0.0,0.0,0.0,0.0,0.0,0.0,0.0,0.0,0.0,0.0,0.0,0.0,0.0,0.0,0.0,0.0,0.0,0.0,0.0,0.0,0.0,0.0,0.0,0.0,0.0,0.0,0.0,0.0,0.0,0.0,0.0,0.0,0.0,0.0,0.0,0.0,0.0,0.0,0.0,0.0,0.0,0.0,0.0,0.0,0.0,0.0,0.0,0.0,0.0,0.0,0.0,0.0,0.0,0.0,0.0,0.0,0.0,0.0,0.0,0.0,0.0,0.0,0.0,0.0,0.0,0.0,0.0,0.0,0.0,0.0,0.0,0.0,0.0,0.0,0.0,0.0,0.0,0.0,0.0,0.0,0.0,0.0,0.0,0.0,0.0,0.0,0.0,0.0,0.0,0.0,0.0,0.0,0.0,0.0,0.0,0.0,0.0,0.0,0.0,0.0,0.0,0.0,0.0,0.0,0.0,0.0,0.0,0.0,0.0,0.0,0.0,0.0,0.0,0.0,0.0,0.0,0.0,0.0,0.0,0.0,0.0,0.0,0.0,0.0,0.0,0.0,0.0,0.0,0.0,0.0,0.0,0.0,0.0,0.0,0.0,0.0,0.0,0.0,0.0,0.0,0.0,0.0,0.0,0.0,0.0,0.0,0.0,0.0,0.0,0.0,0.0,0.0,0.0,0.0,0.0,0.0,0.0,0.0,0.0,0.0,0.0,0.0,0.0,0.0,0.0,0.0,0.0,0.0,0.0,0.0,0.0,0.0,0.0,0.0,0.0,0.0,0.0,0.0,0.0,0.0,0.0,0.0,0.0,0.0,0.0,0.0,0.0,0.0,0.0,0.0,0.0,0.0,0.0,0.0,0.0,0.0,0.0,0.0,0.0,0.0,0.0,0.0,0.0,0.0,0.0,0.0,0.0,0.0,0.0,0.0,0.0,0.0,0.0,0.0,0.0,0.0,0.0,0.0,0.0,0.0,0.0,0.0,0.0,0.0,0.0,0.0,0.0,0.0,0.0,0.0,0.0,0.0,0.0,0.0,0.0,0.0,0.0,0.0,0.0,0.0,0.0,0.0,0.0,0.0,0.0,2.083,0.0,0.0,0.0,1.8135,0.0,0.0,0.0,0.0,0.0,0.0,0.0,0.0,0.0,0.0,0.0,0.0,0.0,0.0,0.0,0.0,0.0,0.0,0.0,0.0,0.0,0.0,0.0,0.0,0.0,0.0,0.0,0.0,0.0,0.0,0.0,0.0,0.0,0.0,0.0,0.0,0.0,0.0,0.0,0.0,0.0,0.0,0.0,0.0,0.0,0.0,0.0,0.0,0.0,0.0,0.0,0.0,0.0,0.0,0.0,0.0,0.0,0.0,0.0,0.0,0.0,0.0,0.0,0.0,0.0,0.0,0.0,0.0,0.0,0.0,0.0,0.0,0.0,0.0,0.0,0.0,0.0,0.0,0.0,0.0,0.0,0.0,0.0,0.0,0.0,0.0,0.0,0.0,0.0,0.0,0.0,0.0,0.0,0.0,0.0,0.0,0.0,0.0,0.0,0.0,0.0,0.0,0.0,0.0,0.0,0.0,0.0,0.0,0.0,0.0,2.1145,2.0371,1.9671,1.8999,1.8368,0.0,0.0,0.0,0.0,0.0,0.0,0.0,0.0,0.0,0.0,0.0,0.0,0.0,0.0,0.0,0.0,0.0,0.0,0.0,0.0,0.0,0.0,0.0,0.0,0.0,0.0,0.0,0.0,0.0,0.0,0.0,0.0,0.0,0.0,0.0,0.0,0.0,0.0,0.0,0.0,0.0,0.0,0.0,0.0,0.0,0.0,0.0,0.0,0.0,0.0,0.0,0.0,0.0,0.0,0.0,0.0,0.0,0.0,0.0,0.0,0.0,0.0,0.0,0.0,0.0,0.0,0.0,0.0,0.0,0.0,0.0,0.0,0.0,0.0,0.0,0.0,0.0,0.0,0.0,0.0,0.0,0.0,0.0,0.0,0.0,0.0,0.0,0.0,0.0,0.0,0.0,0.0,0.0,0.0,0.0,0.0,0.0,0.0,0.0,0.0,0.0,0.0,0.0,0.0,0.0,0.0,0.0,0.0,0.0,0.0,0.0,0.0,1.9699,1.9042,1.8538,0.0,0.0,0.0,0.0,0.0,0.0,0.0,0.0,0.0,0.0,0.0,0.0,0.0,0.0,0.0,0.0,0.0,0.0,0.0,0.0,0.0,0.0,0.0,0.0,0.0,0.0,0.0,0.0,0.0,0.0,0.0,0.0,0.0,0.0,0.0,0.0,0.0,0.0,0.0,0.0,0.0,0.0,0.0,0.0,0.0,0.0,0.0,0.0,0.0,0.0,0.0,0.0,0.0,0.0,0.0,0.0,0.0,0.0,0.0,0.0,0.0,0.0,0.0,0.0,0.0,0.0,0.0,0.0,0.0,0.0,0.0,0.0,0.0,0.0,0.0,0.0,0.0,0.0,0.0,0.0,0.0,0.0,0.0,0.0,0.0,0.0,0.0,0.0,0.0,0.0,0.0,0.0,0.0,0.0,0.0,0.0,0.0,0.0,0.0,0.0,0.0,0.0,0.0,0.0,0.0,0.0,0.0,0.0,0.0,0.0,2.0421,2.0401,1.9682,0.0,1.855,0.0,0.0,0.0,0.0,0.0,0.0,0.0,0.0,0.0,0.0,0.0,0.0,0.0,0.0,0.0,0.0,0.0,0.0,0.0,0.0,0.0,0.0,0.0,0.0,0.0,0.0,0.0,0.0,0.0,0.0,0.0,0.0,0.0,0.0,0.0,0.0,0.0,0.0,0.0,0.0,0.0,0.0,0.0,0.0,0.0,0.0,0.0,0.0,0.0,0.0,0.0,0.0,0.0,0.0,0.0,0.0,0.0,0.0,0.0,0.0,0.0,0.0,0.0,0.0,0.0,0.0,0.0,0.0,0.0,0.0,0.0,0.0,0.0,0.0,0.0,0.0,0.0,0.0,0.0,0.0,0.0,0.0,0.0,0.0,0.0,0.0,0.0,0.0,0.0,0.0,0.0,0.0,0.0,0.0,0.0,0.0,0.0,0.0,0.0,0.0,0.0,0.0,0.0,0.0,0.0,0.0,0.0,0.0,0.0,0.0,2.0341,2.0172,1.9161,1.8424,0.0,0.0,0.0,0.0,0.0,0.0,0.0,0.0,0.0,0.0,0.0,0.0,0.0,0.0,0.0,0.0,0.0,0.0,0.0,0.0,0.0,0.0,0.0,0.0,0.0,0.0,0.0,0.0,0.0,0.0,0.0,0.0,0.0,0.0,0.0,0.0,0.0,0.0,0.0,0.0,0.0,0.0,0.0,0.0,0.0,0.0,0.0,0.0,0.0,0.0,0.0,0.0,0.0,0.0,0.0,0.0,0.0,0.0,0.0,0.0,0.0,0.0,0.0,0.0,0.0,0.0,0.0,0.0,0.0,0.0,0.0,0.0,0.0,0.0,0.0,0.0,0.0,0.0,0.0,0.0,0.0,0.0,0.0,0.0,0.0,0.0,0.0,0.0,0.0,0.0,0.0,0.0,0.0,0.0,0.0,0.0,0.0,0.0,0.0,0.0,0.0,0.0,0.0,0.0,0.0,0.0,0.0,0.0,0.0,0.0,1.9813,1.993,1.9845,1.8794,1.8183,1.811,0.0,0.0,0.0,0.0,0.0,0.0,0.0,0.0,0.0,0.0,0.0,0.0,0.0,0.0,0.0,0.0,0.0,0.0,0.0,0.0,0.0,0.0,0.0,0.0,0.0,0.0,0.0,0.0,0.0,0.0,0.0,0.0,0.0,0.0,0.0,0.0,0.0,0.0,0.0,0.0,0.0,0.0,0.0,0.0,0.0,0.0,0.0,0.0,0.0,0.0,0.0,0.0,0.0,0.0,0.0,0.0,0.0,0.0,0.0,0.0,0.0,0.0,0.0,0.0,0.0,0.0,0.0,0.0,0.0,0.0,0.0,0.0,0.0,0.0,0.0,0.0,0.0,0.0,0.0,0.0,0.0,0.0,0.0,0.0,0.0,0.0,0.0,0.0,0.0,0.0,0.0,0.0,0.0,0.0,0.0,0.0,0.0,0.0,0.0,0.0,0.0,0.0,0.0,0.0,0.0,0.0,0.0,0.0,1.9425,1.8942,1.8935,1.9601,1.8879,1.8599,0.0,0.0,0.0,0.0,0.0,0.0,0.0,0.0,0.0,0.0,0.0,0.0,0.0,0.0,0.0,0.0,0.0,0.0,0.0,0.0,0.0,0.0,0.0,0.0,0.0,0.0,0.0,0.0,0.0,0.0,0.0,0.0,0.0,0.0,0.0,0.0,0.0,0.0,0.0,0.0,0.0,0.0,0.0,0.0,0.0,0.0,0.0,0.0,0.0,0.0,0.0,0.0,0.0,0.0,0.0,0.0,0.0,0.0,0.0,0.0,0.0,0.0,0.0,0.0,0.0,0.0,0.0,0.0,0.0,0.0,0.0,0.0,0.0,0.0,0.0,0.0,0.0,0.0,0.0,0.0,0.0,0.0,0.0,0.0,0.0,0.0,0.0,0.0,0.0,0.0,0.0,0.0,0.0,0.0,0.0,0.0,0.0,0.0,0.0,0.0,0.0,0.0,0.0,0.0,0.0,0.0,0.0,0.0,0.0,1.9515,1.9773,1.981,1.9617,1.9343,1.9118,0.0,0.0,0.0,0.0,0.0,0.0,0.0,0.0,0.0,0.0,0.0,0.0,0.0,0.0,0.0,0.0,0.0,0.0,0.0,0.0,0.0,0.0,0.0,0.0,0.0,0.0,0.0,0.0,0.0,0.0,0.0,0.0,0.0,0.0,0.0,0.0,0.0,0.0,0.0,0.0,0.0,0.0,0.0,0.0,0.0,0.0,0.0,0.0,0.0,0.0,0.0,0.0,0.0,0.0,0.0,0.0,0.0,0.0,0.0,0.0,0.0,0.0,0.0,0.0,0.0,0.0,0.0,0.0,0.0,0.0,0.0,0.0,0.0,0.0,0.0,0.0,0.0,0.0,0.0,0.0,0.0,0.0,0.0,0.0,0.0,0.0,0.0,0.0,0.0,0.0,0.0,0.0,0.0,0.0,0.0,0.0,0.0,0.0,0.0,0.0,0.0,0.0,0.0,0.0,0.0,0.0,0.0,0.0,0.0,2.0624,2.14,2.1516,2.1038,2.0558,2.009,0.0,0.0,0.0,0.0,0.0,0.0,0.0,0.0,0.0,0.0,0.0,0.0,0.0,0.0,0.0,0.0,0.0,0.0,0.0,0.0,0.0,0.0,0.0,0.0,0.0,0.0,0.0,0.0,0.0,0.0,0.0,0.0,0.0,0.0,0.0,0.0,0.0,0.0,0.0,0.0,0.0,0.0,0.0,0.0,0.0,0.0,0.0,0.0,0.0,0.0,0.0,0.0,0.0,0.0,0.0,0.0,0.0,0.0,0.0,0.0,0.0,0.0,0.0,0.0,0.0,0.0,0.0,0.0,0.0,0.0,0.0,0.0,0.0,0.0,0.0,0.0,0.0,0.0,0.0,0.0,0.0,0.0,0.0,0.0,0.0,0.0,0.0,0.0,0.0,0.0,0.0,0.0,0.0,0.0,0.0,0.0,0.0,0.0,0.0,0.0,0.0,0.0,0.0,0.0,0.0,0.0,0.0,0.0,2.0747,2.2816,2.3553,2.3827,2.3926,2.2526,2.158,0.0,0.0,0.0,0.0,0.0,0.0,0.0,0.0,0.0,0.0,0.0,0.0,0.0,0.0,0.0,0.0,0.0,0.0,0.0,0.0,0.0,0.0,0.0,0.0,0.0,0.0,0.0,0.0,0.0,0.0,0.0,0.0,0.0,0.0,0.0,0.0,0.0,0.0,0.0,0.0,0.0,0.0,0.0,0.0,0.0,0.0,0.0,0.0,0.0,0.0,0.0,0.0,0.0,0.0,0.0,0.0,0.0,0.0,0.0,0.0,0.0,0.0,0.0,0.0,0.0,0.0,0.0,0.0,0.0,0.0,0.0,0.0,0.0,0.0,0.0,0.0,0.0,0.0,0.0,0.0,0.0,0.0,0.0,0.0,0.0,0.0,0.0,0.0,0.0,0.0,0.0,0.0,0.0,0.0,0.0,0.0,0.0,0.0,0.0,0.0,0.0,0.0,0.0,0.0,0.0,0.0,0.0,0.0,0.0,2.3636,2.3884,2.3992,2.3984,2.3553,2.2848,0.0,0.0,0.0,0.0,0.0,0.0,0.0,0.0,0.0,0.0,0.0,0.0,0.0,0.0,0.0,0.0,0.0,0.0,0.0,0.0,0.0,0.0,0.0,0.0,0.0,0.0,0.0,0.0,0.0,0.0,0.0,0.0,0.0,0.0,0.0,0.0,0.0,0.0,0.0,0.0,0.0,0.0,0.0,0.0,0.0,0.0,0.0,0.0,0.0,0.0,0.0,0.0,0.0,0.0,0.0,0.0,0.0,0.0,0.0,0.0,0.0,0.0,0.0,0.0,0.0,0.0,0.0,0.0,0.0,0.0,0.0,0.0,0.0,0.0,0.0,0.0,0.0,0.0,0.0,0.0,0.0,0.0,0.0,0.0,0.0,0.0,0.0,0.0,0.0,0.0,0.0,0.0,0.0,0.0,0.0,0.0,0.0,0.0,0.0,0.0,0.0,0.0,0.0,0.0,0.0,0.0,0.0,0.0,0.0,2.4862,2.5086,2.5235,2.5235,2.4953,2.4231,2.3031,0.0,0.0,0.0,0.0,0.0,0.0,0.0,0.0,0.0,0.0,0.0,0.0,0.0,0.0,0.0,0.0,0.0,0.0,0.0,0.0,0.0,0.0,0.0,0.0,0.0,0.0,0.0,0.0,0.0,0.0,0.0,0.0,0.0,0.0,0.0,0.0,0.0,0.0,0.0,0.0,0.0,0.0,0.0,0.0,0.0,0.0,0.0,0.0,0.0,0.0,0.0,0.0,0.0,0.0,0.0,0.0,0.0,0.0,0.0,0.0,0.0,0.0,0.0,0.0,0.0,0.0,0.0,0.0,0.0,0.0,0.0,0.0,0.0,0.0,0.0,0.0,0.0,0.0,0.0,0.0,0.0,0.0,0.0,0.0,0.0,0.0,0.0,0.0,0.0,0.0,0.0,0.0,0.0,0.0,0.0,0.0,0.0,0.0,0.0,0.0,0.0,0.0,0.0,0.0,0.0,0.0,0.0,0.0,2.6327,2.6958,2.7275,2.7258,2.6551,2.5619,0.0,0.0,0.0,0.0,0.0,0.0,0.0,0.0,0.0,0.0,0.0,0.0,0.0,0.0,0.0,0.0,0.0,0.0,0.0,0.0,0.0,0.0,0.0,0.0,0.0,0.0,0.0,0.0,0.0,0.0,0.0,0.0,0.0,0.0,0.0,0.0,0.0,0.0,0.0,0.0,0.0,0.0,0.0,0.0,0.0,0.0,0.0,0.0,0.0,0.0,0.0,0.0,0.0,0.0,0.0,0.0,0.0,0.0,0.0,0.0,0.0,0.0,0.0,0.0,0.0,0.0,0.0,0.0,0.0,0.0,0.0,0.0,0.0,0.0,0.0,0.0,0.0,0.0,0.0,0.0,0.0,0.0,0.0,0.0,0.0,0.0,0.0,0.0,0.0,0.0,0.0,0.0,0.0,0.0,0.0,0.0,0.0,0.0,0.0,0.0,0.0,0.0,0.0,0.0,0.0,0.0,0.0,0.0,0.0,2.7763,2.7481,2.7308,2.7275,2.6584,2.603,0.0,0.0,0.0,0.0,0.0,0.0,0.0,0.0,0.0,0.0,0.0,0.0,0.0,0.0,0.0,0.0,0.0,0.0,0.0,0.0,0.0,0.0,0.0,0.0,0.0,0.0,0.0,0.0,0.0,0.0,0.0,0.0,0.0,0.0,0.0,0.0,0.0,0.0,0.0,0.0,0.0,0.0,0.0,0.0,0.0,0.0,0.0,0.0,0.0,0.0,0.0,0.0,0.0,0.0,0.0,0.0,0.0,0.0,0.0,0.0,0.0,0.0,0.0,0.0,0.0,0.0,0.0,0.0,0.0,0.0,0.0,0.0,0.0,0.0,0.0,0.0,0.0,0.0,0.0,0.0,0.0,0.0,0.0,0.0,0.0,0.0,0.0,0.0,0.0,0.0,0.0,0.0,0.0,0.0,0.0,0.0,0.0,0.0,0.0,0.0,0.0,0.0,0.0,0.0,0.0,0.0,0.0,0.0,2.7389,2.7938,2.8101,2.8051,2.7772,2.7066,2.6518,0.0,0.0,0.0,0.0,0.0,0.0,0.0,0.0,0.0,0.0,0.0,0.0,0.0,0.0,0.0,0.0,0.0,0.0,0.0,0.0,0.0,0.0,0.0,0.0,0.0,0.0,0.0,0.0,0.0,0.0,0.0,0.0,0.0,0.0,0.0,0.0,0.0,0.0,0.0,0.0,0.0,0.0,0.0,0.0,0.0,0.0,0.0,0.0,0.0,0.0,0.0,0.0,0.0,0.0,0.0,0.0,0.0,0.0,0.0,0.0,0.0,0.0,0.0,0.0,0.0,0.0,0.0,0.0,0.0,0.0,0.0,0.0,0.0,0.0,0.0,0.0,0.0,0.0,0.0,0.0,0.0,0.0,0.0,0.0,0.0,0.0,0.0,0.0,0.0,0.0,0.0,0.0,0.0,0.0,0.0,0.0,0.0,0.0,0.0,0.0,0.0,0.0,0.0,0.0,0.0,0.0,0.0,0.0,2.8004,2.744,2.8648,2.9036,2.8525,2.7729,2.6984,0.0,0.0,0.0,0.0,0.0,0.0,0.0,0.0,0.0,0.0,0.0,0.0,0.0,0.0,0.0,0.0,0.0,0.0,0.0,0.0,0.0,0.0,0.0,0.0,0.0,0.0,0.0,0.0,0.0,0.0,0.0,0.0,0.0,0.0,0.0,0.0,0.0,0.0,0.0,0.0,0.0,0.0,0.0,0.0,0.0,0.0,0.0,0.0,0.0,0.0,0.0,0.0,0.0,0.0,0.0,0.0,0.0,0.0,0.0,0.0,0.0,0.0,0.0,0.0,0.0,0.0,0.0,0.0,0.0,0.0,0.0,0.0,0.0,0.0,0.0,0.0,0.0,0.0,0.0,0.0,0.0,0.0,0.0,0.0,0.0,0.0,0.0,0.0,0.0,0.0,0.0,0.0,0.0,0.0,0.0,0.0,0.0,0.0,0.0,0.0,0.0,0.0,0.0,0.0,0.0,0.0,0.0,0.0,2.7739,2.816,2.8459,2.8814,2.9175,2.7952,2.7216,0.0,0.0,0.0,0.0,0.0,0.0,0.0,0.0,0.0,0.0,0.0,0.0,0.0,0.0,0.0,0.0,0.0,0.0,0.0,0.0,0.0,0.0,0.0,0.0,0.0,0.0,0.0,0.0,0.0,0.0,0.0,0.0,0.0,0.0,0.0,0.0,0.0,0.0,0.0,0.0,0.0,0.0,0.0,0.0,0.0,0.0,0.0,0.0,2.594,0.0,0.0,0.0,0.0,0.0,0.0,0.0,0.0,0.0,0.0,0.0,0.0,0.0,0.0,0.0,0.0,0.0,0.0,0.0,0.0,0.0,0.0,0.0,0.0,0.0,0.0,0.0,0.0,0.0,0.0,0.0,0.0,0.0,0.0,0.0,0.0,0.0,0.0,0.0,0.0,0.0,0.0,0.0,0.0,0.0,0.0,0.0,0.0,0.0,0.0,0.0,0.0,0.0,0.0,0.0,0.0,0.0,0.0,0.0,2.8316,2.935,2.9383,2.9556,2.987,2.8548,2.7656,0.0,0.0,0.0,0.0,0.0,0.0,0.0,0.0,0.0,0.0,0.0,0.0,0.0,0.0,0.0,0.0,0.0,0.0,0.0,0.0,0.0,0.0,0.0,0.0,0.0,0.0,0.0,0.0,0.0,0.0,0.0,0.0,0.0,0.0,0.0,0.0,0.0,0.0,0.0,0.0,0.0,0.0,0.0,0.0,0.0,0.0,0.0,0.0,0.0,0.0,0.0,0.0,0.0,0.0,0.0,0.0,0.0,0.0,0.0,0.0,0.0,0.0,0.0,0.0,0.0,0.0,0.0,0.0,0.0,0.0,0.0,0.0,0.0,0.0,0.0,0.0,0.0,0.0,0.0,0.0,0.0,0.0,0.0,0.0,0.0,0.0,0.0,0.0,0.0,0.0,0.0,0.0,0.0,0.0,0.0,0.0,0.0,0.0,0.0,0.0,0.0,0.0,0.0,0.0,0.0,0.0,0.0,2.8127,2.9178,3.0439,3.0715,3.0781,3.0654,2.9284,2.821,2.749,0.0,0.0,0.0,0.0,0.0,0.0,0.0,0.0,0.0,0.0,0.0,0.0,0.0,0.0,0.0,0.0,0.0,0.0,0.0,0.0,0.0,0.0,0.0,0.0,0.0,0.0,0.0,0.0,0.0,0.0,0.0,0.0,0.0,0.0,0.0,0.0,0.0,0.0,2.3131,2.4693,0.0,0.0,0.0,0.0,0.0,0.0,0.0,0.0,2.8388,0.0,0.0,0.0,0.0,0.0,0.0,0.0,0.0,0.0,0.0,0.0,0.0,0.0,0.0,0.0,0.0,0.0,0.0,0.0,0.0,0.0,0.0,0.0,0.0,0.0,0.0,0.0,0.0,0.0,0.0,0.0,0.0,0.0,0.0,0.0,0.0,0.0,0.0,0.0,0.0,0.0,0.0,0.0,0.0,0.0,0.0,0.0,0.0,0.0,0.0,0.0,0.0,0.0,0.0,0.0,0.0,2.7291,2.8572,2.9638,3.0506,3.1702,3.205,3.1416,3.0003,2.892,2.821,0.0,0.0,0.0,0.0,0.0,0.0,0.0,0.0,0.0,0.0,0.0,0.0,0.0,0.0,0.0,0.0,0.0,0.0,0.0,0.0,0.0,0.0,0.0,0.0,0.0,0.0,0.0,0.0,0.0,0.0,0.0,0.0,0.0,0.0,0.0,0.0,0.0,0.0,0.0,2.6797,2.7302,0.0,0.0,0.0,0.0,0.0,0.0,0.0,0.0,2.8277,0.0,0.0,0.0,0.0,0.0,0.0,0.0,0.0,0.0,0.0,0.0,0.0,0.0,0.0,0.0,0.0,0.0,0.0,0.0,0.0,0.0,0.0,0.0,0.0,0.0,0.0,0.0,0.0,0.0,0.0,0.0,0.0,0.0,0.0,0.0,0.0,0.0,0.0,0.0,0.0,0.0,0.0,0.0,0.0,0.0,0.0,0.0,0.0,0.0,0.0,0.0,0.0,0.0,0.0,0.0,2.8357,2.9423,3.0698,3.215,3.2542,3.2724,3.2696,3.0651,2.9317,0.0,0.0,0.0,0.0,0.0,0.0,0.0,0.0,0.0,0.0,0.0,0.0,0.0,0.0,0.0,0.0,0.0,0.0,0.0,0.0,0.0,0.0,0.0,0.0,0.0,0.0,0.0,0.0,0.0,0.0,0.0,0.0,0.0,0.0,0.0,0.0,0.0,0.0,0.0,0.0,2.734,2.7597,2.8309,0.0,0.0,0.0,0.0,0.0,0.0,2.8432,2.8484,0.0,0.0,0.0,0.0,0.0,0.0,0.0,0.0,0.0,0.0,0.0,0.0,0.0,0.0,0.0,0.0,0.0,0.0,0.0,0.0,0.0,0.0,0.0,0.0,0.0,0.0,0.0,0.0,0.0,0.0,0.0,0.0,0.0,0.0,0.0,0.0,0.0,0.0,0.0,0.0,0.0,0.0,0.0,0.0,0.0,0.0,0.0,0.0,0.0,0.0,0.0,0.0,0.0,0.0,0.0,2.9413,3.0315,3.1911,3.4169,3.3615,3.3582,3.423,3.1559,2.9879,0.0,0.0,0.0,0.0,0.0,0.0,0.0,0.0,0.0,0.0,0.0,0.0,0.0,0.0,0.0,0.0,0.0,0.0,0.0,0.0,0.0,0.0,0.0,0.0,0.0,0.0,0.0,0.0,0.0,0.0,0.0,0.0,0.0,0.0,0.0,0.0,0.0,0.0,0.0,0.0,0.0,2.7679,2.8492,2.9197,0.0,0.0,0.0,0.0,2.8772,2.8756,0.0,0.0,0.0,0.0,0.0,0.0,0.0,0.0,0.0,0.0,0.0,0.0,0.0,0.0,0.0,0.0,0.0,0.0,0.0,0.0,0.0,0.0,0.0,0.0,0.0,0.0,0.0,0.0,0.0,0.0,0.0,0.0,0.0,0.0,0.0,0.0,0.0,0.0,0.0,0.0,0.0,0.0,0.0,0.0,0.0,0.0,0.0,0.0,0.0,0.0,0.0,0.0,0.0,0.0,0.0,0.0,2.9566,3.0964,3.3084,3.5887,3.5357,3.534,3.6049,3.3271,3.1028,0.0,0.0,0.0,0.0,0.0,0.0,0.0,0.0,0.0,0.0,0.0,0.0,0.0,0.0,0.0,0.0,0.0,0.0,0.0,0.0,0.0,0.0,0.0,0.0,0.0,0.0,0.0,0.0,0.0,0.0,0.0,0.0,0.0,0.0,0.0,0.0,0.0,0.0,0.0,0.0,0.0,2.7777,2.8799,2.9378,2.9891,0.0,0.0,0.0,2.967,2.955,0.0,0.0,0.0,0.0,0.0,0.0,0.0,0.0,0.0,0.0,0.0,0.0,0.0,0.0,0.0,0.0,0.0,0.0,0.0,0.0,0.0,0.0,0.0,0.0,0.0,0.0,0.0,0.0,0.0,0.0,0.0,0.0,0.0,0.0,0.0,0.0,0.0,0.0,0.0,0.0,0.0,0.0,0.0,0.0,0.0,0.0,0.0,0.0,0.0,0.0,0.0,0.0,0.0,0.0,0.0,2.8901,2.9536,3.19,3.3985,3.5582,3.5435,3.5654,3.6382,3.3599,3.1484,0.0,0.0,0.0,0.0,0.0,0.0,0.0,0.0,0.0,0.0,0.0,0.0,0.0,0.0,0.0,0.0,0.0,0.0,0.0,0.0,0.0,0.0,0.0,0.0,0.0,0.0,0.0,0.0,0.0,0.0,0.0,0.0,0.0,0.0,0.0,0.0,0.0,0.0,0.0,0.0,0.0,0.0,2.9923,3.0635,0.0,0.0,0.0,3.1307,3.0513,0.0,0.0,0.0,0.0,0.0,0.0,0.0,0.0,0.0,0.0,0.0,0.0,0.0,0.0,0.0,0.0,0.0,0.0,0.0,0.0,0.0,0.0,0.0,0.0,0.0,0.0,0.0,0.0,0.0,0.0,0.0,0.0,0.0,0.0,0.0,0.0,0.0,0.0,0.0,0.0,0.0,0.0,0.0,0.0,0.0,0.0,0.0,0.0,0.0,0.0,0.0,0.0,0.0,0.0,0.0,0.0,0.0,2.9829,3.3049,3.5185,3.6042,3.6367,3.67,3.6997,3.4605,0.0,0.0,0.0,0.0,0.0,0.0,0.0,0.0,0.0,0.0,0.0,0.0,0.0,0.0,0.0,0.0,0.0,0.0,0.0,0.0,0.0,0.0,0.0,0.0,0.0,0.0,0.0,2.0078,0.0,0.0,0.0,0.0,0.0,0.0,0.0,0.0,0.0,0.0,0.0,0.0,0.0,0.0,2.987,3.12,3.1964,3.2347,0.0,0.0,3.2907,3.1697,3.1753,3.1499,0.0,0.0,0.0,0.0,0.0,0.0,0.0,0.0,0.0,0.0,0.0,0.0,0.0,0.0,0.0,0.0,0.0,0.0,0.0,0.0,0.0,0.0,0.0,0.0,0.0,0.0,0.0,0.0,0.0,0.0,0.0,0.0,0.0,0.0,0.0,0.0,0.0,0.0,0.0,0.0,0.0,0.0,0.0,0.0,0.0,0.0,0.0,0.0,0.0,0.0,0.0,0.0,0.0,0.0,0.0,3.0888,3.4393,3.7031,3.8664,3.9415,3.9478,3.8811,3.7313,3.5087,0.0,0.0,0.0,0.0,0.0,0.0,0.0,0.0,0.0,0.0,0.0,0.0,0.0,0.0,0.0,0.0,0.0,0.0,0.0,0.0,0.0,0.0,0.0,0.0,0.0,0.0,0.0,0.0,0.0,0.0,0.0,0.0,0.0,0.0,0.0,0.0,0.0,0.0,0.0,0.0,0.0,3.0823,3.2468,3.3032,3.3838,0.0,0.0,3.5874,3.3585,3.3856,3.3567,3.1288,0.0,0.0,0.0,0.0,0.0,0.0,0.0,0.0,0.0,0.0,0.0,0.0,0.0,0.0,0.0,0.0,0.0,0.0,0.0,0.0,0.0,0.0,0.0,0.0,0.0,0.0,0.0,0.0,0.0,0.0,0.0,0.0,0.0,0.0,0.0,0.0,0.0,0.0,0.0,0.0,0.0,0.0,0.0,0.0,0.0,0.0,0.0,0.0,0.0,0.0,0.0,0.0,0.0,3.0713,3.1468,3.4886,3.7364,3.8805,3.8794,3.9039,3.9681,3.8087,3.5961,0.0,0.0,0.0,0.0,0.0,0.0,0.0,0.0,0.0,0.0,0.0,0.0,0.0,0.0,0.0,0.0,0.0,0.0,0.0,0.0,0.0,0.0,0.0,0.0,0.0,0.0,0.0,0.0,2.2716,2.3156,2.3139,0.0,0.0,0.0,0.0,0.0,0.0,0.0,0.0,0.0,0.0,3.2729,3.4367,3.5174,0.0,0.0,3.6796,3.6687,3.5755,3.5457,3.4689,3.2795,3.2469,0.0,0.0,0.0,0.0,0.0,0.0,0.0,0.0,0.0,0.0,0.0,0.0,0.0,0.0,0.0,0.0,0.0,0.0,0.0,0.0,0.0,0.0,0.0,0.0,0.0,0.0,0.0,0.0,0.0,0.0,0.0,0.0,0.0,0.0,0.0,0.0,0.0,0.0,0.0,0.0,0.0,0.0,0.0,0.0,0.0,0.0,0.0,0.0,0.0,0.0,0.0,0.0,3.1734,3.2203,3.5851,3.8188,3.9168,3.9412,3.972,4.0054,3.9129,3.7369,0.0,0.0,0.0,0.0,0.0,0.0,0.0,0.0,0.0,0.0,0.0,0.0,0.0,0.0,0.0,0.0,0.0,0.0,0.0,0.0,0.0,0.0,0.0,0.0,0.0,0.0,0.0,0.0,2.3989,2.4495,2.4487,0.0,0.0,0.0,0.0,0.0,0.0,0.0,0.0,0.0,0.0,3.5118,3.6298,3.737,3.8029,3.8037,3.8255,3.8237,3.7792,3.725,3.6345,3.4733,0.0,0.0,0.0,0.0,0.0,0.0,0.0,0.0,0.0,0.0,0.0,0.0,0.0,0.0,0.0,0.0,0.0,0.0,0.0,0.0,0.0,0.0,0.0,0.0,0.0,0.0,0.0,0.0,0.0,0.0,0.0,0.0,0.0,0.0,0.0,0.0,0.0,0.0,0.0,0.0,0.0,0.0,0.0,0.0,0.0,0.0,0.0,0.0,0.0,0.0,0.0,0.0,0.0,0.0,3.3136,3.7508,3.988,4.0147,4.2172,4.2202,4.0282,4.0773,3.9736,3.6808,0.0,0.0,0.0,0.0,0.0,0.0,0.0,0.0,0.0,0.0,0.0,0.0,0.0,0.0,0.0,0.0,0.0,0.0,0.0,0.0,0.0,0.0,0.0,0.0,0.0,0.0,2.4025,2.5007,2.5669,0.0,0.0,0.0,0.0,0.0,0.0,0.0,0.0,0.0,0.0,3.5969,3.7945,3.8129,3.946,4.0374,4.0383,4.1035,4.1062,3.9568,3.9323,3.878,0.0,0.0,0.0,0.0,0.0,0.0,0.0,0.0,0.0,0.0,0.0,0.0,0.0,0.0,0.0,0.0,0.0,0.0,0.0,0.0,0.0,0.0,0.0,0.0,0.0,0.0,0.0,2.5848,2.5839,0.0,0.0,0.0,0.0,0.0,0.0,0.0,0.0,0.0,0.0,0.0,3.2813,3.2261,0.0,0.0,0.0,0.0,0.0,0.0,0.0,0.0,0.0,0.0,0.0,0.0,3.3784,3.5371,3.8411,4.0544,4.1542,4.2286,4.2557,4.2286,4.1891,4.0426,3.7819,0.0,0.0,0.0,0.0,0.0,0.0,0.0,0.0,0.0,0.0,0.0,0.0,0.0,0.0,0.0,0.0,0.0,0.0,0.0,0.0,0.0,0.0,0.0,0.0,0.0,2.5104,0.0,0.0,0.0,0.0,0.0,0.0,0.0,0.0,0.0,0.0,0.0,3.3837,3.6252,3.7453,3.851,3.9578,4.0628,4.1288,0.0,0.0,0.0,0.0,0.0,0.0,0.0,0.0,0.0,0.0,0.0,0.0,0.0,0.0,3.6508,3.3875,3.3375,3.3556,3.4092,0.0,0.0,0.0,0.0,0.0,0.0,0.0,0.0,0.0,0.0,0.0,0.0,0.0,0.0,0.0,0.0,2.9102,0.0,0.0,0.0,0.0,0.0,0.0,0.0,0.0,3.503,3.5896,3.61,3.5548,3.4889,0.0,3.383,3.2629,0.0,0.0,0.0,0.0,0.0,0.0,0.0,0.0,3.5529,3.7259,3.9615,4.1461,4.2625,4.2692,4.2929,4.3355,4.227,4.0956,3.9501,3.697,3.51,0.0,0.0,0.0,0.0,0.0,0.0,0.0,0.0,0.0,0.0,0.0,0.0,0.0,0.0,0.0,0.0,0.0,0.0,0.0,0.0,0.0,0.0,0.0,2.7206,0.0,0.0,0.0,0.0,0.0,0.0,0.0,0.0,0.0,3.388,3.4333,3.566,3.8257,3.9812,4.0818,4.127,0.0,0.0,0.0,0.0,0.0,0.0,0.0,4.108,4.0329,4.0446,4.0691,4.0926,4.1171,4.1443,4.1769,0.0,0.0,3.6888,3.6272,3.6327,3.658,3.6641,3.6665,3.6665,3.8211,3.9552,0.0,0.0,0.0,0.0,0.0,0.0,0.0,0.0,3.2264,3.2326,0.0,3.1785,0.0,0.0,0.0,0.0,0.0,0.0,0.0,0.0,4.058,4.1713,4.0646,4.0519,3.9727,3.8242,3.7451,3.6988,3.6641,3.456,0.0,0.0,0.0,0.0,0.0,0.0,3.8103,3.8899,4.1135,4.2675,4.3355,4.3423,4.3423,4.3389,4.2036,4.1465,4.1692,3.914,3.7474,3.697,3.388,0.0,0.0,0.0,0.0,0.0,0.0,0.0,0.0,0.0,0.0,0.0,0.0,0.0,0.0,0.0,0.0,0.0,0.0,0.0,0.0,2.88,0.0,0.0,0.0,0.0,0.0,0.0,0.0,0.0,0.0,0.0,3.6122,3.7333,3.8581,3.9414,0.0,0.0,0.0,0.0,4.7019,4.5472,4.4649,4.4187,4.4187,4.3571,4.2829,4.2067,0.0,0.0,4.4097,4.3608,4.3428,4.4259,4.3823,4.2487,4.0137,3.9612,3.9367,3.8725,3.8736,3.8613,3.8712,4.0755,4.2375,3.5683,0.0,0.0,0.0,0.0,3.5295,3.6122,3.7074,3.7574,3.7777,3.7798,3.8002,0.0,0.0,0.0,0.0,0.0,0.0,4.0385,4.0948,4.2606,4.3474,4.3605,4.2601,4.1885,4.1446,4.1235,4.1082,4.1052,4.1458,3.9439,3.514,0.0,0.0,0.0,0.0,3.9101,4.0398,4.2152,4.3186,4.3389,4.3961,4.3978,4.3409,4.3,4.2659,4.2364,4.1561,4.0506,3.9139,3.7163,0.0,0.0,0.0,0.0,0.0,0.0,0.0,0.0,0.0,0.0,0.0,0.0,0.0,0.0,0.0,0.0,0.0,0.0,0.0,2.9808,3.1914,3.2969,0.0,0.0,0.0,0.0,0.0,0.0,0.0,0.0,0.0,4.0646,4.0256,4.0347,0.0,0.0,4.4504,4.4603,4.5399,4.5864,4.5509,0.0,0.0,0.0,4.6357,4.6521,4.6302,4.6885,4.7294,4.6946,4.7165,4.7292,4.7004,4.6759,4.6166,4.4944,4.3724,4.3123,4.3406,4.3943,4.4144,4.3761,4.502,4.6096,3.9746,3.8096,3.7549,3.7711,3.84,3.8942,3.9994,4.1389,4.1855,4.2072,4.2147,4.2489,4.2114,4.1237,4.1237,0.0,0.0,0.0,4.4205,4.4793,4.5819,4.6361,4.641,4.5624,4.4952,4.4458,4.4134,4.4203,4.4607,4.4697,4.316,4.0028,0.0,0.0,3.9816,4.066,4.1551,4.2446,4.3683,4.4167,4.3893,4.4347,4.4364,4.3893,4.3575,4.3469,4.3645,4.297,4.2348,4.1782,3.9752,3.7551,0.0,0.0,0.0,0.0,0.0,0.0,0.0,0.0,0.0,0.0,0.0,2.574,0.0,0.0,0.0,0.0,3.1084,3.1862,3.3312,3.4713,0.0,0.0,0.0,0.0,0.0,0.0,0.0,3.8744,3.9985,4.1424,4.3127,4.3099,4.3126,4.3769,4.4877,4.5669,4.5822,0.0,4.6775,4.6526,4.6637,4.6748,4.6788,4.7246,4.7693,4.8032,4.8121,4.8385,4.8502,4.8648,4.8677,4.8563,4.8299,4.7944,4.748,4.6585,4.5917,4.6051,4.6235,4.63,4.6154,4.7196,4.7975,4.338,4.3276,4.0899,4.0836,4.2277,4.2417,4.3477,4.5054,4.5275,4.542,4.5536,4.5631,4.54,4.4943,4.4925,0.0,0.0,4.7208,4.8113,4.8423,4.9622,4.976,4.9028,4.8989,4.838,4.7241,4.6489,4.6656,4.747,4.5713,4.5074,4.5663,4.5086,4.4306,4.3394,4.4071,4.4533,4.4584,4.5261,4.5292,4.4671,4.4668,4.4682,4.4703,4.3997,4.4135,4.5152,4.3795,4.344,4.4328,4.1896,4.0173,3.9515,0.0,0.0,0.0,0.0,0.0,0.0,0.0,0.0,0.0,0.0,0.0,0.0,0.0,0.0,0.0,3.513,0.0,3.7107,3.7303,0.0,0.0,0.0,3.878,3.9595,3.9731,4.0311,4.1732,0.0,0.0,0.0,0.0,4.625,4.559,4.6886,4.7647,4.6894,4.804,4.8841,4.8012,4.7455,4.7053,4.7211,4.7302,4.7649,4.8261,4.7611,4.7839,4.889,4.8689,4.8565,4.9055,4.8691,4.8208,4.8268,4.8158,4.8028,4.7205,4.6631,4.6395,4.7,4.7817,4.8415,4.565,4.666,4.558,4.4971,4.4847,4.6211,4.7046,4.7509,4.8039,4.8297,4.8354,4.8778,4.8887,4.876,4.8789,4.8824,4.8933,4.9965,5.0228,4.9936,5.0653,5.0664,5.0062,4.9893,4.9665,4.936,4.9179,4.9214,4.9462,4.9575,4.9162,4.8338,4.8716,4.7093,4.3535,4.3578,4.3995,4.4584,4.477,4.4959,4.5125,4.5138,4.5337,4.5729,4.5567,4.5309,4.5019,4.5576,4.5454,4.4538,4.4209,4.3168,4.1243,3.8579,0.0,0.0,0.0,0.0,0.0,0.0,0.0,0.0,0.0,3.0116,3.117,0.0,3.3419,0.0,3.8651,3.9797,3.8934,3.9885,0.0,0.0,4.0863,4.1189,4.1986,4.262,4.3127,4.348,4.424,4.5037,4.5816,4.6258,4.6706,4.7205,4.7635,4.7832,4.7723,4.7982,4.8259,4.8193,4.8459,4.8789,4.8795,4.9448,4.9805,5.0098,4.9933,4.9796,4.955,4.9366,4.9091,4.868,4.8433,4.8295,4.8351,4.8315,4.8507,4.8808,4.8809,4.8516,4.813,4.8682,4.9105,4.7899,4.87,4.8756,4.8485,4.8118,4.8804,4.947,5.0114,5.048,5.0677,5.0729,5.1038,5.1169,5.1169,5.1169,5.1187,5.1224,5.2021,5.2184,5.1916,5.2569,5.2707,5.2401,5.2298,5.2226,5.2226,5.1864,5.1864,5.2215,5.2059,5.1592,5.0846,5.1018,4.964,4.6836,4.5995,4.5558,4.5449,4.5077,4.5052,4.5276,4.529,4.5446,4.5742,4.5992,4.5893,4.546,4.6028,4.623,4.5936,4.5539,4.4693,4.3343,4.1071,3.9197,0.0,0.0,0.0,0.0,0.0,0.0,0.0,0.0,0.0,0.0,0.0,3.6645,0.0,4.1242,0.0,4.1062,4.2049,4.2774,4.2764,4.3072,4.3625,4.4413,4.4584,4.491,4.5635,4.5798,4.6132,4.691,4.7019,4.7254,4.7862,4.7937,4.7978,4.807,4.8111,4.8161,4.8264,4.8622,4.8907,4.8975,4.937,4.9682,4.9673,4.9673,4.9646,4.9601,4.9582,4.9527,4.9426,4.9397,4.9416,4.9426,4.9407,4.9609,4.9949,5.0133,4.9958,4.9536,4.9774,4.9968,4.9842,5.0105,5.0928,5.1347,5.1391,5.0919,5.135,5.2323,5.2323,5.2448,5.2661,5.2643,5.2697,5.2806,5.2806,5.2806,5.286,5.353,5.3856,5.3892,5.4581,5.4907,5.4907,5.4907,5.4907,5.487,5.4182,5.4218,5.4828,5.3645,5.3062,5.2967,5.2462,5.182,5.0969,4.9629,4.8216,4.6773,4.5912,4.5524,4.5667,4.5498,4.5455,4.561,4.6049,4.6274,4.6208,4.6049,4.6474,4.7474,4.6318,4.5653,4.5707,4.3569,4.2049,0.0,3.9315,0.0,0.0,0.0,0.0,0.0,0.0,0.0,0.0,3.9391,4.0365,4.1773,4.3495,4.4232,4.3435,4.3987,4.4413,4.4421,4.5047,4.5761,4.6522,4.6033,4.6142,4.7544,4.7102,4.6949,4.7583,4.772,4.7806,4.8,4.8022,4.8062,4.8197,4.8257,4.8287,4.8315,4.8416,4.8663,4.8655,4.8682,4.8802,4.8718,4.8865,4.8875,4.9674,4.9784,4.9968,5.0563,5.0692,5.0729,5.0802,5.0765,5.0765,5.0747,5.0839,5.0894,5.0729,5.0692,5.082,5.0628,5.1836,5.2109,5.2608,5.3241,5.3755,5.3406,5.2463,5.2463,5.2837,5.3458,5.3476,5.3856,5.4424,5.4454,5.4436,5.4472,5.4605,5.4689,5.4677,5.4822,5.4907,5.4907,5.4907,5.4907,5.4888,5.4731,5.4731,5.4907,5.4616,5.4182,5.3562,5.3429,5.2765,5.1624,0.0,0.0,0.0,4.6894,4.669,4.7488,4.6523,4.637,4.7196,4.7352,0.0,4.6787,4.7114,4.7234,4.7049,4.7162,0.0,0.0,0.0,0.0,0.0,0.0,0.0,0.0,0.0,0.0,0.0,4.4277,4.3806,4.224,4.3884,4.5182,4.5489,4.6437,4.6703,4.5888,4.5943,4.6051,4.6069,4.6196,4.6584,4.7345,4.7337,4.7399,4.7645,4.7671,4.7697,4.7889,4.7907,4.8018,4.8211,4.8168,4.8189,4.8313,4.836,4.8333,4.8351,4.893,4.9325,4.9344,4.9848,5.016,5.0325,5.0343,5.038,5.0508,5.0563,5.0582,5.0875,5.082,5.0857,5.0857,5.082,5.0912,5.082,5.1316,5.1583,5.0949,5.082,5.082,5.2839,0.0,5.3651,5.3911,0.0,5.4713,5.4436,5.3693,5.3693,5.3911,5.4291,5.4309,5.4514,5.4907,5.4907,5.4907,5.4913,5.5269,5.545,5.5468,5.5866,5.6047,5.6029,5.6029,5.6029,5.6029,5.6029,5.6029,5.6047,5.6047,5.583,5.5432,5.5432,5.5086,5.443,5.4291,5.2852,5.0113,4.9408,4.9134,4.9246,4.8632,4.8354,4.8488,0.0,0.0,0.0,0.0,0.0,0.0,0.0,0.0,0.0,0.0,0.0,4.7671,4.6946,4.6667,4.7037,4.7073,4.7265,4.7645,4.8405,4.8025,4.6015,4.7355,4.8289,4.8279,4.8641,4.8731,4.8333,4.8279,4.83,4.8353,4.8321,4.8484,4.8935,4.8994,4.9001,4.9018,4.9099,4.9131,4.9131,4.879,4.8853,4.9247,4.9029,4.8977,4.9378,4.9187,4.9068,4.9444,4.9866,5.017,5.0225,5.05,5.082,5.0802,5.082,5.0967,5.1334,5.1371,5.1499,5.1856,5.1985,5.1985,5.1985,5.1985,5.1995,5.2021,5.2297,5.2491,5.2058,5.1985,5.1995,5.4907,5.4925,5.5051,5.5088,5.5094,5.5233,5.5305,5.5287,0.0,0.0,0.0,5.5088,5.5166,5.5305,5.5293,5.5323,5.5359,5.5921,5.6205,5.6241,5.688,5.7188,5.7188,5.7188,5.7188,5.7188,5.7188,5.7188,5.7188,5.7188,5.7188,5.7188,5.7188,5.7188,5.7152,5.6549,5.5042,5.2768,5.2155,5.1654,5.1071,5.0837,5.0461,4.9871,5.0164,5.0103,4.9692,4.9947,5.0101,5.0101,5.0101,4.9872,4.9354,4.9336,4.9083,4.8605,4.855,4.8829,4.9481,4.9535,4.9818,5.0481,5.1133,5.0886,4.9409,5.0053,5.0517,5.0517,5.039,5.0318,5.0318,5.0155,5.0145,5.029,5.0206,5.0185,5.0349,5.0343,5.0267,5.0399,5.0347,5.0422,5.0349,4.9849,4.9744,5.0356,5.0011,4.9958,5.0672,5.0298,5.0004,5.0527,5.082,5.1004,5.1041,5.1224,5.1206,5.1371,5.1316,5.1481,5.2005,5.2207,5.2491,5.2957,5.3196,5.3141,5.3159,5.3086,5.3196,5.3196,5.3196,5.3196,5.3196,5.3196,5.3122,5.4925,5.4949,5.5577,5.5861,5.5884,5.6591,5.6893,5.6772,5.5456,5.5251,5.5848,5.5861,5.6241,5.6862,5.688,5.6862,5.688,5.6984,5.7043,0.0,5.7134,5.7188,5.7188,5.7188,5.7188,5.7188,5.7206,5.7188,5.7206,5.7224,5.7188,5.7206,5.7188,5.7206,5.7188,5.7062,5.6819,5.64,5.3991,5.2908,5.3225,5.2131,5.1706,5.2002,5.1468,5.111,5.1024,5.0466,5.0101,5.0101,5.0101,5.0354,5.0934,5.0977,5.1242,5.1756,5.181,5.1882,5.1973,5.2009,5.2045,5.2154,5.2263,5.193,5.1097,5.1683,5.2172,5.2118,5.1513,5.1133,5.1097,5.0535,5.0264,5.0344,5.0326,5.0326,5.0537,5.0537,5.0581,5.0667,5.0493,5.0691,5.0848,5.069,5.0705,5.0798,5.1,5.0965,5.1489,5.1151,5.0729,5.0875,5.1389,5.1767,5.1885,5.2435,5.2664,5.2847,5.2755,5.2719,5.2884,5.2949,5.2994,5.3177,5.3217,5.3227,5.3217,5.3196,5.3269,5.3282,5.3282,5.328,5.3356,5.3372,5.3319,5.6156,5.6192,5.65,5.6645,5.6694,5.7043,5.7188,5.7134,5.6464,5.6319,5.6627,5.6657,5.6844,5.717,5.7188,5.7188,5.7188,5.7188,5.7424,5.7822,5.7858,5.8076,5.8474,5.851,5.851,5.851,5.851,5.851,5.851,5.8492,5.8531,5.8584,5.8247,5.8085,5.8036,5.7649,5.7431,5.7382,5.6052,5.5218,5.4943,5.4423,5.4068,5.3878,5.3439,5.3276,5.3316,5.2913,5.2709,5.2697,5.2715,5.2878,5.3204,5.3241,5.3422,5.3784,5.382,5.3802,5.3802,5.3802,5.3802,5.3802,5.3843,5.371,5.3307,5.277,5.2498,5.2498,5.2136,5.1966,5.1948,5.1661,5.1514,5.165,5.1672,5.1901,5.2447,5.2509,5.2652,5.3112,5.3275,5.3308,5.3308,5.2606,5.2527,5.3115,5.3059,5.2784,5.2645,5.2333,5.2095,5.2131,5.2435,5.2601,5.2656,5.292,5.3177,5.3196,5.3196,5.3196,5.3196,5.3196,5.3196,5.3217,5.3336,5.3452,5.3501,5.3661,5.3766,5.3804,5.3795,5.3916,5.4288,5.4625,5.4447,5.7188,5.7188,5.7188,5.7188,5.7224,5.7406,5.746,5.7496,5.7641,5.7732,5.7695,5.7369,5.7297,5.746,5.7478,5.7569,5.7713,5.7732,5.8076,5.8637,5.8655,5.8999,5.9547,5.9602,5.9602,5.9602,5.9602,5.9602,5.9602,5.9602,5.9649,5.9693,5.9237,5.8991,5.901,5.8409,5.8105,5.8112,5.7874,5.7303,5.64,5.6479,5.62,5.5631,5.5341,5.5256,5.5303,5.5093,5.4973,5.4973,5.4973,5.4973,5.4973,5.4961,5.4973,5.4973,5.4973,5.4973,5.4955,5.4973,5.4973,5.4973,5.502,5.5014,5.4858,5.383,5.3111,5.3081,5.3129,5.3134,5.3164,5.3179,5.3244,5.3375,5.3386,5.3694,5.4473,5.4569,5.4778,5.5482,5.5603,5.553,5.5383,5.4528,5.4124,5.4796,5.4766,5.4106,5.3379,5.3196,5.3196,5.3196,5.3196,5.3159,5.3196,5.3196,5.3196,5.3196,5.3196,5.3241,5.3293,5.3326,5.3398,5.3499,5.3875,5.4121,5.4159,5.4556,5.4865,5.4978,5.4988,5.5106,5.5614,5.5958,5.588,5.7206,5.7188,5.7243,5.7188,5.7333,5.7985,5.8293,5.8383,5.904,5.9398,5.9162,5.7858,5.7641,5.822,5.8275,5.8655,5.9276,5.9366,5.9384,5.9488,5.9475,5.9547,5.9674,5.9638,5.9602,5.9656,5.9674,5.9747,5.9728,5.9705,5.9633,5.961,5.9569,5.9587,5.9685,5.9619,5.9634,5.9747,5.9158,5.8397,5.7504,5.7449,5.7443,5.737,5.6629,5.6276,5.627,5.5572,5.5196,5.5178,5.5221,5.5184,5.5202,5.5184,5.5184,5.5202,5.5202,5.5178,5.5184,5.5178,5.5221,5.5178,5.5251,5.5262,5.5257,5.5087,5.4913,5.4813,5.4871,5.4808,5.4959,5.4879,5.4846,5.4893,5.4989,5.5246,5.5442,5.5464,5.55,5.5585,5.5787,5.5622,5.5732,5.553,5.517,5.4777,5.4785,5.4418,5.3636,5.3361,5.3324,5.3251,5.3225,5.3206,5.3206,5.3196,5.3217,5.3206,5.3206,5.3357,5.3535,5.3709,5.3757,5.4233,5.4886,5.5294,5.549,5.5937,5.6459,5.6401,5.6432,5.6599,5.6677,5.6839,5.6711,5.7913,5.7949,5.842,5.8637,5.8673,5.8981,5.9108,5.9162,5.9452,5.9602,5.9529,5.8891,5.88,5.9108,5.9108,5.9294,5.9602,5.9602,5.9855,6.029,6.0308,6.0561,6.0978,6.1014,6.1014,6.1014,6.1014,6.1014,6.1027,6.1108,6.113,6.1088,6.0755,6.0617,6.069,6.0277,6.0102,6.0225,5.989,5.956,5.917,5.825,5.7721,5.7672,5.7321,5.7156,5.7197,5.6828,5.6616,5.6616,5.6616,5.6616,5.6616,5.6616,5.6616,5.6616,5.6616,5.6616,5.6598,5.6616,5.6616,5.6616,5.6687,5.6699,5.6646,5.6776,5.6792,5.6584,5.5771,5.5201,5.5242,5.527,5.532,5.5395,5.5463,5.5731,5.626,5.6326,5.6455,5.6925,5.7017,5.6998,5.7005,5.7017,5.6466,5.5548,5.5445,5.5427,5.4711,5.4234,5.393,5.3881,5.368,5.3408,5.3261,5.3196,5.3293,5.3451,5.3484,5.3604,5.4027,5.4519,5.4824,5.4999,5.5917,5.6512,5.6558,5.6975,5.7453,5.7544,5.7958,5.8156,5.8156,5.8397,5.8621,5.8728,5.8818,5.9348,5.9602,5.962,5.9837,5.9928,5.9964,6.0145,6.0254,6.0254,6.0267,6.0254,6.0217,6.0036,6.0018,6.0235,6.0254,6.0543,6.1104,6.1141,6.1448,6.1973,6.201,6.201,6.201,6.1973,6.1992,6.2023,6.2082,6.2136,6.2072,6.1661,6.1488,6.1531,6.1008,6.0815,6.0915,6.067,6.0548,6.0451,5.9212,5.8462,5.848,5.8195,5.8092,5.8187,5.7884,5.7709,5.7691,5.7709,5.7709,5.7709,5.7709,5.7709,5.7709,5.7709,5.7691,5.7709,5.7709,5.7709,5.7721,5.7792,5.7815,5.7768,5.7892,5.795,5.7752,5.6689,5.604,5.5985,5.6054,5.6099,5.6111,5.6201,5.6539,5.7042,5.7123,5.7336,5.7886,5.7843,5.7978,5.796,5.7886,5.7391,5.6271,5.6381,5.6363,5.5497,5.4772,5.4462,5.427,5.3966,5.3756,5.343,5.3511,5.3631,5.3822,5.3991,5.4417,5.4758,5.5463,5.6096,5.6393,5.7237,5.7742,5.7871,5.8163,5.8535,5.8663,5.9,5.9361,5.9376,5.9733,5.9981,5.9561,5.9579,5.9615,5.9692,5.9674,6.0435,6.0742,6.0797,6.1503,6.1847,6.1792,6.1811,6.1865,6.1756,6.105,6.1159,6.1792,6.1788,6.182,6.1892,6.1897,6.1955,6.201,6.201,6.201,6.2037,6.2037,6.2037,6.2037,6.2023,6.2023,6.2001,6.1969,6.2005,6.2116,6.2065,6.2146,6.212,6.1536,6.1246,6.1255,6.053,6.0158,6.02,5.9521,5.9106,5.9062,5.8395,5.801,5.8003,5.8017,5.801,5.7973,5.7955,5.7973,5.7955,5.7955,5.7955,5.7944,5.7944,5.7944,5.7973,5.7962,5.7967,5.7932,5.7967,5.7978,5.7967,5.7778,5.7668,5.7668,5.754,5.7643,5.7691,5.7776,5.7806,5.7868,5.7813,5.7923,5.7978,5.7978,5.7978,5.7978,5.7978,5.7682,5.7021,5.6826,5.6463,5.5428,5.4993,5.4661,5.4287,5.4176,5.4159,5.3842,5.3861,5.4115,5.4506,5.4952,5.5524,5.6074,5.6618,5.7179,5.7744,5.8423,5.8911,5.9144,5.9477,5.9854,5.9995,5.9937,6.0148,6.0014,6.0243,6.0382,6.067,6.1123,6.1123,6.1141,6.1177,6.1448,6.1557,6.1593,6.1865,6.201,6.201,6.201,6.201,6.1973,6.172,6.1774,6.2123,6.2222,6.2262,6.2243,6.2262,6.2243,6.2262,6.2163,6.2123,6.2123,6.2141,6.2181,6.2243,6.2243,6.2243,6.2262,6.2243,6.2341,6.2436,6.2462,6.2513,6.2579,6.2248,6.2151,6.2234,6.194,6.1806,6.1863,6.0646,5.9967,5.9979,5.9685,5.93,5.8792,5.8774,5.8547,5.807,5.7978,5.7978,5.7978,5.7978,5.7978,5.7978,5.7978,5.7978,5.7978,5.7978,5.7978,5.7978,5.7978,5.7978,5.7978,5.7978,5.7978,5.7978,5.7978,5.7978,5.7978,5.7978,5.7978,5.7978,5.7978,5.7978,5.7978,5.7978,5.7978,5.7978,5.799,5.7975,5.7942,5.7722,5.7482,5.7306,5.6541,5.5629,5.5603,5.5507,5.5419,5.5303,5.4605,5.4489,5.522,5.582,5.6433,5.701,5.7837,5.8465,5.8611,5.9324,5.9701,5.9828,5.9885,6.0396,6.0396,6.0396,6.0396,6.0396,6.0396,6.0396,6.1503,6.1955,6.201,6.201,6.201,6.201,6.201,6.201,6.201,6.201,6.201,6.201,6.201,6.2023,6.2046,6.2114,6.2203,6.2278,6.231,6.227,6.231,6.2328,6.2257,6.2217,6.2203,6.2217,6.2243,6.2341,6.2389,6.2402,6.2402,6.2402,6.2402,6.2436,6.2526,6.2539,6.2578,6.2629,6.2565,6.2572,6.2705,6.2654,6.2667,6.2639,6.1728,6.1031,6.0805,6.0536,6.0169,5.9692,5.9581,5.9214,5.8492,5.84,5.8272,5.8033,5.7978,5.7978,5.7978,5.7978,5.7978,5.7978,5.7978,5.7978,5.7978,5.7978,5.7978,5.7978,5.7978,5.7978,5.7978,5.7978,5.7978,5.7978,5.7978,5.7978,5.7978,5.7978,5.7978,5.7978,5.7978,5.7978,5.8013,5.8138,5.8304,5.8595,5.8444,5.8603,5.8493,5.7847,5.6799,5.6885,5.6731,5.6678,5.6614,5.6186,5.5947,5.6542,5.7001,5.7542,5.802,5.8903,5.9415,5.9587,5.9854,6.0224,6.0396,6.0396,6.0396,6.0396,6.0396,6.0396,6.0396,6.0396,6.0396,6.1973,6.201,6.201,6.201,6.201,6.201,6.201,6.201,6.2023,6.2005,6.201,6.2023,6.2037,6.2037,6.2114,6.2177,6.219,6.223,6.2208,6.2114,6.2203,6.2222,6.2128,6.2217,6.2243,6.2257,6.2349,6.2402,6.2441,6.2454,6.2441,6.2428,6.2441,6.2467,6.2415,6.2449,6.2423,6.2449,6.248,6.2519,6.2572,6.2629,6.2679,6.278,6.2664,6.2279,6.1643,6.0933,6.0566,6.0438,6.0389,6.0022,5.9343,5.9214,5.8884,5.8345,5.8107,5.807,5.8052,5.807,5.8125,5.8008,5.7978,5.7978,5.7978,5.7978,5.7978,5.7978,5.7978,5.7978,5.7978,5.7978,5.7978,5.7978,5.7978,5.7978,5.7978,5.7978,5.7978,5.799,5.8024,5.802,5.8092,5.8369,5.8648,5.8791,5.8911,5.8944,5.8617,5.832,5.8032,5.7666,5.7615,5.7744,5.7832,5.788,5.7885,5.7993,5.8372,5.8788,5.9029,5.9682,5.9918,6.009,6.0071,6.0396,6.0396,6.0396,6.0396,6.0396,6.0396,6.0396,6.0396,6.0396,6.0396,6.201,6.201,6.201,6.201,6.201,6.201,6.201,6.2023,6.2082,6.2087,6.2019,6.21,6.21,6.2019,6.2046,6.206,6.2073,6.2243,6.2376,6.2459,6.2545,6.2565,6.2513,6.2488,6.2456,6.2488,6.2532,6.259,6.2641,6.2667,6.2667,6.2685,6.2672,6.2685,6.2672,6.2685,6.2685,6.2685,6.2667,6.2692,6.273,6.273,6.2755,6.2793,6.2793,6.2646,6.2426,6.2187,6.1796,6.1263,6.1208,6.086,6.0205,6.0022,5.9924,5.9692,5.9648,5.9373,5.8902,5.8792,5.8572,5.8162,5.8015,5.7978,5.7978,5.8033,5.8033,5.8015,5.8008,5.7978,5.7978,5.7978,5.7978,5.7978,5.7978,5.7978,5.7978,5.7978,5.7978,5.8024,5.8235,5.8402,5.8479,5.877,5.9093,5.9297,5.9306,5.9218,5.9476,5.8963,5.8638,5.8513,5.866,5.8746,5.8765,5.8925,5.9116,5.8982,5.9205,5.9465,5.9816,6.0026,6.0281,6.0396,6.0396,6.0396,6.0396,6.0396,6.0396,6.0396,6.0396,6.0396,6.0396,6.0396,6.0396,6.201,6.201,6.201,6.201,6.201,6.201,6.201,6.2037,6.2136,6.215,6.2114,6.2181,6.2177,6.2141,6.21,6.2277,6.2581,6.2831,6.297,6.2987,6.2771,6.271,6.2654,6.2629,6.261,6.2679,6.2679,6.2717,6.2793,6.2811,6.2811,6.2811,6.2811,6.2811,6.2811,6.2811,6.2811,6.2811,6.2811,6.2811,6.2811,6.2811,6.2811,6.2811,6.2811,6.2811,6.2811,6.2811,6.2572,6.2163,6.2053,6.1667,6.0951,6.0841,6.0713,6.0444,6.0352,6.0132,5.971,5.9636,5.9471,5.8988,5.8877,5.8896,5.8896,5.8896,5.8822,5.851,5.8474,5.8327,5.807,5.7978,5.7978,5.7978,5.7978,5.7978,5.7978,5.7978,5.8085,5.8213,5.8437,5.8638,5.8852,5.9168,5.9494,5.9717,5.9725,5.9725,6.0108,5.9709,5.9545,5.9474,5.9566,5.9606,5.9644,5.9899,6.0262,6.0071,5.9854,5.9988,6.0186,6.0243,6.0396,6.0396,6.0396,6.0396,6.0396,6.0396,6.0396,6.0396,6.0396,6.0396,6.0396,6.0396,6.0396,6.201,6.201,6.201,6.201,6.201,6.201,6.201,6.2037,6.2263,6.2335,6.2304,6.2517,6.2516,6.2528,6.2603,6.2971,6.355,6.3792,6.3876,6.3719,6.3306,6.2914,6.2581,6.2603,6.2679,6.2786,6.278,6.2793,6.2811,6.2811,6.2811,6.2811,6.2811,6.2811,6.2811,6.2811,6.2811,6.2811,6.2811,6.2811,6.2811,6.2811,6.2811,6.2811,6.2811,6.2811,6.2811,6.2811,6.2811,6.2793,6.2683,6.2352,6.1814,6.1667,6.1355,6.0774,6.0572,6.0572,6.0511,6.0456,6.0352,6.0181,6.0144,6.0389,6.015,6.004,5.9838,5.9343,5.9269,5.8994,5.8455,5.8327,5.8309,5.818,5.8143,5.8015,5.7978,5.7978,5.8142,5.8469,5.8646,5.8801,5.9178,5.9599,5.9791,5.9914,6.0121,6.0266,6.0309,6.0201,6.0325,6.0281,6.0141,6.0109,6.0033,6.009,6.0396,6.0415,6.0313,6.0511,6.0434,6.0396,6.0396,6.0396,6.0396,6.0396,6.0396,6.0396,6.0396,6.0396,6.0396,6.0396,6.0396,6.0396,6.0396,6.201,6.201,6.201,6.201,6.201,6.201,6.2028,6.2114,6.2808,6.3021,6.3075,6.3675,6.3866,6.3883,6.393,6.4134,6.4389,6.4632,6.4762,6.4752,6.4684,6.3811,6.2912,6.2736,6.2792,6.2848,6.2829,6.2811,6.2811,6.2811,6.2811,6.2811,6.2811,6.2811,6.2811,6.2811,6.2811,6.2811,6.2811,6.2811,6.2811,6.2811,6.2811,6.2811,6.2811,6.2811,6.2811,6.2811,6.2811,6.2811,6.2811,6.2719,6.2462,6.2426,6.2279,6.2095,6.2077,6.1851,6.141,6.1282,6.1025,6.0474,6.0554,6.0389,6.0389,6.0419,6.0279,6.0077,6.0059,5.9997,5.9795,5.9703,5.9722,5.963,5.8804,5.8107,5.8033,5.8001,5.8153,5.8542,5.8842,5.9178,5.9588,5.9948,6.0181,6.0229,6.0306,6.0396,6.0396,6.0396,6.0396,6.0396,6.032,6.0358,6.0358,6.0358,6.0434,6.053,6.0683,6.1007,6.0759,6.0434,6.0415,6.0396,6.0396,6.0396,6.0396,6.0396,6.0396,6.0396,6.0396,6.0396,6.0396,6.0396,6.0396,6.201,6.201,6.201,6.2191,6.2494,6.2512,6.2693,6.3083,6.3611,6.3898,6.4025,6.4407,6.4713,6.4772,6.4795,6.5049,6.5391,6.5594,6.5678,6.5637,6.5378,6.4725,6.3967,6.3582,6.3356,6.3301,6.2976,6.2811,6.2811,6.2811,6.2811,6.2811,6.2811,6.2811,6.2811,6.2811,6.2811,6.2811,6.2811,6.2811,6.2811,6.2811,6.2811,6.2811,6.2811,6.2811,6.2811,6.2811,6.2811,6.2811,6.2811,6.2811,6.2811,6.2811,6.2811,6.2811,6.2793,6.2536,6.2254,6.2108,6.1887,6.1526,6.1398,6.1398,6.1435,6.1398,6.1343,6.0951,6.0915,6.0731,6.0456,6.0389,6.0389,6.0236,5.9557,5.8877,5.8565,5.8217,5.8316,5.871,5.9065,5.9441,5.9937,6.027,6.0368,6.0389,6.0356,6.0396,6.0396,6.0396,6.0396,6.0396,6.0453,6.0492,6.0721,6.0816,6.1141,6.1198,6.1363,6.165,6.137,6.0874,6.0587,6.0568,6.0472,6.0453,6.0587,6.0587,6.0396,6.0396,6.0396,6.0396,6.0396,6.0396,6.0396,6.2078,6.2164,6.2132,6.2617,6.331,6.3351,6.3723,6.4354,6.4647,6.4812,6.4931,6.4995,6.5382,6.5474,6.5613,6.5853,6.657,6.6583,6.6609,6.6426,6.6077,6.56,6.5503,6.4567,6.4158,6.3919,6.3264,6.2958,6.2848,6.2811,6.2811,6.2811,6.2811,6.2811,6.2811,6.2811,6.2811,6.2811,6.2811,6.2811,6.2811,6.2811,6.2811,6.2811,6.2811,6.2811,6.2811,6.2811,6.2811,6.2811,6.2811,6.2811,6.2811,6.2811,6.2811,6.2811,6.2811,6.2774,6.2774,6.2683,6.2738,6.2591,6.2627,6.2811,6.2609,6.2517,6.2297,6.1759,6.1722,6.1429,6.1025,6.0756,6.0848,6.0878,6.0658,6.015,5.9526,5.8749,5.8533,5.9177,5.9347,5.9693,6.0114,6.0396,6.0396,6.0396,6.0396,6.0396,6.0396,6.0396,6.0396,6.0396,6.0492,6.0625,6.095,6.1268,6.1745,6.2089,6.228,6.2433,6.2249,6.1772,6.1122,6.0893,6.1313,6.1332,6.1141,6.0969,6.0721,6.0549,6.0644,6.0511,6.0396,6.0396,6.0396,6.2418,6.3089,6.2984,6.3534,6.4348,6.4357,6.4466,6.4795,6.5423,6.5706,6.5861,6.6372,6.665,6.677,6.6797,6.7131,6.7236,6.7335,6.7444,6.7425,6.7333,6.7187,6.6824,6.5742,6.4769,6.4304,6.3974,6.3466,6.3013,6.2848,6.2811,6.2811,6.2811,6.2811,6.2811,6.2811,6.2811,6.2811,6.2811,6.2811,6.2811,6.2811,6.2811,6.2811,6.2811,6.2811,6.2811,6.2811,6.2811,6.2811,6.2811,6.2811,6.2811,6.2811,6.2811,6.2811,6.2811,6.2811,6.2811,6.2811,6.2811,6.2811,6.2811,6.2811,6.2811,6.2811,6.2719,6.2536,6.2536,6.2334,6.2132,6.2242,6.2132,6.1985,6.1649,6.1288,6.1012,6.0333,5.9963,6.007,6.0182,6.0229,6.043,6.0573,6.0549,6.0434,6.0472,6.0434,6.0511,6.0625,6.0759,6.095,6.1141,6.1382,6.1593,6.207,6.272,6.3121,6.3331,6.3419,6.3216,6.293,6.2395,6.228,6.2426,6.2261,6.1841,6.1612,6.1402,6.1153,6.0874,6.0644,6.0492,6.0453,6.0396,6.2976,6.3529,6.3812,6.4499,6.5264,6.5314,6.5514,6.5934,6.6367,6.6628,6.6774,6.7194,6.7382,6.7433,6.7538,6.7579,6.7593,6.766,6.7682,6.7664,6.7664,6.7682,6.7627,6.688,6.5999,6.5222,6.4383,6.3815,6.3429,6.2994,6.2811,6.2811,6.2811,6.2811,6.2811,6.2811,6.2811,6.2811,6.2811,6.2811,6.2811,6.2811,6.2811,6.2811,6.2811,6.2811,6.2811,6.2811,6.2811,6.2811,6.2811,6.2811,6.2811,6.2811,6.2811,6.2811,6.2811,6.2811,6.2811,6.2811,6.2811,6.2811,6.2811,6.2811,6.2811,6.2811,6.2811,6.2811,6.2793,6.2793,6.2811,6.2793,6.2811,6.2738,6.2426,6.2242,6.2244,6.1484,6.0826,6.0966,6.1186,6.1395,6.1485,6.1335,6.1478,6.1707,6.1745,6.1726,6.1822,6.1898,6.1822,6.1936,6.2089,6.2261,6.2388,6.293,6.377,6.4172,6.4458,6.4535,6.4477,6.4153,6.379,6.3515,6.3133,6.2846,6.249,6.2273,6.2032,6.1573,6.1211,6.0835,6.0587,6.053,6.0453,6.3647,6.406,6.4721,6.5464,6.6185,6.6263,6.6605,6.7167,6.728,6.73,6.7479,6.7511,6.7565,6.7674,6.7687,6.77,6.77,6.77,6.7682,6.7682,6.7682,6.7682,6.7627,6.7462,6.7168,6.6531,6.5118,6.4328,6.3851,6.3301,6.2829,6.2811,6.2811,6.2811,6.2811,6.2811,6.2811,6.2811,6.2811,6.2811,6.2811,6.2811,6.2811,6.2811,6.2811,6.2811,6.2811,6.2811,6.2811,6.2811,6.2811,6.2811,6.2811,6.2811,6.2811,6.2811,6.2811,6.2811,6.2811,6.2811,6.2811,6.2811,6.2811,6.2811,6.2811,6.2811,6.2811,6.2811,6.2811,6.2811,6.2811,6.2811,6.2811,6.2793,6.2793,6.3032,6.3154,6.2274,6.1983,6.1958,6.2198,6.2395,6.2509,6.2464,6.2732,6.2923,6.2942,6.2961,6.298,6.2903,6.2693,6.2739,6.2853,6.3408,6.3618,6.3694,6.4554,6.4764,6.5184,6.5203,6.5261,6.4955,6.4477,6.3962,6.3579,6.3465,6.3369,6.3255,6.2853,6.2128,6.1745,6.1573,6.1172,6.0683,6.0568,6.4469,6.5833,6.582,6.6446,6.7299,6.7277,6.7364,6.7583,6.7588,6.7615,6.766,6.766,6.766,6.77,6.7682,6.7682,6.7682,6.7682,6.7682,6.7682,6.7682,6.7682,6.7682,6.7682,6.759,6.7131,6.5888,6.4824,6.409,6.327,6.2939,6.2829,6.2811,6.2811,6.2811,6.2811,6.2811,6.2811,6.2811,6.2811,6.2811,6.2811,6.2811,6.2811,6.2811,6.2811,6.2811,6.2811,6.2811,6.2811,6.2811,6.2811,6.2811,6.2811,6.2811,6.2811,6.2811,6.2811,6.2811,6.2811,6.2811,6.2811,6.2811,6.2811,6.2811,6.2811,6.2811,6.2811,6.2811,6.2811,6.2811,6.2811,6.2811,6.2811,6.283,6.302,6.3382,6.3409,6.3272,6.3252,6.3286,6.332,6.342,6.3457,6.3477,6.3553,6.3534,6.3496,6.3465,6.3324,6.3114,6.3293,6.3541,6.4248,6.4917,6.4898,6.5184,6.5127,6.5318,6.5318,6.5356,6.5375,6.5031,6.4554,6.4535,6.4668,6.4535,6.4248,6.3835,6.3262,6.2834,6.2407,6.1841,6.1287,6.0905,6.5549,6.642,6.6755,6.7194,6.7637,6.7652,6.7633,6.7687,6.7682,6.7682,6.7682,6.7682,6.7682,6.7682,6.7682,6.7682,6.7682,6.7682,6.7682,6.7682,6.7682,6.7682,6.7682,6.7682,6.7682,6.737,6.6457,6.5503,6.4714,6.3906,6.3251,6.2866,6.2811,6.2811,6.2811,6.2811,6.2811,6.2811,6.2811,6.2811,6.2811,6.2811,6.2811,6.2811,6.2811,6.2811,6.2811,6.2811,6.2811,6.2811,6.2811,6.2811,6.2811,6.2811,6.2811,6.2811,6.2811,6.2811,6.2811,6.2811,6.2811,6.2811,6.2811,6.2811,6.2811,6.2811,6.2811,6.2811,6.2811,6.2811,6.2811,6.2811,6.2811,6.2811,6.2818,6.3139,6.3631,6.3963,6.4153,6.4305,6.4427,6.4411,6.4424,6.4382,6.4248,6.4191,6.4133,6.4076,6.4,6.3942,6.384,6.4076,6.4344,6.4668,6.528,6.5337,6.5394,6.5394,6.5394,6.5394,6.5394,6.5394,6.5394,6.5184,6.5356,6.5394,6.528,6.484,6.4599,6.4339,6.3835,6.3255,6.2529,6.1936,6.1593,6.6493,6.6788,6.7425,6.7682,6.7682,6.7682,6.77,6.7682,6.7682,6.7682,6.7682,6.7682,6.7682,6.7682,6.7682,6.7682,6.7682,6.7682,6.7682,6.7682,6.7682,6.7682,6.7682,6.7682,6.7682,6.759,6.7131,6.6219,6.5178,6.4365,6.3613,6.3044,6.2811,6.2811,6.2811,6.2811,6.2811,6.2811,6.2811,6.2811,6.2811,6.2811,6.2811,6.2811,6.2811,6.2811,6.2811,6.2811,6.2811,6.2811,6.2811,6.2811,6.2811,6.2811,6.2811,6.2811,6.2811,6.2811,6.2811,6.2811,6.2811,6.2811,6.2811,6.2811,6.2811,6.2811,6.2811,6.2811,6.2811,6.2811,6.2811,6.2811,6.2811,6.283,6.2935,6.3222,6.3816,6.4273,6.4639,6.4919,6.5306,6.528,6.5031,6.5012,6.4821,6.4821,6.4764,6.4821,6.4783,6.4917,6.4898,6.505,6.5184,6.5184,6.5375,6.5356,6.5394,6.5394,6.5394,6.5394,6.5394,6.5394,6.5394,6.5394,6.5394,6.5394,6.5394,6.5394,6.5077,6.4771,6.4542,6.4084,6.3358,6.2853,6.2529,6.6916,6.7554,6.7664,6.7682,6.7682,6.7682,6.7682,6.7682,6.7682,6.7682,6.7682,6.7682,6.7682,6.7682,6.7682,6.7682,6.7682,6.7682,6.7682,6.7682,6.7682,6.7682,6.7682,6.7682,6.7682,6.7682,6.7572,6.6659,6.5503,6.453,6.3668,6.2994,6.2811,6.2811,6.2811,6.2811,6.2811,6.2811,6.2811,6.2811,6.2811,6.2811,6.2811,6.2811,6.2811,6.2811,6.2811,6.2811,6.2811,6.2811,6.2811,6.2811,6.2811,6.2811,6.2811,6.2811,6.2811,6.2811,6.2811,6.2811,6.2811,6.2811,6.2811,6.2811,6.2811,6.2811,6.2811,6.2811,6.2811,6.2811,6.2823,6.2836,6.2823,6.2996,6.3222,6.3583,6.4075,6.4436,6.4827,6.5117,6.5379,6.5394,6.528,6.5337,6.5356,6.5375,6.5394,6.5394,6.5394,6.5394,6.5394,6.5394,6.5394,6.5394,6.5394,6.5394,6.5394,6.5394,6.5394,6.5394,6.5394,6.5394,6.5394,6.5394,6.5394,6.5394,6.5394,6.5375,6.5337,6.5203,6.4982,6.4619,6.4198,6.3778,6.3338,6.7388,6.7682,6.7682,6.7682,6.7682,6.7682,6.7682,6.7682,6.7682,6.7682,6.7682,6.7682,6.7682,6.7682,6.7682,6.7682,6.7682,6.7682,6.7682,6.7682,6.7682,6.7682,6.7682,6.7682,6.7682,6.7682,6.7535,6.6751,6.5632,6.4861,6.4169,6.2958,6.2811,6.2811,6.2811,6.2811,6.2811,6.2811,6.2811,6.2811,6.2811,6.2811,6.2811,6.2811,6.2811,6.2811,6.2811,6.2811,6.2811,6.2811,6.2811,6.2811,6.2811,6.2811,6.2811,6.2811,6.2811,6.2811,6.2811,6.2811,6.2811,6.2811,6.2811,6.2811,6.2811,6.2811,6.2811,6.2811,6.2811,6.2823,6.2904,6.305,6.3169,6.3326,6.3594,6.3992,6.435,6.4567,6.4898,6.5177,6.5394,6.5394,6.5394,6.5394,6.5394,6.5394,6.5394,6.5394,6.5394,6.5394,6.5394,6.5394,6.5394,6.5394,6.5394,6.5394,6.5394,6.5394,6.5394,6.5394,6.5394,6.5394,6.5394,6.5394,6.5394,6.5394,6.5394,6.5394,6.5356,6.5375,6.5394,6.5039,6.4676,6.4256,6.374,6.7682,6.7682,6.7682,6.7682,6.7682,6.7682,6.7682,6.7682,6.7682,6.7682,6.7682,6.7682,6.7682,6.7682,6.7682,6.7682,6.7682,6.7682,6.7682,6.7682,6.7682,6.7682,6.7682,6.7682,6.7682,6.7682,6.737,6.6568,6.5668,6.4884,6.4077,6.2848,6.2811,6.2811,6.2811,6.2811,6.2811,6.2811,6.2811,6.2811,6.2811,6.2811,6.2811,6.2811,6.2811,6.2811,6.2811,6.2811,6.2811,6.2811,6.2811,6.2811,6.2811,6.2811,6.2811,6.2811,6.2811,6.2811,6.2811,6.2811,6.2811,6.2811,6.2811,6.2811,6.2811,6.2811,6.2811,6.2811,6.2811,6.2855,6.302,6.3308,6.3479,6.3707,6.4024,6.4407,6.4711,6.4898,6.5035,6.5225,6.5394,6.5394,6.5394,6.5394,6.5394,6.5394,6.5394,6.5394,6.5394,6.5394,6.5394,6.5394,6.5394,6.5394,6.5394,6.5394,6.5394,6.5394,6.5394,6.5394,6.5394,6.5394,6.5394,6.5394,6.5394,6.5394,6.5394,6.5394,6.5394,6.5394,6.5394,6.5394,6.5134,6.4714,6.4256,6.7682,6.7682,6.7682,6.7682,6.7682,6.7682,6.7682,6.7682,6.7682,6.7682,6.7682,6.7682,6.7682,6.7682,6.7682,6.7682,6.7682,6.7682,6.7682,6.7682,6.7682,6.7682,6.7682,6.7682,6.7664,6.7554,6.7131,6.6256,6.5307,6.4604,6.3765,6.2921,6.2811,6.2811,6.2811,6.2811,6.2811,6.2811,6.2811,6.2811,6.2811,6.2811,6.2811,6.2811,6.2811,6.2811,6.2811,6.2811,6.2811,6.2811,6.2811,6.2811,6.2811,6.2811,6.2811,6.2811,6.2811,6.2811,6.2811,6.2811,6.2811,6.2811,6.2811,6.2811,6.2811,6.2811,6.2811,6.2818,6.288,6.308,6.328,6.3546,6.3854,6.4104,6.4426,6.4694,6.4974,6.5153,6.5283,6.5372,6.5394,6.5394,6.5394,6.5394,6.5394,6.5394,6.5394,6.5394,6.5394,6.5394,6.5394,6.5394,6.5394,6.5394,6.5394,6.5394,6.5394,6.5394,6.5394,6.5394,6.5394,6.5394,6.5394,6.5394,6.5394,6.5394,6.5394,6.5394,6.5394,6.5394,6.5394,6.5394,6.5394,6.5134,6.4733,6.7682,6.7682,6.7682,6.7682,6.7682,6.7682,6.7682,6.7682,6.7682,6.7682,6.7682,6.7682,6.7682,6.7682,6.7682,6.7682,6.7682,6.7682,6.7682,6.7682,6.7682,6.7682,6.7682,6.7682,6.7682,6.7517,6.6893,6.609,6.5288,6.4402,6.3631,6.305,6.2811,6.2811,6.2811,6.2811,6.2811,6.2811,6.2811,6.2811,6.2811,6.2811,6.2811,6.2811,6.2811,6.2811,6.2811,6.2811,6.2811,6.2811,6.2811,6.2811,6.2811,6.2811,6.2811,6.2811,6.2811,6.2811,6.2811,6.2811,6.2811,6.2811,6.2811,6.2811,6.2811,6.2811,6.2811,6.288,6.3038,6.3275,6.3456,6.3961,6.4445,6.4612,6.481,6.5044,6.5185,6.5341,6.5379,6.5394,6.5394,6.5394,6.5394,6.5394,6.5394,6.5394,6.5394,6.5394,6.5394,6.5394,6.5394,6.5394,6.5394,6.5394,6.5394,6.5394,6.5394,6.5394,6.5394,6.5394,6.5394,6.5394,6.5394,6.5394,6.5394,6.5394,6.5394,6.5394,6.5394,6.5394,6.5394,6.5394,6.5394,6.5394,6.5134,6.7682,6.7682,6.7682,6.7682,6.7682,6.7682,6.7682,6.7682,6.7682,6.7682,6.7682,6.7682,6.7682,6.7682,6.7682,6.7682,6.7682,6.7682,6.7682,6.7682,6.7682,6.7682,6.7682,6.7682,6.7682,6.7462,6.6604,6.5742,6.527,6.4237,6.3429,6.2939,6.2811,6.2811,6.2811,6.2811,6.2811,6.2811,6.2811,6.2811,6.2811,6.2811,6.2811,6.2811,6.2811,6.2811,6.2811,6.2811,6.2811,6.2811,6.2811,6.2811,6.2811,6.2811,6.2811,6.2811,6.2811,6.2811,6.2811,6.2811,6.2811,6.2811,6.2811,6.2811,6.2811,6.2805,6.2842,6.305,6.3245,6.3434,6.3653,6.4273,6.4704,6.4836,6.5085,6.5291,6.5298,6.5387,6.5394,6.5394,6.5394,6.5394,6.5394,6.5394,6.5394,6.5394,6.5394,6.5394,6.5394,6.5394,6.5394,6.5394,6.5394,6.5394,6.5394,6.5394,6.5394,6.5394,6.5394,6.5394,6.5394,6.5394,6.5394,6.5394,6.5394,6.5394,6.5394,6.5394,6.5394,6.5394,6.5394,6.5394,6.5394,6.5394,6.5394,6.7682,6.7682,6.7682,6.7682,6.7682,6.7682,6.7682,6.7682,6.7682,6.7682,6.7682,6.7682,6.7682,6.7682,6.7682,6.7682,6.7682,6.7682,6.7682,6.7682,6.7682,6.7682,6.7682,6.7682,6.759,6.7278,6.6329,6.5453,6.516,6.3747,6.2976,6.2848,6.2811,6.2811,6.2811,6.2811,6.2811,6.2811,6.2811,6.2811,6.2811,6.2811,6.2811,6.2811,6.2811,6.2811,6.2811,6.2811,6.2811,6.2811,6.2811,6.2811,6.2811,6.2811,6.2811,6.2811,6.2811,6.2811,6.2811,6.2811,6.2811,6.2811,6.2811,6.2811,6.2811,6.283,6.2965,6.3233,6.3268,6.3642,6.4055,6.4511,6.4845,6.5077,6.5306,6.5394,6.5394,6.5394,6.5394,6.5394,6.5394,6.5394,6.5394,6.5394,6.5394,6.5394,6.5394,6.5394,6.5394,6.5394,6.5394,6.5394,6.5394,6.5394,6.5394,6.5394,6.5394,6.5394,6.5394,6.5394,6.5394,6.5394,6.5394,6.5394,6.5394,6.5394,6.5394,6.5394,6.5394,6.5394,6.5394,6.5394,6.5394,6.5394,6.5394,6.7682,6.7682,6.7682,6.7682,6.7682,6.7682,6.7682,6.7682,6.7682,6.7682,6.7682,6.7682,6.7682,6.7682,6.7682,6.7682,6.7682,6.7682,6.7682,6.7682,6.7682,6.7682,6.7682,6.7645,6.7425,6.6733,6.5778,6.4971,6.4451,6.3288,6.2903,6.2811,6.2811,6.2811,6.2811,6.2811,6.2811,6.2811,6.2811,6.2811,6.2811,6.2811,6.2811,6.2811,6.2811,6.2811,6.2811,6.2811,6.2811,6.2811,6.2811,6.2811,6.2811,6.2811,6.2811,6.2811,6.2811,6.2811,6.2811,6.2811,6.2811,6.2811,6.2811,6.2811,6.2811,6.2811,6.3062,6.3445,6.3583,6.4014,6.4539,6.4941,6.5236,6.5275,6.5394,6.5394,6.5394,6.5394,6.5394,6.5394,6.5394,6.5394,6.5394,6.5394,6.5394,6.5394,6.5394,6.5394,6.5394,6.5394,6.5394,6.5394,6.5394,6.5394,6.5394,6.5394,6.5394,6.5394,6.5394,6.5394,6.5394,6.5394,6.5394,6.5394,6.5394,6.5394,6.5394,6.5394,6.5394,6.5394,6.5394,6.5394,6.5394,6.5394,6.5394,6.7682,6.7682,6.7682,6.7682,6.7682,6.7682,6.7682,6.7682,6.7682,6.7682,6.7682,6.7682,6.7682,6.7682,6.7682,6.7682,6.7682,6.7682,6.7682,6.7682,6.7682,6.7682,6.7682,6.7627,6.726,6.6476,6.5668,6.4916,6.4176,6.3246,6.2848,6.2811,6.2811,6.2811,6.2811,6.2811,6.2811,6.2811,6.2811,6.2811,6.2811,6.2811,6.2811,6.2811,6.2811,6.2811,6.2811,6.2811,6.2811,6.2811,6.2811,6.2811,6.2811,6.2811,6.2811,6.2811,6.2811,6.2811,6.2811,6.2811,6.2811,6.2811,6.2811,6.2811,6.2867,6.2984,6.3308,6.3663,6.3973,6.4436,6.4907,6.5291,6.5275,6.5298,6.5394,6.5394,6.5394,6.5394,6.5394,6.5394,6.5394,6.5394,6.5394,6.5394,6.5394,6.5394,6.5394,6.5394,6.5394,6.5394,6.5394,6.5394,6.5394,6.5394,6.5394,6.5394,6.5394,6.5394,6.5394,6.5394,6.5394,6.5394,6.5394,6.5394,6.5394,6.5394,6.5394,6.5394,6.5394,6.5394,6.5394,6.5394,6.5394,6.5394,6.5394,6.7682,6.7682,6.7682,6.7682,6.7682,6.7682,6.7682,6.7682,6.7682,6.7682,6.7682,6.7682,6.7682,6.7682,6.7682,6.7682,6.7682,6.7682,6.7682,6.7682,6.7682,6.7682,6.7682,6.7645,6.7095,6.6402,6.5613,6.4787,6.4029,6.3227,6.2811,6.2811,6.2811,6.2811,6.2811,6.2811,6.2811,6.2811,6.2811,6.2811,6.2811,6.2811,6.2811,6.2811,6.2811,6.2811,6.2811,6.2811,6.2811,6.2811,6.2811,6.2811,6.2811,6.2811,6.2811,6.2811,6.2811,6.2811,6.2811,6.2811,6.2904,6.2923,6.2898,6.2855,6.2996,6.3292,6.3704,6.3981,6.4282,6.4747,6.5209,6.5161,6.5101,6.5225,6.5387,6.5394,6.5394,6.5394,6.5394,6.5394,6.5394,6.5394,6.5394,6.5394,6.5394,6.5394,6.5394,6.5394,6.5394,6.5394,6.5394,6.5394,6.5394,6.5394,6.5394,6.5394,6.5394,6.5394,6.5394,6.5394,6.5394,6.5394,6.5394,6.5394,6.5394,6.5394,6.5394,6.5394,6.5394,6.5394,6.5394,6.5394,6.5394,6.5394,6.5394,6.7682,6.7682,6.7682,6.7682,6.7682,6.7682,6.7682,6.7682,6.7682,6.7682,6.7682,6.7682,6.7682,6.7682,6.7682,6.7682,6.7682,6.7682,6.7682,6.7682,6.7682,6.7682,6.7682,6.7572,6.6843,6.6017,6.5233,6.4536,6.3447,6.2811,6.2811,6.2811,6.2811,6.2811,6.2811,6.2811,6.2811,6.2811,6.2811,6.2811,6.2811,6.2811,6.2811,6.2811,6.2811,6.2811,6.2811,6.2811,6.2811,6.2811,6.2811,6.2811,6.2811,6.2811,6.2811,6.2811,6.2811,6.2811,6.2811,6.2811,6.2935,6.321,6.3292,6.3303,6.3422,6.3707,6.4144,6.435,6.4576,6.4983,6.524,6.5232,6.5201,6.5291,6.5394,6.5394,6.5394,6.5394,6.5394,6.5394,6.5394,6.5394,6.5394,6.5394,6.5394,6.5394,6.5394,6.5394,6.5394,6.5394,6.5394,6.5394,6.5394,6.5394,6.5394,6.5394,6.5394,6.5394,6.5394,6.5394,6.5394,6.5394,6.5394,6.5394,6.5394,6.5394,6.5394,6.5394,6.5394,6.5394,6.5394,6.5394,6.5394,6.5394,6.5394,6.7682,6.7682,6.7682,6.7682,6.7682,6.7682,6.7682,6.7682,6.7682,6.7682,6.7682,6.7682,6.7682,6.7682,6.7682,6.7682,6.7682,6.7682,6.7682,6.7682,6.7682,6.7682,6.7664,6.7315,6.6457,6.5613,6.4824,6.409,6.3086,6.2811,6.2811,6.2811,6.2811,6.2811,6.2811,6.2811,6.2811,6.2811,6.2811,6.2811,6.2811,6.2811,6.2811,6.2811,6.2811,6.2811,6.2811,6.2811,6.2811,6.2811,6.2811,6.2811,6.2811,6.2811,6.2811,6.2811,6.2811,6.2935,6.3026,6.2892,6.3198,6.355,6.3739,6.3867,6.4014,6.4273,6.4492,6.4685,6.4915,6.5117,6.5283,6.5394,6.5394,6.5394,6.5394,6.5394,6.5394,6.5394,6.5394,6.5394,6.5394,6.5394,6.5394,6.5394,6.5394,6.5394,6.5394,6.5394,6.5394,6.5394,6.5394,6.5394,6.5394,6.5394,6.5394,6.5394,6.5394,6.5394,6.5394,6.5394,6.5394,6.5394,6.5394,6.5394,6.5394,6.5394,6.5394,6.5394,6.5394,6.5394,6.5394,6.5394,6.5394,6.5394,6.5394,6.7682,6.7682,6.7682,6.7682,6.7682,6.7682,6.7682,6.7682,6.7682,6.7682,6.7682,6.7682,6.7682,6.7682,6.7682,6.7682,6.7682,6.7682,6.7682,6.7682,6.7682,6.7682,6.7462,6.6911,6.62,6.5338,6.453,6.3815,6.3086,6.2811,6.2811,6.2811,6.2811,6.2811,6.2811,6.2811,6.2811,6.2811,6.2811,6.2811,6.2811,6.2811,6.2811,6.2811,6.2811,6.2811,6.2811,6.2811,6.2811,6.2811,6.2811,6.2811,6.2811,6.2811,6.2811,6.288,6.2917,6.311,6.328,6.3222,6.3531,6.3871,6.4146,6.4379,6.4593,6.4738,6.4915,6.4966,6.5161,6.5232,6.5372,6.5394,6.5394,6.5394,6.5394,6.5394,6.5394,6.5394,6.5394,6.5394,6.5394,6.5394,6.5394,6.5394,6.5394,6.5394,6.5394,6.5394,6.5394,6.5394,6.5394,6.5394,6.5394,6.5394,6.5394,6.5394,6.5394,6.5394,6.5394,6.5394,6.5394,6.5394,6.5394,6.5394,6.5394,6.5394,6.5394,6.5394,6.5394,6.5394,6.5394,6.5394,6.5394,6.5394,6.5394,6.7682,6.7682,6.7682,6.7682,6.7682,6.7682,6.7682,6.7682,6.7682,6.7682,6.7682,6.7682,6.7682,6.7682,6.7682,6.7682,6.7682,6.7682,6.7682,6.7682,6.7682,6.759,6.748,6.6714,6.5999,6.5283,6.4475,6.3594,6.2994,6.2811,6.2811,6.2811,6.2811,6.2811,6.2811,6.2811,6.2811,6.2811,6.2811,6.2811,6.2811,6.2811,6.2811,6.2811,6.2811,6.2811,6.2811,6.2811,6.2811,6.2811,6.2811,6.2811,6.2811,6.2811,6.2823,6.2855,6.3134,6.3354,6.3561,6.3685,6.4014,6.4341,6.4658,6.4896,6.5085,6.5193,6.5259,6.5283,6.5306,6.5372,6.5394,6.5394,6.5394,6.5394,6.5394,6.5394,6.5394,6.5394,6.5394,6.5394,6.5394,6.5394,6.5394,6.5394,6.5394,6.5394,6.5394,6.5394,6.5394,6.5394,6.5394,6.5394,6.5394,6.5394,6.5394,6.5394,6.5394,6.5394,6.5394,6.5394,6.5394,6.5394,6.5394,6.5394,6.5394,6.5394,6.5394,6.5394,6.5394,6.5394,6.5394,6.5394,6.5394,6.5394,6.5394,6.7682,6.7682,6.7682,6.7682,6.7682,6.7682,6.7682,6.7682,6.7682,6.7682,6.7682,6.7682,6.7682,6.7682,6.7682,6.7682,6.7682,6.7682,6.7682,6.7682,6.759,6.7388,6.7008,6.6366,6.5485,6.4732,6.3943,6.3191,6.2848,6.2811,6.2811,6.2811,6.2811,6.2811,6.2811,6.2811,6.2811,6.2811,6.2811,6.2811,6.2811,6.2811,6.2811,6.2811,6.2811,6.2811,6.2811,6.2811,6.2811,6.2811,6.2811,6.2811,6.2811,6.2811,6.2923,6.3122,6.3395,6.3671,6.394,6.4184,6.4464,6.4801,6.4827,6.4958,6.5232,6.5349,6.5349,6.5356,6.5356,6.5394,6.5394,6.5394,6.5394,6.5394,6.5394,6.5394,6.5394,6.5394,6.5394,6.5394,6.5394,6.5394,6.5394,6.5394,6.5394,6.5394,6.5394,6.5394,6.5394,6.5394,6.5394,6.5394,6.5394,6.5394,6.5394,6.5394,6.5394,6.5394,6.5394,6.5394,6.5394,6.5394,6.5394,6.5394,6.5394,6.5394,6.5394,6.5394,6.5394,6.5394,6.5394,6.5394,6.5394,6.5394,6.5394,6.7682,6.7682,6.7682,6.7682,6.7682,6.7682,6.7682,6.7682,6.7682,6.7682,6.7682,6.7682,6.7682,6.7682,6.7682,6.7682,6.7682,6.7682,6.7682,6.7645,6.7517,6.7136,6.6439,6.56,6.4751,6.3998,6.3282,6.3013,6.2811,6.2811,6.2811,6.2811,6.2811,6.2811,6.2811,6.2811,6.2811,6.2811,6.2811,6.2811,6.2811,6.2811,6.2811,6.2811,6.2811,6.2811,6.2811,6.2811,6.2811,6.2867,6.2917,6.2984,6.305,6.3122,6.3308,6.3528,6.375,6.4144,6.4483,6.453,6.4845,6.5057,6.4941,6.5035,6.5322,6.5394,6.5394,6.5394,6.5394,6.5394,6.5394,6.5394,6.5394,6.5394,6.5394,6.5394,6.5394,6.5394,6.5394,6.5394,6.5394,6.5394,6.5394,6.5394,6.5394,6.5394,6.5394,6.5394,6.5394,6.5394,6.5394,6.5394,6.5394,6.5394,6.5394,6.5394,6.5394,6.5394,6.5394,6.5394,6.5394,6.5394,6.5394,6.5394,6.5394,6.5394,6.5394,6.5394,6.5394,6.5394,6.5394,6.5394,6.5394,6.5394,6.5394,6.7682,6.7682,6.7682,6.7682,6.7682,6.7682,6.7682,6.7682,6.7682,6.7682,6.7682,6.7682,6.7682,6.7682,6.7682,6.7682,6.7682,6.7682,6.7682,6.7664,6.7136,6.6751,6.6035,6.4916,6.3925,6.3319,6.2939,6.2866,6.2811,6.2811,6.2811,6.2811,6.2811,6.2811,6.2811,6.2811,6.2811,6.2811,6.2811,6.2811,6.2811,6.2811,6.2811,6.2811,6.2811,6.2811,6.2811,6.2811,6.2811,6.2917,6.3122,6.3257,6.3388,6.355,6.3785,6.3973,6.4195,6.4492,6.4757,6.4932,6.5232,6.5283,6.5193,6.5225,6.5394,6.5394,6.5394,6.5394,6.5394,6.5394,6.5394,6.5394,6.5394,6.5394,6.5394,6.5394,6.5394,6.5394,6.5394,6.5394,6.5394,6.5394,6.5394,6.5394,6.5394,6.5394,6.5394,6.5394,6.5394,6.5394,6.5394,6.5394,6.5394,6.5394,6.5394,6.5394,6.5394,6.5394,6.5394,6.5394,6.5394,6.5394,6.5394,6.5394,6.5394,6.5394,6.5394,6.5394,6.5394,6.5394,6.5394,6.5394,6.5394,6.5394,6.5394]}]]